[[{"header":{"parameterUnit":"m.s-1","parameterCategory":1,"la1":30.6,"la2":29.2853,"lo1":-89.7004,"lo2":-87.6739,"dy":0.0162,"dx":0.0183,"nx":112,"ny":82,"refTime":"2024-09-20T06:00:00:Z","depth":0,"parameterNumber":2,"parameterNumberName":"U-component_of_WINDS"},"data":[0.0,0.0,0.0,0.0,0.0,0.0,0.0,0.0,0.0,0.0,0.0,0.0,0.0,0.0,0.0,0.0,0.0,0.0,0.0,0.0,0.0,0.0,0.0,0.0,0.0,0.0,0.0,0.0,0.0,0.0,0.0,0.0,0.0,0.0,0.0,0.0,0.0,0.0,0.0,0.0,0.0,0.0,0.0,0.0,0.0,0.0,0.0,0.0,0.0,0.0,0.0,0.0,0.0,0.0,0.0,0.0,0.0,0.0,0.0,0.0,0.0,0.0,0.0,0.0,0.0,0.0,0.0,0.0,0.0,0.0,0.0,0.0,0.0,0.0,0.0,0.0,0.0,0.0,0.0,0.0,0.0,0.0,0.0,0.0,0.0,0.0,0.0,0.0,0.0,0.0,-0.6664,-0.8319,-0.9753,-1.0598,-1.0542,-0.9718,-0.8361,-0.6408,0.0,0.0,0.0,0.0,0.0,0.0,0.0,0.0,0.0,0.0,0.0,0.0,0.0,0.0,0.0,0.0,0.0,0.0,0.0,0.0,0.0,0.0,0.0,0.0,0.0,0.0,0.0,0.0,0.0,0.0,0.0,0.0,0.0,0.0,0.0,0.0,0.0,0.0,0.0,0.0,0.0,0.0,0.0,0.0,0.0,0.0,0.0,0.0,0.0,0.0,0.0,0.0,0.0,0.0,0.0,0.0,0.0,0.0,0.0,0.0,0.0,0.0,0.0,0.0,0.0,0.0,0.0,0.0,0.0,0.0,0.0,0.0,0.0,0.0,0.0,0.0,0.0,0.0,0.0,0.0,0.0,0.0,0.0,0.0,0.0,0.0,0.0,0.0,0.0,0.0,0.0,0.0,0.0,0.0,0.0,0.0,0.0,0.0,0.0,0.0,0.0,0.0,0.0,0.0,-0.6971,-0.9097,-0.9051,-0.8877,-0.8874,-0.7715,-0.6634,-0.577,0.0,0.0,0.0,0.0,0.0,0.0,0.0,0.0,0.0,0.0,0.0,0.0,0.0,0.0,0.0,0.0,0.0,0.0,0.0,0.0,0.0,0.0,0.0,0.0,0.0,0.0,0.0,0.0,0.0,0.0,0.0,0.0,0.0,0.0,0.0,0.0,0.0,0.0,0.0,0.0,0.0,0.0,0.0,0.0,0.0,0.0,0.0,0.0,0.0,0.0,0.0,0.0,0.0,0.0,0.0,0.0,0.0,0.0,0.0,0.0,0.0,0.0,0.0,0.0,0.0,0.0,0.0,0.0,0.0,0.0,0.0,0.0,0.0,0.0,0.0,0.0,0.0,0.0,0.0,0.0,0.0,0.0,0.0,0.0,0.0,0.0,0.0,0.0,0.0,0.0,0.0,0.0,0.0,0.0,0.0,0.0,0.0,0.0,0.0,0.0,0.0,0.0,0.0,-0.6248,-0.7536,-0.931,-0.8905,-0.85,-0.85,-0.7329,-0.631,-0.5648,-0.5267,0.0,0.0,0.0,0.0,0.0,0.0,0.0,0.0,0.0,0.0,0.0,0.0,0.0,0.0,0.0,0.0,0.0,0.0,0.0,0.0,0.0,0.0,0.0,0.0,0.0,0.0,0.0,0.0,0.0,0.0,0.0,0.0,0.0,0.0,0.0,0.0,0.0,0.0,0.0,0.0,0.0,0.0,0.0,0.0,0.0,0.0,0.0,0.0,0.0,0.0,0.0,0.0,0.0,0.0,0.0,0.0,0.0,0.0,0.0,0.0,0.0,0.0,0.0,0.0,0.0,0.0,0.0,0.0,0.0,0.0,0.0,0.0,0.0,0.0,0.0,0.0,0.0,0.0,0.0,0.0,0.0,0.0,0.0,0.0,0.0,0.0,0.0,0.0,0.0,0.0,0.0,0.0,0.0,0.0,0.0,0.0,0.0,0.0,0.0,0.0,0.0,0.0,-0.7085,-0.7683,-0.881,-0.8528,-0.8221,-0.8138,-0.7145,-0.6263,-0.5603,-0.4695,0.0,0.0,0.0,0.0,0.0,0.0,0.0,0.0,0.0,0.0,0.0,0.0,0.0,0.0,0.0,0.0,0.0,0.0,0.0,0.0,0.0,0.0,0.0,0.0,0.0,0.0,0.0,0.0,0.0,0.0,0.0,0.0,0.0,0.0,0.0,0.0,0.0,0.0,0.0,0.0,0.0,0.0,0.0,0.0,0.0,0.0,0.0,0.0,0.0,0.0,0.0,0.0,0.0,0.0,0.0,0.0,0.0,0.0,0.0,0.0,0.0,0.0,0.0,0.0,0.0,0.0,0.0,0.0,0.0,0.0,0.0,0.0,0.0,0.0,0.0,0.0,0.0,0.0,0.0,0.0,0.0,0.0,0.0,0.0,0.0,0.0,0.0,0.0,0.0,0.0,0.0,0.0,0.0,0.0,0.0,0.0,0.0,0.0,0.0,0.0,0.0,0.0,-0.6384,-0.6948,-0.7228,-0.7445,-0.7424,-0.7039,-0.643,-0.5863,-0.5436,-0.4416,0.0,0.0,0.0,0.0,0.0,0.0,0.0,0.0,0.0,0.0,0.0,0.0,0.0,0.0,0.0,0.0,0.0,0.0,0.0,0.0,0.0,0.0,0.0,0.0,0.0,0.0,0.0,0.0,0.0,0.0,0.0,0.0,0.0,0.0,0.0,0.0,0.0,0.0,0.0,0.0,0.0,0.0,0.0,0.0,0.0,0.0,0.0,0.0,0.0,0.0,0.0,0.0,0.0,0.0,0.0,0.0,0.0,0.0,0.0,0.0,0.0,0.0,0.0,0.0,0.0,0.0,0.0,0.0,0.0,0.0,0.0,0.0,0.0,0.0,0.0,0.0,0.0,0.0,0.0,0.0,0.0,0.0,0.0,0.0,0.0,0.0,0.0,0.0,0.0,0.0,0.0,0.0,0.0,0.0,0.0,0.0,0.0,0.0,0.0,0.0,0.0,0.0,-0.6383,-0.691,0.0,-0.768,-0.7592,-0.7175,-0.6748,-0.6186,-0.5449,0.0,0.0,0.0,0.0,0.0,0.0,0.0,0.0,0.0,0.0,0.0,0.0,0.0,0.0,0.0,0.0,0.0,0.0,0.0,0.0,0.0,0.0,0.0,0.0,0.0,0.0,0.0,0.0,0.0,0.0,0.0,0.0,0.0,0.0,0.0,0.0,0.0,0.0,0.0,0.0,0.0,0.0,0.0,0.0,0.0,0.0,0.0,0.0,0.0,0.0,0.0,0.0,0.0,0.0,0.0,0.0,0.0,0.0,0.0,0.0,0.0,0.0,0.0,0.0,0.0,0.0,0.0,0.0,0.0,0.0,0.0,0.0,0.0,0.0,0.0,0.0,0.0,0.0,0.0,0.0,0.0,0.0,0.0,0.0,0.0,0.0,0.0,0.0,0.0,0.0,0.0,0.0,0.0,0.0,0.0,0.0,0.0,0.0,0.0,0.0,0.0,0.0,-0.6091,-0.6665,-0.7197,0.0,-0.7966,-0.781,-0.736,-0.6933,-0.6301,-0.5394,0.0,0.0,0.0,0.0,0.0,0.0,0.0,0.0,0.0,0.0,0.0,0.0,0.0,0.0,0.0,0.0,0.0,0.0,0.0,0.0,0.0,0.0,0.0,0.0,0.0,0.0,0.0,0.0,0.0,0.0,0.0,0.0,0.0,0.0,0.0,0.0,0.0,0.0,0.0,0.0,0.0,0.0,0.0,0.0,0.0,0.0,0.0,0.0,0.0,0.0,0.0,0.0,0.0,0.0,0.0,0.0,0.0,0.0,0.0,0.0,0.0,0.0,0.0,0.0,0.0,0.0,0.0,0.0,0.0,0.0,0.0,0.0,0.0,0.0,0.0,0.0,0.0,0.0,0.0,0.0,0.0,0.0,0.0,0.0,0.0,0.0,0.0,0.0,0.0,0.0,0.0,0.0,0.0,0.0,0.0,0.0,0.0,0.0,0.0,0.0,0.0,0.0,-0.6271,-0.7169,-0.7764,-0.7884,-0.8091,-0.7974,-0.7456,-0.6798,-0.6063,0.0,0.0,0.0,0.0,0.0,0.0,0.0,0.0,0.0,0.0,0.0,0.0,0.0,0.0,0.0,0.0,0.0,0.0,0.0,0.0,0.0,0.0,0.0,0.0,0.0,0.0,0.0,0.0,0.0,0.0,0.0,0.0,0.0,0.0,0.0,0.0,0.0,0.0,0.0,0.0,0.0,0.0,0.0,0.0,0.0,0.0,0.0,0.0,0.0,0.0,0.0,0.0,0.0,0.0,0.0,0.0,0.0,0.0,0.0,0.0,0.0,0.0,0.0,0.0,0.0,0.0,0.0,0.0,0.0,0.0,0.0,0.0,0.0,0.0,0.0,0.0,0.0,0.0,0.0,0.0,0.0,0.0,0.0,0.0,0.0,0.0,0.0,0.0,0.0,0.0,0.0,0.0,0.0,0.0,0.0,0.0,0.0,0.0,0.0,0.0,0.0,0.0,0.0,-0.6464,-0.7247,-0.789,-0.8352,-0.845,-0.8241,-0.7663,-0.7203,-0.6511,-0.541,0.0,0.0,0.0,0.0,0.0,0.0,0.0,0.0,0.0,0.0,0.0,0.0,0.0,0.0,0.0,0.0,0.0,0.0,0.0,0.0,0.0,0.0,0.0,0.0,0.0,0.0,0.0,0.0,0.0,0.0,0.0,0.0,0.0,0.0,0.0,0.0,0.0,0.0,0.0,0.0,0.0,0.0,0.0,0.0,0.0,0.0,0.0,0.0,0.0,0.0,0.0,0.0,0.0,0.0,0.0,0.0,0.0,0.0,0.0,0.0,0.0,0.0,0.0,0.0,0.0,0.0,0.0,0.0,0.0,0.0,0.0,0.0,0.0,0.0,0.0,0.0,0.0,0.0,0.0,0.0,0.0,0.0,0.0,0.0,0.0,0.0,0.0,0.0,0.0,0.0,0.0,0.0,0.0,0.0,0.0,0.0,0.0,0.0,0.0,0.0,0.0,0.0,-0.6664,-0.7402,-0.8015,-0.8549,-0.859,-0.84,-0.7862,-0.7513,-0.684,-0.5716,0.0,0.0,0.0,0.0,0.0,0.0,0.0,0.0,0.0,0.0,0.0,0.0,0.0,0.0,0.0,0.0,0.0,0.0,0.0,0.0,0.0,0.0,0.0,0.0,0.0,0.0,0.0,0.0,0.0,0.0,0.0,0.0,0.0,0.0,0.0,0.0,0.0,0.0,0.0,0.0,0.0,0.0,0.0,0.0,0.0,0.0,0.0,0.0,0.0,0.0,0.0,0.0,0.0,0.0,0.0,0.0,0.0,0.0,0.0,0.0,0.0,0.0,0.0,0.0,0.0,0.0,0.0,0.0,0.0,0.0,0.0,0.0,0.0,0.0,0.0,0.0,0.0,0.0,0.0,0.0,0.0,0.0,0.0,0.0,0.0,0.0,0.0,0.0,0.0,0.0,0.0,0.0,0.0,0.0,0.0,0.0,0.0,0.0,0.0,0.0,0.0,0.0,-0.6849,-0.7597,-0.8154,-0.8549,-0.859,-0.8444,-0.8065,-0.7715,-0.7121,-0.6133,0.0,0.0,0.0,0.0,0.0,0.0,0.0,0.0,0.0,0.0,0.0,0.0,0.0,0.0,0.0,0.0,0.0,0.0,0.0,0.0,0.0,0.0,0.0,0.0,0.0,0.0,0.0,0.0,0.0,0.0,0.0,0.0,0.0,0.0,0.0,0.0,0.0,0.0,0.0,0.0,0.0,0.0,0.0,0.0,0.0,0.0,0.0,0.0,0.0,0.0,0.0,0.0,0.0,0.0,0.0,0.0,0.0,0.0,0.0,0.0,-0.0634,-0.0476,0.0,0.0,0.0,0.0,0.0,0.0,0.0,0.0,0.0,0.0,0.0,0.0,0.0,0.0,0.0,0.0,0.0,0.0,0.0,0.0,0.0,0.0,0.0,0.0,0.0,0.0,0.0,0.0,0.0,0.0,0.0,0.0,0.0,0.0,0.0,0.0,0.0,0.0,0.0,0.0,-0.6865,-0.7597,-0.8154,-0.8549,-0.859,-0.8501,-0.8251,-0.7923,-0.7401,-0.6593,-0.5593,0.0,0.0,0.0,0.0,0.0,0.0,0.0,0.0,0.0,0.0,0.0,0.0,0.0,0.0,0.0,0.0,0.0,0.0,0.0,0.0,0.0,0.0,0.0,0.0,0.0,0.0,0.0,0.0,0.0,0.0,0.0,0.0,0.0,0.0,0.0,0.0,0.0,0.0,0.0,0.0,0.0,0.0,0.0,0.0,0.0,0.0,0.0,0.0,0.0,0.0,0.0,0.0,0.0,0.0,0.0,0.0,0.0,0.0,0.0,-0.0862,-0.077,0.0,0.0,0.0,0.0,0.0,0.0,0.0,0.0,0.0,0.0,0.0,0.0,0.0,0.0,0.0,0.0,0.0,0.0,0.0,0.0,0.0,0.0,0.0,0.0,0.0,0.0,0.0,0.0,0.0,0.0,0.0,0.0,0.0,0.0,0.0,0.0,0.0,0.0,0.0,0.0,-0.6898,-0.767,-0.8251,-0.8558,-0.859,-0.8517,-0.833,-0.7988,-0.7548,-0.6985,-0.6204,0.0,0.0,0.0,0.0,0.0,0.0,0.0,0.0,0.0,0.0,0.0,0.0,0.0,0.0,0.0,0.0,0.0,0.0,0.0,0.0,0.0,0.0,0.0,0.0,0.0,0.0,0.0,0.0,0.0,0.0,0.0,0.0,0.0,0.0,0.0,0.0,0.0,0.0,0.0,0.0,0.0,0.0,0.0,0.0,0.0,0.0,0.0,0.0,0.0,0.0,0.0,0.0,0.0,-0.145,-0.1363,-0.1367,-0.1525,-0.1551,-0.1429,-0.133,-0.1284,-0.129,-0.1053,0.0,0.0,0.0,0.0,0.0,0.0,0.0,0.0,0.0,0.0,0.0,0.0,0.0,0.0,0.0,0.0,0.0,0.0,0.0,0.0,0.0,0.0,-0.2854,-0.2969,-0.3109,-0.3099,-0.2664,0.0,0.0,0.0,0.0,0.0,0.0,0.0,0.0,0.0,0.0,0.0,-0.7218,-0.8031,-0.8623,-0.8829,-0.8845,-0.8787,-0.8606,-0.8308,-0.7933,-0.7496,-0.703,-0.6253,0.0,0.0,0.0,0.0,0.0,0.0,0.0,0.0,0.0,0.0,0.0,0.0,0.0,0.0,0.0,0.0,0.0,0.0,0.0,0.0,0.0,0.0,0.0,0.0,0.0,0.0,0.0,0.0,0.0,0.0,0.0,0.0,-0.0558,-0.0578,0.0,0.0,0.0,0.0,0.0,0.0,0.0,0.0,0.0,0.0,0.0,0.0,0.0,-0.3835,-0.4036,-0.3388,-0.3087,-0.3119,-0.3151,-0.2893,-0.241,-0.2959,-0.2914,-0.245,-0.2935,0.0,-0.1418,-0.177,0.0,0.0,0.0,0.0,0.0,0.0,0.0,0.0,0.0,0.0,0.0,0.0,0.0,0.0,0.0,0.0,0.0,0.0,0.0,0.0,0.0,0.0,-0.4159,-0.4167,-0.4162,-0.4106,-0.4033,-0.3806,-0.3656,-0.3851,-0.4089,-0.4146,0.0,0.0,0.0,0.0,0.0,0.0,-0.8431,-0.9122,-0.9596,-0.9802,-0.982,-0.9811,-0.9783,-0.9578,-0.9179,-0.8544,-0.8335,-0.7592,-0.6164,-0.5895,0.0,0.0,0.0,0.0,0.0,0.0,0.0,0.0,0.0,0.0,0.0,0.0,0.0,0.0,0.0,0.0,0.0,0.0,0.0,0.0,0.0,0.0,0.0,0.0,0.0,0.0,0.0,0.0,0.0,-0.0585,-0.0663,-0.086,-0.0809,-0.081,0.0,0.0,0.0,0.0,0.0,0.0,0.0,0.0,0.0,-0.3773,-0.3808,-0.4142,-0.4835,-0.4556,-0.4438,-0.4454,-0.4501,-0.4101,-0.3326,-0.3608,-0.3533,-0.3226,-0.3496,-0.3226,-0.2598,-0.2671,-0.2551,-0.2274,0.0,0.0,0.0,0.0,-0.2604,-0.2826,-0.3233,-0.3348,-0.3322,-0.3406,0.0,0.0,0.0,0.0,0.0,0.0,0.0,-0.3702,-0.3817,-0.4232,-0.4648,-0.4774,-0.4927,-0.5175,-0.5748,-0.6006,-0.5864,-0.5088,-0.529,-0.5457,-0.5086,-0.5895,0.0,0.0,0.0,-0.8402,-0.8904,-0.9493,-0.99,-0.9985,-0.9994,-0.9994,-0.9994,-0.9814,-0.9569,-0.9287,-0.9098,-0.8472,-0.73,-0.7136,-0.64,0.0,0.0,0.0,0.0,0.0,0.0,0.0,0.0,0.0,0.0,0.0,0.0,0.0,0.0,0.0,0.0,0.0,0.0,0.0,0.0,0.0,0.0,0.0,0.0,0.0,0.0,0.0,0.0,-0.0766,-0.0881,-0.1118,-0.1206,-0.126,0.0,0.0,0.0,0.0,0.0,0.0,-0.3319,-0.3596,-0.3894,-0.4264,-0.4302,-0.4724,-0.5586,-0.5398,-0.5325,-0.5389,-0.5389,-0.4933,-0.4144,-0.4526,-0.4584,-0.4361,-0.4505,-0.4494,-0.434,-0.3714,-0.334,-0.3175,-0.3191,-0.3188,-0.316,-0.3262,-0.3318,-0.3444,-0.395,-0.4089,-0.4043,-0.4112,-0.3998,-0.3771,-0.3342,0.0,0.0,0.0,0.0,-0.4236,-0.4462,-0.4766,-0.5047,-0.5192,-0.5406,-0.5812,-0.6557,-0.7021,-0.7155,-0.6592,-0.6962,-0.722,-0.6738,-0.7721,0.0,-0.7461,-0.8568,-0.9546,-0.9745,-1.0169,-1.0421,-1.0421,-1.0382,-1.0321,-1.0321,-1.0205,-1.0074,-0.9937,-0.9859,-0.9363,-0.8379,-0.811,-0.7388,-0.6106,0.0,0.0,0.0,0.0,0.0,0.0,0.0,0.0,0.0,0.0,0.0,0.0,0.0,0.0,0.0,0.0,0.0,0.0,0.0,0.0,0.0,0.0,0.0,0.0,0.0,0.0,0.0,0.0,0.0,-0.1288,-0.1785,0.0,0.0,0.0,0.0,-0.2956,-0.3143,-0.3551,-0.4189,-0.5012,-0.5826,-0.6614,-0.6582,-0.6646,-0.6899,-0.6035,-0.5572,-0.5576,-0.5576,-0.5288,-0.4796,-0.6287,-0.6633,-0.6102,-0.6681,-0.6873,-0.6681,-0.4888,-0.3853,-0.3424,-0.387,-0.396,-0.3877,-0.4009,-0.4279,-0.4635,-0.4711,-0.4712,-0.4675,-0.4732,-0.4522,-0.4277,-0.4305,-0.4152,0.0,0.0,-0.479,-0.5029,-0.5355,-0.5487,-0.5567,-0.5577,-0.5582,-0.5611,-0.5652,-0.5697,-0.6399,-0.8663,-0.9434,-0.9514,-0.8858,0.0,-0.9281,-0.9347,-1.0018,-1.0773,-1.1476,-1.1594,-1.1616,-1.1616,-1.139,-1.1219,-1.1219,-1.123,-1.1025,-1.0582,-1.0773,-1.0419,-0.9279,-0.8571,-0.7584,-0.6307,-0.4974,0.0,0.0,0.0,0.0,0.0,0.0,0.0,0.0,0.0,0.0,0.0,0.0,0.0,0.0,0.0,0.0,0.0,0.0,0.0,0.0,0.0,0.0,0.0,0.0,0.0,0.0,0.0,0.0,-0.2012,-0.2579,0.0,-0.2869,-0.3408,-0.3786,-0.3837,-0.4257,-0.468,-0.5041,-0.5356,-0.5998,-0.6975,-0.7027,-0.7672,-0.9039,-0.8116,-0.7646,-0.7646,-0.7045,-0.6327,-0.552,-0.609,-0.6176,-0.5971,-0.6179,-0.621,-0.6049,-0.5374,-0.5252,-0.5479,-0.5538,-0.5555,-0.5528,-0.5565,-0.5321,-0.4969,-0.4972,-0.4964,-0.4961,-0.4932,-0.4798,-0.4651,-0.4853,-0.4842,-0.4849,-0.5178,-0.5324,-0.5409,-0.5525,-0.5712,-0.6037,-0.6736,-0.703,-0.7521,-0.8901,-0.9197,-0.9681,-1.1253,-1.0264,-0.9148,-0.8996,-1.0164,-1.0897,-1.0304,-1.0993,-1.1658,-1.192,-1.1964,-1.1964,-1.1964,-1.1715,-1.1553,-1.1553,-1.1391,-1.1177,-1.0879,-1.0942,-1.0687,-0.9966,-0.9693,-0.9119,-0.8186,-0.663,-0.5624,0.0,0.0,0.0,0.0,0.0,0.0,0.0,0.0,0.0,0.0,0.0,0.0,0.0,0.0,0.0,0.0,0.0,0.0,0.0,0.0,0.0,0.0,0.0,0.0,0.0,-0.2014,-0.2451,-0.2733,-0.3332,-0.3738,-0.3701,-0.4274,-0.4669,-0.4694,-0.5103,-0.5556,-0.6054,-0.5772,-0.6107,-0.7183,-0.69,-0.7572,-0.9247,-0.8642,-0.8501,-0.8806,-0.8166,-0.7525,-0.6893,-0.723,-0.7372,-0.7326,-0.7326,-0.7264,-0.7127,-0.6774,-0.7059,-0.7609,-0.6533,-0.6108,-0.6103,-0.607,-0.5661,-0.5122,-0.512,-0.5108,-0.5092,-0.5132,-0.5086,-0.5052,-0.5274,-0.534,-0.5391,-0.5661,-0.5987,-0.6207,-0.5937,-0.6262,-0.6761,-0.7104,-0.7329,-0.7943,-0.9747,-1.0116,-1.0435,-1.1507,-1.0872,-1.0177,-1.0276,-1.1425,-1.2101,-1.1428,-1.1915,-1.2332,-1.2332,-1.2267,-1.219,-1.219,-1.1887,-1.1704,-1.1704,-1.1391,-1.1133,-1.1014,-1.0907,-1.0659,-1.0186,-0.9893,-0.9449,-0.8813,-0.7394,-0.6606,-0.6463,0.0,0.0,0.0,0.0,0.0,0.0,0.0,0.0,0.0,0.0,0.0,0.0,0.0,0.0,0.0,0.0,0.0,0.0,0.0,0.0,0.0,0.0,0.0,-0.2296,-0.2394,-0.274,-0.3447,-0.408,-0.4456,-0.4516,-0.5139,-0.5516,-0.5516,-0.5573,-0.6076,-0.71,-0.63,-0.6315,-0.7378,-0.6504,-0.6473,-0.7505,-0.7505,-0.7933,-0.8818,-0.8787,-0.8757,-0.8751,-0.9731,-1.0156,-1.0149,-1.0149,-1.0125,-0.9984,-0.9027,-0.9062,-0.9505,-0.669,-0.5594,-0.5581,-0.547,-0.5356,-0.5207,-0.5149,-0.5116,-0.5153,-0.5352,-0.5421,-0.5454,-0.5578,-0.5616,-0.5666,-0.5947,-0.6767,-0.7385,-0.6612,-0.7179,-0.7702,-0.6686,-0.6462,-0.6736,-0.7826,-0.8049,-0.8372,-0.9435,-1.1326,-1.2759,-1.2759,-1.2783,-1.2807,-1.2807,-1.2807,0.0,-1.2807,-1.2565,-1.2402,-1.2402,-1.1982,-1.167,-1.1715,-1.1252,-1.0962,-1.0993,-1.0736,-1.0372,-0.9892,-0.9113,-0.8477,-0.7992,-0.7136,-0.6676,-0.6643,0.0,0.0,0.0,0.0,0.0,0.0,0.0,0.0,0.0,0.0,0.0,0.0,0.0,0.0,0.0,0.0,0.0,0.0,0.0,0.0,0.0,-0.2581,-0.2925,-0.2446,-0.3277,-0.401,-0.4263,-0.4873,-0.5263,-0.5296,-0.5564,-0.5708,-0.5708,-0.5821,-0.6015,-0.6319,-0.616,-0.6521,-0.7523,-0.8033,-0.8789,-0.9789,-0.9852,-0.9601,-0.9073,-0.8411,-0.7613,-0.679,-0.707,-0.715,-0.7108,-0.7108,-0.7088,-0.7063,-0.679,-0.6953,-0.7386,-0.754,-0.7577,-0.7437,-0.6696,-0.5948,-0.5368,-0.556,-0.5586,-0.5575,-0.5822,-0.5873,-0.5882,-0.6109,-0.6122,-0.6088,-0.6369,-0.6583,-0.6686,-0.6462,-0.6612,-0.6955,-0.7453,-0.7552,-0.7851,-0.8941,-0.9164,-0.9484,-1.0558,-1.1253,-1.1643,-1.1643,-1.2287,-1.2807,-1.2807,-1.2807,-1.2807,-1.2807,-1.2729,-1.2686,-1.2686,-1.1698,-1.1291,-1.1939,-1.0852,-1.0307,-1.0695,-1.0489,-1.0031,-0.9213,-0.8969,-0.847,-0.7664,-0.8395,-0.8339,0.0,0.0,0.0,0.0,0.0,0.0,0.0,0.0,0.0,0.0,0.0,0.0,0.0,0.0,0.0,0.0,0.0,0.0,0.0,0.0,0.0,0.0,-0.3491,-0.3765,-0.3414,-0.4081,-0.4725,-0.5069,-0.5463,-0.5687,-0.5723,-0.5813,-0.5896,-0.5896,-0.5995,-0.6263,-0.6643,-0.6377,-0.6626,-0.7586,-0.781,-0.8417,-0.9398,-0.9621,-0.9596,-0.9373,-0.8991,-0.8441,-0.7775,-0.8374,-0.8611,-0.8598,-0.9094,-0.9284,-0.9277,-0.919,-0.8958,-0.8575,0.0,0.0,0.0,0.0,-0.6129,-0.5684,-0.5921,-0.5982,-0.5978,-0.6208,-0.6231,-0.6253,-0.6494,-0.6516,-0.649,-0.6646,-0.6953,-0.712,-0.6691,-0.6856,-0.7189,-0.7365,-0.7372,-0.7627,-0.8694,-0.8941,-0.9378,-1.0901,-1.1194,0.0,-1.179,-1.2395,-1.2807,-1.2807,-1.2807,-1.2807,-1.2807,-1.2807,-1.2807,-1.2807,-1.1994,-1.168,-1.2187,-1.1115,0.0,0.0,0.0,-1.0133,-0.9517,-0.9498,0.0,0.0,0.0,0.0,0.0,-1.0149,0.0,0.0,-0.9454,-0.9601,0.0,0.0,0.0,0.0,0.0,0.0,0.0,0.0,0.0,0.0,0.0,0.0,0.0,0.0,0.0,0.0,-0.4418,-0.4729,-0.4811,-0.4829,-0.5086,-0.5731,-0.582,-0.5831,-0.5894,-0.5975,-0.5996,-0.6036,-0.6149,-0.658,-0.7414,-0.6689,0.0,0.0,0.0,-0.6887,-0.775,-0.8231,-0.884,-0.9544,-0.9895,-1.0017,-0.9933,-1.1173,-1.1735,-1.1799,-1.2986,-1.3493,-1.3484,-1.3462,-1.2768,-1.1337,-0.7556,-0.6197,-0.6325,-0.6141,-0.6064,-0.607,-0.6294,0.0,0.0,-0.6543,-0.6589,-0.6623,-0.6792,-0.6834,-0.6823,-0.6823,-0.7498,-0.8006,-0.7038,-0.7423,-0.7789,-0.6844,-0.652,-0.6678,-0.7628,-0.7832,-0.8414,-1.046,-1.095,-1.1326,-1.2287,-1.2638,-1.2807,-1.2807,-1.2807,-1.2759,-1.2638,-1.2735,-1.271,-1.2467,-1.2241,0.0,-1.2202,-1.1486,-1.1109,-1.1327,-1.0868,-1.0497,-1.0296,-1.0317,-1.0412,-1.0561,-1.092,-1.1316,-1.1704,-1.1758,-1.1909,-1.2105,-1.0789,-1.0639,0.0,0.0,0.0,0.0,0.0,0.0,0.0,0.0,0.0,0.0,0.0,0.0,0.0,0.0,0.0,-0.4311,-0.4968,-0.5447,-0.5568,-0.564,-0.5702,-0.5786,-0.5847,-0.5894,-0.5987,-0.598,-0.6052,-0.6149,-0.6239,-0.6357,-0.6549,-0.6494,-0.6664,-0.7095,-0.7791,-0.8354,-0.8811,-0.974,-0.9872,-0.9207,-0.9273,0.0,-0.7955,-0.821,-0.8318,-0.8353,-0.9716,-1.0303,-1.036,-1.1486,-1.1643,-1.0996,-0.8666,-0.7304,-0.6697,-0.6539,-0.6411,-0.6365,-0.6687,-0.6707,-0.6682,-0.6961,-0.7066,-0.7061,-0.7122,-0.7051,0.0,-0.6948,-0.7037,-0.7065,-0.6854,-0.6943,-0.7025,-0.6821,-0.6645,-0.6609,-0.6839,-0.6779,-0.708,-0.8365,-0.9329,-0.9977,-1.0174,-1.1653,-1.2807,-1.2807,-1.2807,-1.2492,-1.1619,-1.2262,-1.2151,-1.0395,-1.0164,-1.0393,-1.1053,-1.0045,-1.0003,-1.1528,-1.0828,-1.0341,-1.0302,-1.0457,-1.0486,-1.036,-1.1358,-1.1835,-1.1704,-1.2091,-1.2296,-1.2339,-1.2059,-1.2004,0.0,0.0,0.0,0.0,0.0,0.0,0.0,0.0,0.0,0.0,0.0,-0.2792,-0.3131,0.0,-0.4724,-0.5097,-0.5449,-0.5761,-0.587,-0.5926,-0.5922,-0.5859,-0.5898,-0.5971,-0.5988,-0.6101,-0.617,-0.6247,-0.6333,-0.6485,-0.6647,-0.6727,-0.692,-0.7254,-0.7755,-0.8123,-0.8289,-0.9023,-0.9123,-0.859,-0.8784,-0.8557,-0.804,-0.8728,-0.9017,-0.9116,-1.113,-1.1995,-1.2019,-1.1917,-1.1783,-1.1371,-0.9044,-0.8405,-0.8714,-0.8083,-0.782,-0.77,-0.7332,-0.7122,-0.7022,-0.7191,-0.7231,-0.721,-0.721,-0.7144,-0.7095,-0.7095,-0.7051,-0.7007,-0.7007,-0.6964,-0.6893,-0.6893,-0.6801,-0.6709,-0.6709,-0.659,-0.6827,-0.7888,-0.8919,-0.9608,-0.9608,-1.0935,-1.1995,-1.1995,-1.2457,-1.2408,-1.1341,-1.2141,-1.2165,-1.0558,-1.0886,-1.1361,-1.1761,-1.11,-1.1003,-1.1842,-1.1458,-1.1209,-1.1209,-1.14,-1.1448,-1.1359,-1.2075,-1.2373,-1.2255,-1.2492,-1.2587,-1.2587,-1.2705,-1.2705,0.0,0.0,0.0,0.0,0.0,0.0,0.0,0.0,-0.1245,-0.2493,-0.3386,-0.4046,-0.4256,-0.4935,-0.5565,-0.5769,-0.5823,-0.5892,-0.6024,-0.6001,-0.5995,-0.5922,-0.5991,-0.6052,-0.6073,-0.6203,-0.6325,-0.644,-0.6544,-0.6753,-0.7087,-0.7087,-0.7254,-0.7593,-0.7627,-0.766,-0.7727,-0.8023,-0.8189,-0.8189,-0.8456,-0.859,-0.8651,-0.9775,-1.0273,-1.0432,-1.2824,-1.3992,-1.4166,-1.2838,-1.2271,-1.1954,-0.9717,-0.9735,-1.0846,-0.9403,-0.8861,-0.8711,-0.7849,-0.7446,-0.7343,-0.7343,-0.729,-0.7215,-0.7215,-0.7198,-0.721,-0.721,-0.721,-0.721,-0.721,-0.7117,-0.7046,-0.7046,-0.6926,-0.6839,-0.6839,-0.6741,-0.6875,-0.7718,-0.8682,-0.9252,-0.9015,-1.0092,-1.095,-1.0901,-1.1619,-1.18,-1.0779,-1.1765,-1.2092,-1.0877,-1.1887,-1.2638,-1.2638,-1.2635,-1.2534,-1.2385,-1.2374,-1.2374,-1.2374,-1.2523,-1.2598,-1.2598,-1.2841,-1.2929,-1.2929,-1.2983,-1.3005,-1.303,-1.3245,-1.3149,0.1707,0.1717,0.1451,0.0295,0.0021,-0.0547,0.0,0.0,-0.371,-0.4797,-0.5155,-0.529,-0.5325,-0.556,-0.5774,-0.5884,-0.5939,-0.6024,-0.6153,-0.6069,-0.5988,-0.5976,-0.6112,-0.6198,-0.6247,-0.6272,-0.6481,-0.6894,-0.6944,-0.7087,-0.7426,-0.7459,-0.7627,-0.8023,-0.8023,-0.8189,-0.849,-0.8523,-0.8556,-0.8556,-0.859,-0.859,-0.8623,-0.8751,-0.8817,-0.8917,-1.0452,-1.1856,-1.298,-1.2548,-1.2363,-1.2314,-1.1721,-1.1595,-1.1456,-0.8958,-0.7966,-0.7847,-0.7717,-0.76,-0.7468,-0.7468,-0.7387,-0.7284,-0.7284,-0.7241,-0.721,-0.721,-0.721,-0.721,-0.721,-0.7199,-0.7193,-0.7193,-0.7078,-0.6991,-0.6991,-0.6866,-0.6773,-0.6767,-0.7629,-0.8003,-0.6954,-0.8637,-1.0051,-0.9805,-0.9879,-0.9657,-0.8825,-1.0493,-1.1048,-0.9247,-1.0867,-1.2082,-1.2082,-1.2872,-1.3368,-1.3334,-1.3334,-1.3334,-1.3334,-1.3368,-1.3379,-1.3379,-1.3401,-1.3413,-1.3413,-1.3664,-1.3766,-1.3777,-1.404,-1.3777,0.1069,0.0736,0.0318,0.0,-0.123,-0.1506,-0.2455,-0.3293,-0.3975,-0.4374,-0.5112,-0.5684,-0.5737,-0.581,-0.5888,0.0,-0.5995,-0.6052,-0.617,-0.6149,-0.6077,-0.5996,-0.6129,-0.6194,-0.6235,-0.6484,-0.6753,-0.6978,-0.7187,-0.7455,-0.7827,-0.7861,-0.8023,-0.839,-0.839,-0.8456,-0.859,-0.859,-0.859,-0.859,-0.859,-0.859,-0.859,-0.859,-0.905,-0.9842,-1.0439,-1.149,-1.2726,-1.1778,-1.1362,-1.1203,-1.0248,-0.9778,-0.9647,-0.916,-0.8987,-0.8817,-0.8068,-0.7725,-0.7627,-0.7627,-0.7511,-0.7397,-0.7327,-0.7273,-0.7247,-0.7204,-0.721,-0.721,-0.721,-0.721,-0.721,-0.721,-0.7144,-0.7111,-0.7111,-0.7018,-0.6893,-0.6839,-0.7765,-0.8182,-0.7067,-0.8385,-0.9325,-0.8502,-0.9333,-0.9936,-0.9608,-1.0886,-1.1765,-1.156,-1.2349,-1.2869,-1.2869,-1.3268,-1.3497,-1.3497,-1.3497,-1.3497,-1.3497,-1.3497,-1.3497,-1.3497,-1.3497,-1.3589,-1.3726,-1.3865,-1.3979,-1.4127,-1.4416,-1.4355,-0.0048,-0.0196,0.0,-0.2082,-0.2232,-0.2146,-0.288,-0.3747,-0.4425,-0.44,-0.515,-0.5831,-0.5872,-0.59,-0.591,-0.5975,-0.6024,-0.6077,-0.6174,-0.6161,-0.6121,-0.5996,-0.6063,-0.6151,-0.6268,-0.664,-0.6951,-0.7111,-0.7455,-0.7827,-0.8223,-0.8223,-0.8356,-0.859,-0.859,-0.859,-0.859,-0.859,-0.859,-0.859,-0.859,-0.859,-0.859,-0.859,-0.915,-1.0107,-1.0107,-1.0697,-1.1549,-1.0531,-1.005,-0.9882,-0.8819,-0.8312,-0.8259,-0.9051,-0.9294,-0.914,-0.8233,-0.7848,-0.7747,-0.7747,-0.7665,-0.7522,-0.7435,-0.7359,-0.7289,-0.723,-0.7209,-0.721,-0.721,-0.721,-0.721,-0.721,-0.721,-0.721,-0.721,-0.7172,-0.716,-0.7127,-0.7894,-0.8289,-0.7487,-0.8243,-0.8673,-0.7801,-0.894,-0.9829,-0.9649,-1.0886,-1.2165,-1.3171,-1.3534,-1.3727,-1.3727,-1.3727,-1.3727,-1.3727,-1.3727,-1.3727,-1.3727,-1.3727,-1.3761,-1.3842,-1.3842,-1.3958,-1.4238,-1.4308,-1.4435,-1.4647,-1.4914,-1.5042,0.0,0.0,-0.0469,-0.3239,-0.2908,-0.2574,-0.51,-0.571,-0.5768,-0.5831,-0.5882,-0.5888,-0.5802,-0.5859,-0.5886,-0.589,-0.6063,-0.621,-0.6214,-0.6077,-0.5992,-0.5992,-0.59,-0.5981,-0.6442,-0.6735,-0.7054,-0.745,-0.7861,-0.8223,-0.8556,-0.859,-0.859,-0.859,-0.859,-0.859,-0.859,-0.859,-0.859,-0.859,-0.859,-0.859,-0.859,-0.859,-0.8623,-0.8656,-0.8656,-0.8684,-0.8717,-0.8684,-0.8651,-0.8634,-0.8459,-0.8383,-0.8378,-0.8202,-0.8063,-0.7964,-0.7903,-0.7897,-0.7897,-0.7897,-0.779,-0.7698,-0.7693,-0.7495,-0.7305,-0.7305,-0.7247,-0.721,-0.721,-0.721,-0.721,-0.721,-0.721,-0.721,-0.721,-0.7404,-0.7536,-0.741,-0.7678,-0.7878,-0.7722,-0.794,-0.8118,-0.8085,-0.8341,-0.8338,-0.7754,-0.9756,-1.1609,-1.2606,-1.3655,-1.4268,-1.4268,-1.4268,-1.4268,-1.4268,-1.4268,-1.4268,-1.4268,-1.4268,-1.4401,-1.4653,-1.4653,-1.481,-1.5075,-1.5328,-1.5449,-1.5461,-1.5726,-1.5847,-0.1406,0.0,-0.1677,-0.3385,-0.4141,-0.4499,-0.4528,-0.5224,-0.5616,-0.4707,-0.5144,-0.5679,-0.5618,-0.5622,-0.5684,-0.5806,-0.5978,-0.6064,-0.6064,-0.6142,-0.6109,-0.59,-0.5974,-0.6148,-0.6399,-0.6791,-0.7231,-0.7736,-0.8113,-0.8376,-0.8584,-0.859,-0.859,-0.859,-0.859,-0.859,-0.859,-0.859,-0.859,-0.859,-0.859,-0.859,-0.859,-0.859,-0.859,-0.859,-0.859,-0.859,-0.859,-0.859,-0.859,-0.8584,-0.8546,-0.8486,-0.841,-0.8323,-0.822,-0.8089,-0.7957,-0.7903,-0.7903,-0.7903,-0.7875,-0.7832,-0.7725,-0.7644,-0.7562,-0.7452,-0.7338,-0.7274,-0.7274,-0.7242,-0.721,-0.721,-0.7326,-0.7465,-0.7465,-0.7687,-0.7842,-0.7794,-0.8057,-0.8291,-0.8247,-0.8458,-0.8588,-0.8515,-0.9094,-0.948,-0.9289,-1.0457,-1.1453,-1.18,-1.209,-1.2242,-1.2242,-1.2242,-1.2242,-1.2242,-1.3049,-1.3505,-1.3505,-1.4355,-1.4883,-1.4955,-1.498,-1.5101,-1.5366,-1.5451,-1.5584,-1.5765,-1.5849,-1.5885,-0.2155,-0.2377,-0.2851,-0.4148,-0.4817,-0.5017,-0.4698,-0.5273,-0.56,-0.4641,-0.5017,-0.5492,-0.5402,-0.5386,-0.5471,-0.5655,-0.5833,-0.5983,-0.5988,-0.6146,-0.6182,-0.5984,-0.6173,-0.6417,0.0,0.0,0.0,-0.7872,-0.8257,-0.8508,-0.8584,-0.859,-0.859,-0.859,-0.859,-0.859,-0.859,-0.859,-0.859,-0.859,-0.859,-0.859,-0.859,-0.859,-0.859,-0.859,-0.859,-0.859,-0.859,-0.859,-0.859,-0.859,-0.859,-0.8541,-0.8475,-0.8432,-0.8334,-0.8237,-0.805,-0.7968,-0.7957,-0.7913,-0.7903,-0.7886,-0.7785,-0.7736,-0.7687,-0.7606,-0.7468,-0.737,-0.737,-0.7345,-0.7313,-0.7313,-0.7505,-0.7673,-0.7673,-0.7939,-0.818,-0.818,-0.8429,-0.8657,-0.8657,-0.8795,-0.8879,-0.8777,-0.9294,-0.9629,-0.9533,-1.0347,-1.0935,-1.0935,-1.1171,-1.1337,-1.1337,-1.1337,-1.1337,-1.1337,-1.2113,-1.2748,-1.3186,-1.4033,-1.473,-1.522,-1.5246,-1.5378,-1.5644,-1.5644,-1.5728,-1.5885,-1.5885,-1.5885,-0.3736,-0.3465,-0.3812,-0.5395,-0.4896,-0.4337,-0.5598,-0.5835,-0.5745,-0.5601,-0.5471,-0.5324,-0.5195,0.0,-0.5252,-0.5459,-0.5729,-0.5918,-0.5976,-0.6133,-0.6222,0.0,0.0,0.0,0.0,0.0,0.0,-0.791,-0.8348,-0.8584,-0.859,-0.859,-0.859,-0.859,-0.859,-0.859,-0.859,-0.859,-0.859,-0.859,-0.859,-0.859,-0.859,-0.859,-0.859,-0.859,-0.859,-0.859,-0.859,-0.859,-0.859,-0.859,-0.859,-0.859,-0.8573,-0.8465,-0.8394,-0.8394,-0.8186,-0.8094,-0.8066,-0.7952,-0.7908,-0.7903,-0.7903,-0.7796,-0.7709,-0.7709,-0.7622,-0.7529,-0.7529,-0.7524,-0.7519,-0.7548,-0.7714,-0.7852,-0.7852,-0.8202,-0.8525,-0.8525,-0.8747,-0.8912,-0.8912,-0.8912,-0.8912,-0.8912,-0.8912,-0.8804,-0.854,-0.9403,-1.0022,-1.0022,-1.0889,-1.1449,-1.1449,-1.1449,-1.1449,-1.1449,-1.151,-1.2087,-1.328,-1.3393,-1.4115,-1.5485,-1.5523,-1.5644,-1.5885,-1.5885,-1.5885,-1.5885,-1.5885,-1.5885,-0.1955,-0.2281,-0.2699,-0.408,-0.4896,-0.5449,-0.5626,-0.5666,-0.5549,-0.5218,-0.5055,-0.4882,-0.4659,-0.4781,0.0,-0.5181,-0.561,0.0,-0.5976,-0.6243,0.0,-0.6226,0.0,-0.6991,-0.719,-0.7677,0.0,-0.8258,-0.8377,-0.8497,-0.8584,-0.859,-0.859,-0.859,-0.859,-0.859,-0.859,-0.859,-0.859,-0.859,-0.859,-0.859,-0.859,-0.859,-0.859,-0.859,-0.859,-0.859,-0.859,-0.859,-0.859,-0.859,-0.859,-0.859,-0.8584,-0.8557,-0.8546,-0.8524,-0.8378,-0.8241,-0.8077,-0.805,-0.7979,-0.7903,-0.7903,-0.7881,-0.7859,-0.7859,-0.7741,-0.7714,-0.7951,-0.7937,-0.7921,-0.8183,-0.845,-0.8627,-0.8627,-0.8834,-0.9012,-0.9012,-0.8952,-0.8912,-0.8912,-0.8912,-0.8912,-0.8912,-0.8912,-0.8885,-0.8804,-0.8959,-0.9049,-0.9049,-0.92,-0.9283,-0.9283,-0.9283,-0.9283,-0.9283,-1.0239,-1.1292,-1.2467,-1.3456,-1.4567,-1.5762,-1.5789,-1.5825,-1.5885,-1.5885,-1.5885,-1.5885,-1.5885,-1.5885,-0.1593,-0.2327,-0.3139,-0.4462,-0.533,-0.5798,-0.5578,-0.5439,-0.5252,-0.483,-0.4663,0.0,-0.4255,-0.4456,0.0,0.0,0.0,0.0,-0.6048,-0.6439,-0.6681,0.0,-0.7119,0.0,-0.7584,-0.8046,-0.8363,-0.8464,-0.8492,-0.8519,-0.8584,-0.859,-0.859,-0.859,-0.859,-0.859,-0.859,-0.859,-0.859,-0.859,-0.859,-0.859,-0.859,-0.859,-0.859,-0.859,-0.859,-0.859,-0.859,-0.859,-0.859,-0.859,-0.859,-0.859,-0.859,-0.859,-0.859,-0.8579,-0.8513,-0.8372,-0.8225,-0.8121,-0.8039,-0.7973,-0.7919,-0.7994,-0.8122,-0.8122,-0.8163,-0.8262,-0.8473,-0.8444,-0.845,-0.8622,-0.8845,-0.8977,-0.8977,-0.9158,-0.926,-0.9221,-0.9117,-0.9015,-0.8919,-0.8912,-0.8912,-0.8912,-0.8912,-0.8912,-0.8912,-0.8838,-0.8784,-0.8784,-0.873,-0.8682,-0.8682,-0.8682,-0.889,-0.9419,-1.0181,-1.1334,-1.3023,-1.3799,-1.4734,-1.5885,-1.5885,-1.5885,-1.5885,-1.5885,-1.5885,-1.5897,-1.6006,-1.6093,-0.1652,-0.268,-0.3968,-0.5284,-0.571,-0.5688,-0.5422,-0.5186,-0.4899,-0.4436,0.0,-0.4177,-0.3989,-0.4188,-0.4497,-0.4917,0.0,-0.5727,-0.6129,-0.6653,-0.6969,-0.6949,-0.7622,-0.8089,-0.8023,-0.839,-0.859,-0.859,-0.859,-0.859,-0.859,-0.859,-0.859,-0.859,-0.859,-0.859,-0.859,-0.859,-0.859,-0.859,-0.859,-0.859,-0.859,-0.859,-0.859,-0.859,-0.859,-0.859,-0.859,-0.859,-0.859,-0.859,-0.859,-0.859,-0.859,-0.859,-0.859,-0.859,-0.859,-0.8524,-0.8405,-0.8208,-0.8141,-0.8129,-0.8019,-0.8194,-0.8464,-0.8464,-0.8671,-0.8915,-0.8946,-0.8946,-0.8976,-0.9007,-0.9118,-0.9208,-0.9208,-0.9304,-0.9396,-0.924,-0.9241,-0.9172,-0.8994,-0.8967,-0.8967,-0.8967,-0.8967,-0.8967,-0.8967,-0.8933,-0.8912,-0.8912,-0.8912,-0.8912,-0.8912,-0.8912,-0.9348,-1.0398,-1.0453,-1.1437,-1.3646,-1.3889,-1.4493,-1.5645,-1.5868,-1.5946,-1.5946,-1.5982,-1.5994,-1.6006,-1.6235,-1.6359,-0.0061,-0.1321,-0.2639,-0.385,-0.4899,-0.5528,-0.5167,-0.4904,0.0,0.0,-0.394,-0.3846,-0.3696,-0.3981,-0.4357,-0.4765,0.0,0.0,0.0,0.0,-0.6837,0.0,0.0,0.0,-0.7627,-0.8223,0.0,-0.859,-0.859,-0.859,-0.859,-0.859,-0.859,-0.859,-0.859,-0.859,-0.859,-0.859,-0.859,-0.859,-0.859,-0.859,-0.859,-0.859,-0.859,-0.859,-0.859,-0.859,-0.859,-0.859,-0.859,-0.859,-0.859,-0.859,-0.859,-0.859,-0.859,-0.859,-0.859,-0.8573,-0.8535,-0.8399,-0.8374,-0.842,-0.8398,-0.8601,-0.8824,-0.8824,-0.8854,-0.8946,-0.9183,-0.9214,-0.9305,-0.9579,-0.965,-0.969,-0.969,-0.9613,-0.9523,-0.9396,-0.9369,-0.9362,-0.9306,-0.9306,-0.9306,-0.9306,-0.9306,-0.9306,-0.9306,-0.9061,-0.8912,-0.8912,-0.8912,-0.8912,-0.8912,-0.8912,-0.8995,-0.921,-0.921,-0.9836,-1.1246,-1.22,-1.3258,-1.4466,-1.5642,-1.6238,-1.6238,-1.6453,-1.6561,-1.6561,-1.661,-1.6622,0.0338,-0.0985,-0.23,-0.3505,-0.467,-0.5415,-0.4949,0.0,0.0,0.0,-0.3658,-0.3585,-0.3424,0.0,0.0,-0.4476,0.0,0.0,0.0,0.0,0.0,0.0,0.0,0.0,0.0,-0.839,-0.859,-0.859,-0.859,-0.859,-0.859,-0.859,-0.859,-0.859,-0.859,-0.859,-0.859,-0.859,-0.859,-0.859,-0.859,-0.859,-0.859,-0.859,-0.859,-0.859,-0.859,-0.859,-0.859,-0.859,-0.859,-0.859,-0.859,-0.859,-0.859,-0.859,-0.859,-0.859,-0.859,-0.859,-0.8579,-0.8524,-0.8481,-0.8443,-0.8309,-0.848,-0.8694,-0.8659,-0.8763,-0.8976,-0.9214,-0.9305,-0.9396,-0.9731,-0.9792,-0.9792,-0.9792,-0.9737,-0.968,-0.953,-0.9503,-0.9476,-0.9424,-0.941,-0.941,-0.941,-0.941,-0.941,-0.941,-0.9259,-0.9137,-0.9055,-0.9123,-0.9137,-0.9055,-0.9123,-0.9419,-1.0013,-1.0041,-1.0872,-1.2757,-1.3351,-1.4221,-1.5484,-1.6153,-1.6501,-1.6501,-1.6634,-1.6706,-1.6706,-1.6839,-1.6899,0.0706,-0.0555,-0.1809,-0.2738,-0.4004,-0.4921,-0.4399,-0.4266,0.0,0.0,-0.3467,-0.3409,-0.3286,0.0,-0.3952,0.0,-0.4695,0.0,0.0,0.0,0.0,0.0,0.0,0.0,-0.849,-0.8556,0.0,-0.859,-0.859,-0.859,-0.859,-0.859,-0.859,-0.859,-0.859,-0.859,-0.859,-0.859,-0.859,-0.859,-0.859,-0.859,-0.859,-0.859,-0.859,-0.859,-0.859,-0.859,-0.859,-0.859,-0.859,-0.859,-0.859,-0.859,-0.859,-0.859,-0.859,-0.859,-0.859,-0.859,-0.859,-0.859,-0.8541,-0.8481,-0.8314,-0.8489,-0.875,-0.8657,-0.8867,-0.9167,-0.9342,-0.9396,-0.9488,-0.9731,-0.9792,-0.9792,-0.9792,-0.9792,-0.9758,-0.968,-0.9652,-0.9618,-0.9496,-0.9476,-0.9476,-0.9476,-0.9476,-0.9476,-0.9476,-0.9476,-0.9444,-0.9294,-0.9356,-0.9362,-0.924,-0.9342,-0.978,-1.0676,-1.0734,-1.1725,-1.397,-1.4264,-1.5011,-1.6301,-1.6642,-1.6791,-1.6791,-1.6839,-1.6863,-1.6875,-1.708,-1.7177,0.1846,0.0833,-0.0184,-0.0237,-0.1925,-0.3496,-0.3063,0.0,0.0,-0.3577,-0.3351,-0.3278,-0.3446,-0.3554,-0.3826,0.0,0.0,-0.4981,0.0,0.0,0.0,0.0,0.0,0.0,-0.8156,-0.8423,-0.859,-0.859,-0.859,-0.859,-0.859,-0.859,-0.859,-0.859,-0.859,-0.859,-0.859,-0.859,-0.859,-0.859,-0.859,-0.859,-0.859,-0.859,-0.859,-0.859,-0.859,-0.859,-0.859,-0.859,-0.859,-0.859,-0.859,-0.859,-0.859,-0.859,-0.859,-0.859,-0.859,-0.859,-0.859,-0.859,-0.8706,-0.8867,-0.8844,-0.917,-0.9551,-0.9449,-0.9629,-0.9875,-0.9764,-0.9761,-0.9761,-0.9792,-0.9792,-0.9792,-0.9792,-0.9792,-0.9785,-0.9771,-0.9771,-0.9765,-0.9751,-0.9751,-0.9751,-0.9751,-0.9751,-0.9751,-0.9751,-0.9751,-0.9727,-0.9585,-0.9456,-0.9403,-0.939,-0.9403,-0.9439,-0.9555,-0.9555,-1.0185,-1.1544,-1.2613,-1.3781,-1.5124,-1.6411,-1.7056,-1.7056,-1.7327,-1.7436,-1.7436,-1.7443,-1.7443,0.1932,0.098,0.0031,0.0089,-0.1663,-0.3295,-0.2884,0.0,-0.3912,-0.3573,-0.3335,-0.325,-0.3411,-0.3491,-0.3684,0.0,0.0,0.0,-0.5503,0.0,0.0,0.0,0.0,0.0,0.0,0.0,-0.8725,-0.8767,-0.8773,-0.8774,-0.8738,-0.8628,-0.859,-0.859,-0.859,-0.859,-0.859,-0.859,-0.859,-0.859,-0.859,-0.859,-0.859,-0.859,-0.859,-0.859,-0.859,-0.859,-0.859,-0.859,-0.859,-0.859,-0.859,-0.859,-0.859,-0.859,-0.859,-0.859,-0.859,-0.8717,-0.8884,-0.8884,-0.9121,-0.9333,-0.8994,-0.9222,-0.9536,-0.9431,-0.9425,-0.9504,-0.9638,-0.9737,-0.9792,-0.9792,-0.9792,-0.9792,-0.9792,-0.9792,-0.9792,-0.9792,-0.9792,-0.9792,-0.9792,-0.9792,-0.9792,-0.9792,-0.9792,-0.9792,-0.9792,-0.9792,-0.9771,-0.971,-0.968,-0.9612,-0.9523,-0.9598,-0.9646,-0.9646,-0.9646,-1.0562,-1.2646,-1.3175,-1.4386,-1.646,-1.7059,-1.7322,-1.7322,-1.746,-1.7508,-1.7508,-1.7508,-1.7508,0.1851,0.1233,0.0574,0.0585,-0.0905,-0.2336,0.0,-0.2944,-0.3559,-0.3527,-0.3393,-0.3303,-0.3435,-0.3495,-0.3654,-0.3997,-0.4153,-0.4537,-0.5417,0.0,0.0,0.0,0.0,-0.8054,-0.8633,-0.8764,-0.8861,-0.8908,-0.8919,-0.8865,-0.8814,-0.8721,-0.8628,-0.859,-0.859,-0.859,-0.859,-0.859,-0.859,-0.859,-0.859,-0.859,-0.859,-0.859,-0.859,-0.859,-0.859,-0.859,-0.859,-0.859,-0.859,-0.859,-0.859,-0.859,-0.8623,-0.8717,-0.8751,-0.8751,-0.8889,-0.9089,-0.9289,-0.9289,-0.9522,-0.9775,-0.9413,-0.9482,-0.9686,-0.9543,-0.9469,-0.9506,-0.9661,-0.9786,-0.9846,-0.9798,-0.9792,-0.9792,-0.9792,-0.9792,-0.9792,-0.9792,-0.9792,-0.9792,-0.9792,-0.9792,-0.9792,-0.9792,-0.9792,-0.9792,-0.9792,-0.9792,-0.9792,-0.9792,-0.9792,-0.9751,-0.968,-0.9731,-0.9792,-0.9792,-0.9792,-1.0967,-1.3605,-1.3695,-1.4887,-1.7449,-1.7508,-1.7508,-1.7508,-1.7508,-1.7556,-1.7629,-1.7629,-1.7677,0.1787,0.1834,0.1872,0.181,0.0929,-0.013,0.0,-0.1794,-0.2721,-0.3453,-0.3483,-0.3435,-0.3575,-0.3603,-0.3725,-0.4133,-0.4264,0.0,-0.5478,0.0,0.0,0.0,0.0,-0.8181,-0.8399,-0.8708,-0.8914,-0.8919,-0.8919,-0.8865,-0.8814,-0.8803,-0.8748,-0.859,-0.859,-0.859,-0.859,-0.859,-0.859,-0.859,-0.859,-0.859,-0.859,-0.859,-0.859,-0.859,-0.859,-0.859,-0.859,-0.859,-0.859,-0.859,-0.859,-0.859,-0.8651,-0.8984,-0.9084,-0.915,-0.9561,-0.9694,-0.9694,-0.9694,-0.9927,-1.0193,-1.0187,-1.0187,-1.0161,-1.0045,-1.0134,-1.0243,-1.0055,-0.9984,-0.9981,-0.9825,-0.9792,-0.9792,-0.9792,-0.9792,-0.9792,-0.9792,-0.9792,-0.9792,-0.9792,-0.9792,-0.9792,-0.9792,-0.9792,-0.9792,-0.9792,-0.9792,-0.9792,-0.9792,-0.9792,-0.9792,-0.9792,-0.9792,-0.9792,-0.9792,-0.9792,-1.0967,-1.3605,-1.3695,-1.4887,-1.7449,-1.7508,-1.7508,-1.7508,-1.7508,-1.7641,-1.7895,-1.7895,-1.8052,0.1586,0.1637,0.1688,0.1601,0.0765,-0.0072,-0.0225,-0.1424,-0.2554,-0.274,-0.3107,-0.3435,-0.3575,-0.3607,-0.3765,-0.4253,-0.435,-0.4726,0.0,0.0,0.0,-0.7457,-0.821,-0.8665,0.0,-0.8995,-0.9157,-0.9157,-0.9087,-0.8989,-0.8865,-0.8812,-0.8748,-0.859,-0.859,-0.859,-0.859,-0.859,-0.859,-0.859,-0.859,-0.859,-0.859,-0.859,-0.859,-0.859,-0.859,-0.859,-0.859,-0.859,-0.859,-0.859,-0.859,-0.8751,-0.895,-0.905,-0.9289,-0.9528,-0.9661,-0.9861,-1.0027,-1.0027,-1.0259,-1.0552,-1.0552,-1.0552,-1.0525,-1.0371,-1.0395,-1.0392,-1.0243,-1.0209,-1.0168,-0.9981,-0.9947,-0.992,-0.9812,-0.9792,-0.9792,-0.9792,-0.9792,-0.9792,-0.9792,-0.9792,-0.9792,-0.9792,-0.9792,-0.9792,-0.9792,-0.9792,-0.9792,-0.9792,-0.9792,-0.9792,-0.9792,-0.9792,-0.9792,-0.9792,-0.9792,-1.0967,-1.3605,-1.3695,-1.4887,-1.7449,-1.6727,-1.6339,-1.6339,-1.6525,-1.7146,-1.8155,-1.8155,-1.833,0.0,0.1519,0.1554,0.148,0.0964,0.0402,0.0128,-0.0763,-0.1615,-0.1926,-0.2288,-0.2697,-0.3149,-0.3199,-0.3414,-0.413,-0.4408,-0.4847,0.0,0.0,0.0,-0.776,0.0,0.0,-0.8838,-0.9065,-0.9242,-0.9242,-0.9136,-0.9027,-0.8859,-0.8812,-0.8748,-0.859,-0.859,-0.859,-0.859,-0.859,-0.859,-0.859,-0.859,-0.859,-0.859,-0.859,-0.859,-0.859,-0.859,-0.859,0.0,-0.859,-0.859,-0.8623,-0.8751,-0.8917,-0.915,-0.9416,-0.9688,-0.9894,-1.0027,-1.0226,-1.0392,-1.0392,-1.0518,-1.0684,-1.0684,-1.0684,-1.0671,-1.0602,-1.0575,-1.0541,-1.0399,-1.039,-1.0324,-1.0143,-1.0103,-1.0062,-0.9907,-0.9879,-0.9859,-0.9798,-0.9792,-0.9792,-0.9792,-0.9792,-0.9792,-0.9792,-0.9792,-0.9792,-0.9792,-0.9792,-0.9812,-0.9873,-0.9879,-0.99,-0.9992,-0.989,-0.9792,-0.9792,-0.9792,-1.0755,-1.2856,-1.3018,-1.4019,-1.6086,-1.548,-1.5166,-1.5166,-1.5949,-1.6794,-1.7677,-1.8323,-1.8674,0.0,0.1434,0.1473,0.1398,0.137,0.1145,0.0285,0.0096,0.0,-0.1036,-0.1199,-0.1487,-0.2444,-0.256,-0.2844,-0.3898,-0.4462,-0.5041,0.0,-0.6475,0.0,0.0,-0.8301,0.0,-0.8798,-0.8986,-0.9087,-0.9098,-0.9082,-0.9008,-0.8819,-0.8798,-0.8738,-0.859,-0.859,-0.859,-0.859,-0.859,-0.859,-0.859,-0.859,-0.859,-0.859,-0.859,-0.859,-0.859,-0.859,-0.859,-0.859,-0.859,-0.8623,-0.8656,-0.8984,-0.9117,-0.925,-0.9954,-1.0226,-1.0293,-1.0585,-1.0684,-1.0684,-1.0684,-1.0684,-1.0684,-1.0684,-1.0684,-1.0684,-1.0684,-1.0684,-1.065,-1.0548,-1.0507,-1.0473,-1.0363,-1.0297,-1.0256,-1.0069,-1.0035,-0.9994,-0.9852,-0.9825,-0.9825,-0.9825,-0.9825,-0.9825,-0.9825,-0.9825,-0.9825,-0.9825,-0.9825,-0.9879,-1.0021,-1.0035,-1.0096,-1.027,-1.0019,-0.9825,-0.9825,-0.9825,-1.0397,-1.1671,-1.1916,-1.2605,-1.3894,-1.3977,-1.3994,-1.4003,-1.5561,-1.6435,-1.6657,-1.8239,-1.9008,0.1157,0.0,0.1253,0.1184,0.117,0.113,0.0,0.0454,-0.0053,-0.0326,0.0,-0.1547,-0.2687,-0.2718,-0.3064,-0.4534,-0.5063,-0.5544,-0.6185,0.0,0.0,-0.8416,-0.8628,-0.8747,-0.8859,-0.8924,-0.9,-0.9092,-0.8959,-0.8863,-0.8808,-0.8716,-0.8617,-0.859,-0.859,-0.859,-0.859,-0.859,-0.859,-0.859,-0.859,-0.859,-0.859,-0.859,-0.859,-0.859,-0.859,-0.859,-0.859,-0.859,-0.8751,-0.8984,-0.9084,-0.9449,-0.9954,-1.0127,-1.0359,-1.0585,-1.0658,-1.0684,-1.0684,-1.0684,-1.0684,-1.0684,-1.0684,-1.0684,-1.0684,-1.0684,-1.0684,-1.0677,-1.0677,-1.0663,-1.0629,-1.048,-1.0439,-1.0399,-1.0256,-1.0222,-1.0215,-1.0181,-1.0175,-1.0175,-1.0175,-1.0175,-1.0175,-1.0175,-1.0175,-1.0175,-1.0175,-1.0175,-1.0188,-1.0222,-1.0222,-1.0243,-1.0308,-1.0247,-1.0175,-1.0175,-1.0175,-1.0765,-1.2033,-1.2136,-1.2747,-1.4017,-1.3242,-1.291,-1.3109,-1.3509,-1.4795,-1.6926,-1.7313,-1.8054,0.1092,0.1177,0.1241,0.1206,0.1183,0.1206,0.1243,0.0,0.0,0.0,0.0,-0.0411,-0.1444,-0.1582,-0.2165,-0.4062,-0.4737,0.0,0.0,0.0,-0.8312,-0.8557,-0.8677,-0.8736,-0.8856,-0.8867,-0.8894,-0.8965,-0.8879,-0.8781,-0.8721,-0.8622,-0.859,-0.859,-0.859,-0.859,-0.859,-0.859,-0.859,-0.859,-0.859,-0.859,-0.859,-0.859,-0.859,-0.859,-0.859,-0.859,-0.8623,-0.8751,-0.895,-0.915,-0.9489,-0.9854,-1.0226,-1.0359,-1.0552,-1.0684,-1.0684,-1.0684,-1.0684,-1.0684,-1.0684,-1.0684,-1.0684,-1.0684,-1.0684,-1.0684,-1.0684,-1.0684,-1.0684,-1.0684,-1.0664,-1.0616,-1.0595,-1.0555,-1.0412,-1.0378,-1.0358,-1.0322,-1.0315,-1.0315,-1.0315,-1.0315,-1.0315,-1.0315,-1.0315,-1.0315,-1.0315,-1.0315,-1.0304,-1.0403,-1.0378,-1.0405,-1.0473,-1.048,-1.0426,-1.0322,-1.0315,-1.0626,-1.1316,-1.1383,-1.1771,-1.2523,-1.1948,-1.168,-1.1835,-1.2487,-1.3595,-1.5089,-1.5749,-1.6786,0.1109,0.1185,0.1252,0.1268,0.1293,0.1302,0.1298,0.0,0.0,0.0,0.0,0.0,0.0,-0.0215,0.0,0.0,0.0,0.0,-0.7418,-0.8092,-0.8459,-0.8573,-0.859,-0.8667,-0.8792,-0.8787,-0.8787,-0.8803,-0.8787,-0.8732,-0.8595,-0.859,-0.859,-0.859,-0.859,-0.859,-0.859,-0.859,-0.859,-0.859,-0.859,-0.859,-0.859,-0.859,-0.859,-0.859,-0.859,-0.8617,-0.8684,-0.8984,-0.915,-0.9316,-0.9954,-1.0226,-1.0326,-1.0585,-1.0684,-1.0684,-1.0684,-1.0684,-1.0684,-1.0684,-1.0684,-1.0684,-1.0684,-1.0684,-1.0684,-1.0684,-1.0684,-1.0684,-1.0684,-1.0684,-1.0684,-1.0684,-1.0684,-1.0683,-1.0555,-1.0527,-1.0493,-1.0371,-1.0344,-1.0344,-1.0344,-1.0344,-1.0344,-1.0344,-1.0344,-1.0344,-1.0344,-1.0344,-1.0392,-1.0514,-1.0527,-1.0582,-1.0677,-1.0684,-1.0616,-1.0397,-1.0344,-1.0344,-1.0344,-1.0466,-1.0588,-1.0684,-1.0684,-1.0684,-1.0684,-1.1901,-1.2585,-1.2816,-1.403,-1.5326,0.1146,0.1078,0.1004,0.1174,0.1257,0.1308,0.1303,0.0,0.0,0.0,0.0,0.0,0.0,-0.0469,-0.1289,0.0,0.0,-0.6916,0.0,0.0,-0.8459,-0.8573,-0.859,-0.8667,-0.8792,-0.871,-0.8694,-0.8798,-0.871,-0.8606,-0.859,-0.859,-0.859,-0.859,-0.859,-0.859,-0.859,-0.859,-0.859,-0.859,-0.859,-0.859,-0.859,-0.859,-0.859,-0.859,-0.859,-0.8751,-0.9017,-0.9084,-0.9455,-1.0054,-1.016,-1.0359,-1.0618,-1.0684,-1.0684,-1.0684,-1.0684,-1.0684,-1.0684,-1.0684,-1.0684,-1.0684,-1.0684,-1.0684,-1.0684,-1.0684,-1.0684,-1.0684,-1.0684,-1.0684,-1.0684,-1.0684,-1.0684,-1.0677,-1.0657,-1.0683,-1.0644,-1.0623,-1.0656,-1.0656,-1.0656,-1.0656,-1.0656,-1.0656,-1.0656,-1.0656,-1.0656,-1.0656,-1.0663,-1.0683,-1.0683,-1.0697,-1.0684,-1.0684,-1.0671,-1.0656,-1.0656,-1.0656,-1.0656,-1.067,-1.0697,-1.0684,-1.0684,-1.0684,-1.0684,-1.0916,-1.1637,-1.2816,-1.3013,-1.3899,0.1083,0.1112,0.1102,0.1058,0.1008,0.0976,0.0966,0.0917,0.0,0.0,0.0,0.0,0.0,0.0,-0.053,-0.2851,0.0,-0.5813,-0.6255,-0.6881,-0.763,-0.8512,-0.859,-0.8611,-0.8699,-0.8622,-0.8611,-0.8699,-0.8622,-0.859,-0.859,-0.859,-0.859,-0.859,-0.859,-0.859,-0.859,-0.859,-0.859,-0.859,-0.859,-0.859,-0.859,-0.859,-0.859,-0.8623,-0.8784,-0.895,-0.9117,-0.9522,-0.9888,-1.0226,-1.0392,-1.0558,-1.0684,-1.0684,-1.0684,-1.0684,-1.0684,-1.0684,-1.0684,-1.0684,-1.0684,-1.0684,-1.0684,-1.0684,-1.0684,-1.0684,-1.0684,-1.0684,-1.0684,-1.0684,-1.0684,-1.0684,-1.0684,-1.0684,-1.0684,-1.0684,-1.0684,-1.0684,-1.0684,-1.0684,-1.0684,-1.0684,-1.0684,-1.0684,-1.0684,-1.0684,-1.0684,-1.0684,-1.0684,-1.0684,-1.0684,-1.0684,-1.0684,-1.0684,-1.0684,-1.0684,-1.0684,-1.0684,-1.0684,-1.0684,-1.0684,-1.0684,-1.0684,-1.0684,-1.0684,-1.0684,-1.1016,-1.167,-1.167,-1.2421,0.1034,0.1117,0.1157,0.0977,0.0902,0.0857,0.0731,0.0658,0.0,0.0,0.0,0.0,0.0,0.0534,0.0,-0.1354,-0.2997,-0.4526,-0.5679,-0.6166,-0.6944,-0.8418,-0.859,-0.859,-0.859,-0.859,-0.859,-0.859,-0.859,-0.859,-0.859,-0.859,-0.859,-0.859,-0.859,-0.859,-0.859,-0.859,-0.859,-0.859,-0.859,-0.859,-0.859,-0.859,-0.8651,-0.8717,-0.8984,-0.9183,-0.9383,-0.9954,-1.0259,-1.0359,-1.0585,-1.0684,-1.0684,-1.0684,-1.0684,-1.0684,-1.0684,-1.0684,-1.0684,-1.0684,-1.0684,-1.0684,-1.0684,-1.0684,-1.0684,-1.0684,-1.0684,-1.0684,-1.0684,-1.0684,-1.0684,-1.0684,-1.0684,-1.0684,-1.0684,-1.0684,-1.0684,-1.0684,-1.0684,-1.0684,-1.0684,-1.0684,-1.0684,-1.0684,-1.0684,-1.0684,-1.0684,-1.0684,-1.0684,-1.0684,-1.0684,-1.0684,-1.0684,-1.0684,-1.0684,-1.0684,-1.0684,-1.0684,-1.0684,-1.0684,-1.0684,-1.0684,-1.0684,-1.0684,-1.0684,-1.0684,-1.0684,-1.0684,-1.0684,-1.128,0.115,0.1052,0.0934,0.0973,0.1229,0.1306,0.0805,0.0874,0.0,0.0765,0.0,0.0,0.0,-0.0832,-0.1519,-0.0319,-0.2468,-0.432,-0.442,-0.5566,-0.6944,-0.8418,-0.859,-0.859,-0.859,-0.859,-0.859,-0.859,-0.859,-0.859,-0.859,-0.859,-0.859,-0.859,-0.859,-0.859,-0.859,-0.859,-0.859,-0.859,-0.859,-0.859,-0.859,-0.859,-0.8784,-0.905,-0.9084,-0.9483,-1.0127,-1.0193,-1.0392,-1.0658,-1.0684,-1.0684,-1.0684,-1.0684,-1.0684,-1.0684,-1.0684,-1.0684,-1.0684,-1.0684,-1.0684,-1.0684,-1.0684,-1.0684,-1.0684,-1.0684,-1.0684,-1.0684,-1.0684,-1.0684,-1.0684,-1.0684,-1.0684,-1.0684,-1.0684,-1.0684,-1.0684,-1.0684,-1.0684,-1.0684,-1.0684,-1.0684,-1.0684,-1.0684,-1.0684,-1.0684,-1.0684,-1.0684,-1.0684,-1.0684,-1.0684,-1.0684,-1.0684,-1.0684,-1.0684,-1.0684,-1.0684,-1.0684,-1.0684,-1.0684,-1.0684,-1.0684,-1.0684,-1.0684,-1.0684,-1.0684,-1.0684,-1.0684,-1.0684,-1.075,0.1055,0.0984,0.0906,0.0921,0.1127,0.0,0.0,0.0595,0.0633,0.0529,0.0536,0.0,0.0,0.0,-0.0626,-0.0096,-0.0925,-0.1948,-0.2821,-0.3392,-0.4599,-0.6944,-0.7245,-0.7579,-0.8523,-0.859,-0.859,-0.859,-0.859,-0.859,-0.859,-0.859,-0.859,-0.859,-0.859,-0.859,-0.859,-0.859,-0.859,-0.859,-0.859,-0.859,-0.859,-0.859,-0.8784,-0.9117,-0.9356,-0.9755,-1.0226,-1.0425,-1.0585,-1.0684,-1.0684,-1.0684,-1.0684,-1.0684,-1.0684,-1.0684,-1.0684,-1.0684,-1.0684,-1.0684,-1.0684,-1.0684,-1.0684,-1.0684,-1.0684,-1.0684,-1.0684,-1.0684,-1.0684,-1.0684,-1.0684,-1.0684,-1.0684,-1.0684,-1.0684,-1.0684,-1.0684,-1.0684,-1.0684,-1.0684,-1.0684,-1.0684,-1.0684,-1.0684,-1.0684,-1.0684,-1.0684,-1.0684,-1.0684,-1.0684,-1.0684,-1.0684,-1.0684,-1.0684,-1.0684,-1.0684,-1.0684,-1.0684,-1.0684,-1.0684,-1.0684,-1.0684,-1.0684,-1.0684,-1.0684,-1.0684,-1.0684,-1.0684,-1.0684,-1.0684,0.0944,0.0928,0.0904,0.0827,0.0,0.0,0.0531,0.0454,0.0465,0.0311,0.0281,0.0279,0.0281,0.0,0.0,0.0,0.0,-0.0505,-0.1916,-0.2084,-0.2989,-0.5436,-0.6138,-0.6811,-0.7817,-0.8318,-0.859,-0.859,-0.859,-0.859,-0.859,-0.859,-0.859,-0.859,-0.859,-0.859,-0.859,-0.859,-0.859,-0.859,-0.859,-0.859,-0.859,-0.8717,-0.895,-0.9322,-0.9694,-1.006,-1.0392,-1.0625,-1.0684,-1.0684,-1.0684,-1.0684,-1.0684,-1.0684,-1.0684,-1.0684,-1.0684,-1.0684,-1.0684,-1.0684,-1.0684,-1.0684,-1.0684,-1.0684,-1.0684,-1.0684,-1.0684,-1.0684,-1.0684,-1.0684,-1.0684,-1.0684,-1.0684,-1.0684,-1.0684,-1.0684,-1.0684,-1.0684,-1.0684,-1.0684,-1.0684,-1.0684,-1.0684,-1.0684,-1.0684,-1.0684,-1.0684,-1.0684,-1.0684,-1.0684,-1.0684,-1.0684,-1.0684,-1.0684,-1.0684,-1.0684,-1.0684,-1.0684,-1.0684,-1.0684,-1.0684,-1.0684,-1.0684,-1.0684,-1.0684,-1.0684,-1.0684,-1.0684,-1.0684,-1.0684,0.0807,0.0892,0.0928,0.0661,0.0,0.0,0.0533,0.0596,0.0633,0.0097,0.0,0.0,0.0,0.0,0.0,0.0,0.0,-0.0471,-0.1882,-0.2084,-0.262,-0.4093,-0.5503,-0.6376,-0.641,-0.7717,-0.859,-0.859,-0.859,-0.859,-0.859,-0.859,-0.859,-0.859,-0.859,-0.859,-0.859,-0.859,-0.859,-0.859,-0.859,-0.859,-0.8623,-0.895,-0.9322,-0.9728,-1.006,-1.0392,-1.0684,-1.0684,-1.0684,-1.0684,-1.0684,-1.0684,-1.0684,-1.0684,-1.0684,-1.0684,-1.0684,-1.0684,-1.0684,-1.0684,-1.0684,-1.0684,-1.0684,-1.0684,-1.0684,-1.0684,-1.0684,-1.0684,-1.0684,-1.0684,-1.0684,-1.0684,-1.0684,-1.0684,-1.0684,-1.0684,-1.0684,-1.0684,-1.0684,-1.0684,-1.0684,-1.0684,-1.0684,-1.0684,-1.0684,-1.0684,-1.0684,-1.0684,-1.0684,-1.0684,-1.0684,-1.0684,-1.0684,-1.0684,-1.0684,-1.0684,-1.0684,-1.0684,-1.0684,-1.0684,-1.0684,-1.0684,-1.0684,-1.0684,-1.0684,-1.0684,-1.0684,-1.0684,-1.0684,-1.0684,0.1088,0.0903,0.0,0.0853,0.0,0.0,0.0,0.0459,0.0,0.0,0.0,0.0,0.0,0.0,0.0,0.0,0.0,-0.0135,-0.0572,-0.0639,-0.1143,-0.2586,-0.3123,-0.4163,-0.6209,-0.6811,-0.7479,-0.8523,-0.859,-0.859,-0.859,-0.859,-0.859,-0.859,-0.859,-0.859,-0.859,-0.859,-0.859,-0.859,-0.859,-0.8723,-0.895,-0.905,-0.9449,-1.006,-1.016,-1.0392,-1.0684,-1.0684,-1.0684,-1.0684,-1.0684,-1.0684,-1.0684,-1.0684,-1.0684,-1.0684,-1.0684,-1.0684,-1.0684,-1.0684,-1.0684,-1.0684,-1.0684,-1.0684,-1.0684,-1.0684,-1.0684,-1.0684,-1.0684,-1.0684,-1.0684,-1.0684,-1.0684,-1.0684,-1.0684,-1.0684,-1.0684,-1.0684,-1.0684,-1.0684,-1.0684,-1.0684,-1.0684,-1.0684,-1.0684,-1.0684,-1.0684,-1.0684,-1.0684,-1.0684,-1.0684,-1.0684,-1.0684,-1.0684,-1.0684,-1.0684,-1.0684,-1.0684,-1.0684,-1.0684,-1.0684,-1.0684,-1.0684,-1.0684,-1.0684,-1.0684,-1.0684,-1.0684,-1.0684,-1.0684,0.0846,0.0669,0.0,0.0593,0.0505,0.0364,0.0251,0.0,0.0,0.0,0.0,0.0,0.0,0.0,0.0,0.0,0.0,0.0,0.0,0.0,-0.0303,-0.1177,-0.1748,-0.2788,-0.4532,-0.5235,-0.5938,-0.684,-0.6907,-0.7145,-0.7684,-0.7717,-0.7984,-0.859,-0.859,-0.859,-0.859,-0.859,-0.859,-0.859,-0.8717,-0.8984,-0.9356,-0.9356,-0.9655,-1.0226,-1.0359,-1.0525,-1.0684,-1.0684,-1.0684,-1.0684,-1.0684,-1.0684,-1.0684,-1.0684,-1.0684,-1.0684,-1.0684,-1.0684,-1.0684,-1.0684,-1.0684,-1.0684,-1.0684,-1.0684,-1.0684,-1.0684,-1.0684,-1.0684,-1.0684,-1.0684,-1.0684,-1.0684,-1.0684,-1.0684,-1.0684,-1.0684,-1.0684,-1.0684,-1.0684,-1.0684,-1.0684,-1.0684,-1.0684,-1.0684,-1.0684,-1.0684,-1.0684,-1.0684,-1.0684,-1.0684,-1.0684,-1.0684,-1.0684,-1.0684,-1.0684,-1.0684,-1.0684,-1.0684,-1.0684,-1.0684,-1.0684,-1.0684,-1.0684,-1.0684,-1.0684,-1.0684,-1.0684,-1.0684,-1.0684,-1.0684,0.0315,0.0321,0.0,0.0087,0.0211,0.0,0.0067,0.0,0.0,0.0,0.0,0.0,0.0,0.0,0.0,0.0,0.0,0.0,0.0,0.0,0.0,0.0,-0.1144,-0.195,-0.2084,-0.3323,-0.416,-0.4294,-0.4294,-0.4864,-0.6138,-0.6343,-0.7011,-0.8351,-0.8523,-0.859,-0.859,-0.859,-0.8623,-0.8656,-0.895,-0.9322,-0.9761,-0.9761,-0.9927,-1.0259,-1.0558,-1.0684,-1.0684,-1.0684,-1.0684,-1.0684,-1.0684,-1.0684,-1.0684,-1.0684,-1.0684,-1.0684,-1.0684,-1.0684,-1.0684,-1.0684,-1.0684,-1.0684,-1.0684,-1.0684,-1.0684,-1.0684,-1.0684,-1.0684,-1.0684,-1.0684,-1.0684,-1.0684,-1.0684,-1.0684,-1.0684,-1.0684,-1.0684,-1.0684,-1.0684,-1.0684,-1.0684,-1.0684,-1.0684,-1.0684,-1.0684,-1.0684,-1.0684,-1.0684,-1.0684,-1.0684,-1.0684,-1.0684,-1.0684,-1.0684,-1.0684,-1.0684,-1.0684,-1.0684,-1.0684,-1.0684,-1.0684,-1.0684,-1.0684,-1.0684,-1.0684,-1.0684,-1.0684,-1.0684,-1.0684,-1.0684,0.077,0.054,0.0,0.0,0.0211,0.0065,0.0,0.0,0.0,0.0,0.0,0.0,0.0,0.0,0.0,0.0,0.0,0.0,0.0,0.0,0.0,0.0,-0.0269,-0.0875,-0.1983,-0.2385,-0.3056,-0.4227,-0.4294,-0.4428,-0.473,-0.5804,-0.6543,-0.6878,-0.7984,-0.859,-0.859,-0.859,-0.8717,-0.8984,-0.905,-0.9449,-1.0093,-1.0093,-1.0293,-1.0585,-1.0658,-1.0684,-1.0684,-1.0684,-1.0684,-1.0684,-1.0684,-1.0684,-1.0684,-1.0684,-1.0684,-1.0684,-1.0684,-1.0684,-1.0684,-1.0684,-1.0684,-1.0684,-1.0684,-1.0684,-1.0684,-1.0684,-1.0684,-1.0684,-1.0684,-1.0684,-1.0684,-1.0684,-1.0684,-1.0684,-1.0684,-1.0684,-1.0684,-1.0684,-1.0684,-1.0684,-1.0684,-1.0684,-1.0684,-1.0684,-1.0684,-1.0684,-1.0684,-1.0684,-1.0684,-1.0684,-1.0684,-1.0684,-1.0684,-1.0684,-1.0684,-1.0684,-1.0684,-1.0684,-1.0684,-1.0684,-1.0684,-1.0684,-1.0684,-1.0684,-1.0684,-1.0684,-1.0684,-1.0684,-1.0684,-1.0684,0.0657,0.0,0.0,0.023,0.0,0.0,0.0,0.0,0.0,0.0,0.0,0.0,0.0,0.0,0.0,0.0,0.0,0.0,0.0,0.0,0.0,0.0,0.0,-0.0303,-0.1009,-0.1109,-0.1412,-0.2183,-0.2249,-0.2553,-0.3224,-0.3928,-0.4666,-0.5369,-0.6811,-0.755,-0.755,-0.8251,-0.8751,-0.9117,-0.9289,-0.9755,-1.0459,-1.0459,-1.0518,-1.0684,-1.0684,-1.0684,-1.0684,-1.0684,-1.0684,-1.0684,-1.0684,-1.0684,-1.0684,-1.0684,-1.0684,-1.0684,-1.0684,-1.0684,-1.0684,-1.0684,-1.0684,-1.0684,-1.0684,-1.0684,-1.0684,-1.0684,-1.0684,-1.0684,-1.0684,-1.0684,-1.0684,-1.0684,-1.0684,-1.0684,-1.0684,-1.0684,-1.0684,-1.0684,-1.0684,-1.0684,-1.0684,-1.0684,-1.0684,-1.0684,-1.0684,-1.0684,-1.0684,-1.0684,-1.0684,-1.0684,-1.0684,-1.0684,-1.0684,-1.0684,-1.0684,-1.0684,-1.0684,-1.0684,-1.0684,-1.0684,-1.0684,-1.0684,-1.0684,-1.0684,-1.0684,-1.0684,-1.0684,-1.0684,-1.0684,-1.0684,0.044,0.0,0.024,0.006,0.0,0.0,0.0,0.0,0.0,0.0,0.0,0.0,0.0,0.0,0.0,0.0,0.0,0.0,0.0,0.0,0.0,0.0,0.0,0.0,0.0,0.0,0.0,0.0,0.0,-0.0505,-0.1681,-0.1983,-0.2653,-0.3892,-0.5302,-0.6138,-0.641,-0.7679,-0.8617,-0.9217,-0.9661,-1.016,-1.0684,-1.0684,-1.0684,-1.0684,-1.0684,-1.0684,-1.0684,-1.0684,-1.0684,-1.0684,-1.0684,-1.0684,-1.0684,-1.0684,-1.0684,-1.0684,-1.0684,-1.0684,-1.0684,-1.0684,-1.0684,-1.0684,-1.0684,-1.0684,-1.0684,-1.0684,-1.0684,-1.0684,-1.0684,-1.0684,-1.0684,-1.0684,-1.0684,-1.0684,-1.0684,-1.0684,-1.0684,-1.0684,-1.0684,-1.0684,-1.0684,-1.0684,-1.0684,-1.0684,-1.0684,-1.0684,-1.0684,-1.0684,-1.0684,-1.0684,-1.0684,-1.0684,-1.0684,-1.0684,-1.0684,-1.0684,-1.0684,-1.0684,-1.0684,-1.0684,-1.0684,-1.0684,-1.0684,-1.0684,-1.0684,-1.0684,-1.0684,-1.0684,-1.0684,-1.0684,0.0,0.0,0.0183,0.0,0.0,0.0,0.0,0.0,0.0,0.0,0.0,0.0,0.0,0.0,0.0,0.0,0.0,0.0,0.0,0.0,0.0,0.0,0.0,0.0,0.0,0.0,0.0,0.0,0.0,-0.0067,-0.0269,-0.1446,-0.2185,-0.2385,-0.3825,-0.5165,-0.6376,-0.694,-0.8012,-0.9628,-1.0259,-1.0625,-1.0684,-1.0684,-1.0684,-1.0684,-1.0684,-1.0684,-1.0684,-1.0684,-1.0684,-1.0684,-1.0684,-1.0684,-1.0684,-1.0684,-1.0684,-1.0684,-1.0684,-1.0684,-1.0684,-1.0684,-1.0684,-1.0684,-1.0684,-1.0684,-1.0684,-1.0684,-1.0684,-1.0684,-1.0684,-1.0684,-1.0684,-1.0684,-1.0684,-1.0684,-1.0684,-1.0684,-1.0684,-1.0684,-1.0684,-1.0684,-1.0684,-1.0684,-1.0684,-1.0684,-1.0684,-1.0684,-1.0684,-1.0684,-1.0684,-1.0684,-1.0684,-1.0684,-1.0684,-1.0684,-1.0684,-1.0684,-1.0684,-1.0684,-1.0684,-1.0684,-1.0684,-1.0684,-1.0684,-1.0684,-1.0684,-1.0684,-1.0684,-1.0684,-1.0684,-1.0684,0.0643,0.0427,0.0204,0.0,0.0,0.0,0.0,0.0,0.0,0.0,0.0,0.0,0.0,0.0,0.0,0.0,0.0,0.0,0.0,0.0,0.0,0.0,0.0,0.0,0.0,0.0,0.0,0.0,0.0,0.0,0.0,-0.0572,-0.0908,-0.0908,-0.2318,-0.3358,-0.3995,-0.577,-0.7679,-0.9694,-1.0392,-1.0684,-1.0684,-1.0684,-1.0684,-1.0684,-1.0684,-1.0684,-1.0684,-1.0684,-1.0684,-1.0684,-1.0684,-1.0684,-1.0684,-1.0684,-1.0684,-1.0684,-1.0684,-1.0684,-1.0684,-1.0684,-1.0684,-1.0684,-1.0684,-1.0684,-1.0684,-1.0684,-1.0684,-1.0684,-1.0684,-1.0684,-1.0684,-1.0684,-1.0684,-1.0684,-1.0684,-1.0684,-1.0684,-1.0684,-1.0684,-1.0684,-1.0684,-1.0684,-1.0684,-1.0684,-1.0684,-1.0684,-1.0684,-1.0684,-1.0684,-1.0684,-1.0684,-1.0684,-1.0684,-1.0684,-1.0684,-1.0684,-1.0684,-1.0684,-1.0684,-1.0684,-1.0684,-1.0684,-1.0684,-1.0684,-1.0684,-1.0684,-1.0684,-1.0684,-1.0684,-1.0684,0.0,0.0,0.0263,0.0053,0.0,0.0,0.0,0.0,0.0,0.0,0.0,0.0,0.0,0.0,0.0,0.0,0.0,0.0,0.0,0.0,0.0,0.0,0.0,0.0,0.0,0.0,0.0,0.0,0.0,0.0,0.0,0.0,0.0,0.0,-0.1009,-0.1748,-0.2084,-0.48,-0.7078,-0.8851,-0.9383,-0.9815,-1.018,-1.018,-1.0352,-1.0684,-1.0684,-1.0684,-1.0684,-1.0684,-1.0684,-1.0684,-1.0684,-1.0684,-1.0684,-1.0684,-1.0684,-1.0684,-1.0684,-1.0684,-1.0684,-1.0684,-1.0684,-1.0684,-1.0684,-1.0684,-1.0684,-1.0684,-1.0684,-1.0684,-1.0684,-1.0684,-1.0684,-1.0684,-1.0684,-1.0684,-1.0684,-1.0684,-1.0684,-1.0684,-1.0684,-1.0684,-1.0684,-1.0684,-1.0684,-1.0684,-1.0684,-1.0684,-1.0684,-1.0684,-1.0684,-1.0684,-1.0684,-1.0684,-1.0684,-1.0684,-1.0684,-1.0684,-1.0684,-1.0684,-1.0684,-1.0684,-1.0684,-1.0684,-1.0684,-1.0684,-1.0684,-1.0684,-1.0684,-1.0684,-1.0684,-1.0684,0.0,0.044,0.0,0.0072,0.0,0.0,0.0,0.0,0.0,0.0,0.0,0.0,0.0,0.0,0.0,0.0,0.0,0.0,0.0,0.0,0.0,0.0,0.0,0.0,0.0,0.0,0.0,0.0,0.0,0.0,0.0,0.0,0.0,0.0,-0.0067,-0.074,-0.2084,-0.4328,-0.583,-0.6564,-0.6598,-0.7369,-0.8706,-0.8706,-0.9443,-1.0684,-1.0684,-1.0684,-1.0684,-1.0684,-1.0684,-1.0684,-1.0684,-1.0684,-1.0684,-1.0684,-1.0684,-1.0684,-1.0684,-1.0684,-1.0684,-1.0684,-1.0684,-1.0684,-1.0684,-1.0684,-1.0684,-1.0684,-1.0684,-1.0684,-1.0684,-1.0684,-1.0684,-1.0684,-1.0684,-1.0684,-1.0684,-1.0684,-1.0684,-1.0684,-1.0684,-1.0684,-1.0684,-1.0684,-1.0684,-1.0684,-1.0684,-1.0684,-1.0684,-1.0684,-1.0684,-1.0684,-1.0684,-1.0684,-1.0684,-1.0684,-1.0684,-1.0684,-1.0684,-1.0684,-1.0684,-1.0684,-1.0684,-1.0684,-1.0684,-1.0684,-1.0684,-1.0684,-1.0684,-1.0684,-1.0684,-1.0684,0.0,0.0,0.0,0.0089,0.0,0.0,0.0,0.0,0.0,0.0,0.0,0.0,0.0,0.0,0.0,0.0,0.0,0.0,0.0,0.0,0.0,0.0,0.0,0.0,0.0,0.0,0.0,0.0,0.0,0.0,0.0,0.0,0.0,0.0,0.0,-0.0673,-0.2084,-0.3356,-0.4593,-0.5763,-0.6197,-0.6664,-0.7236,-0.8174,-0.8873,-0.941,-1.0319,-1.0684,-1.0684,-1.0684,-1.0684,-1.0684,-1.0684,-1.0684,-1.0684,-1.0684,-1.0684,-1.0684,-1.0684,-1.0684,-1.0684,-1.0684,-1.0684,-1.0684,-1.0684,-1.0684,-1.0684,-1.0684,-1.0684,-1.0684,-1.0684,-1.0684,-1.0684,-1.0684,-1.0684,-1.0684,-1.0684,-1.0684,-1.0684,-1.0684,-1.0684,-1.0684,-1.0684,-1.0684,-1.0684,-1.0684,-1.0684,-1.0684,-1.0684,-1.0684,-1.0684,-1.0684,-1.0684,-1.0684,-1.0684,-1.0684,-1.0684,-1.0684,-1.0684,-1.0684,-1.0684,-1.0684,-1.0684,-1.0684,-1.0684,-1.0684,-1.0684,-1.0684,-1.0684,-1.0684,-1.0684,-1.0684,0.0511,0.0,0.0,0.0,0.0,0.0,0.0,0.0,0.0,0.0,0.0,0.0,0.0,0.0,0.0,0.0,0.0,0.0,0.0,0.0,0.0,0.0,0.0,0.0,0.0,0.0,0.0,0.0,0.0,0.0,0.0,0.0,0.0,0.0,0.0,-0.0505,-0.1546,-0.205,-0.2922,-0.4127,-0.4562,-0.5098,-0.5733,-0.6702,-0.7403,-0.7936,-0.9377,-1.0246,-1.0684,-1.0684,-1.0684,-1.0684,-1.0684,-1.0684,-1.0684,-1.0684,-1.0684,-1.0684,-1.0684,-1.0684,-1.0684,-1.0684,-1.0684,-1.0684,-1.0684,-1.0684,-1.0684,-1.0684,-1.0684,-1.0684,-1.0684,-1.0684,-1.0684,-1.0684,-1.0684,-1.0684,-1.0684,-1.0684,-1.0684,-1.0684,-1.0684,-1.0684,-1.0684,-1.0684,-1.0684,-1.0684,-1.0684,-1.0684,-1.0684,-1.0684,-1.0684,-1.0684,-1.0684,-1.0684,-1.0684,-1.0684,-1.0684,-1.0684,-1.0684,-1.0684,-1.0684,-1.0684,-1.0684,-1.0684,-1.0684,-1.0684,-1.0684,-1.0684,-1.0684,-1.0684,-1.0684,-1.0684,0.0,0.0,0.0,0.0,0.0,0.0,0.0,0.0,0.0,0.0,0.0,0.0,0.0,0.0,0.0,0.0,0.0,0.0,0.0,0.0,0.0,0.0,0.0,0.0,0.0,0.0,0.0,0.0,0.0,0.0,0.0,0.0,0.0,0.0,0.0,-0.0168,-0.0471,-0.0505,-0.0875,-0.1582,-0.1582,-0.2522,-0.4233,-0.4266,-0.5034,-0.6431,-0.7902,-0.931,-1.0585,-1.0651,-1.0684,-1.0684,-1.0684,-1.0684,-1.0684,-1.0684,-1.0684,-1.0684,-1.0684,-1.0684,-1.0684,-1.0684,-1.0684,-1.0684,-1.0684,-1.0684,-1.0684,-1.0684,-1.0684,-1.0684,-1.0684,-1.0684,-1.0684,-1.0684,-1.0684,-1.0684,-1.0684,-1.0684,-1.0684,-1.0684,-1.0684,-1.0684,-1.0684,-1.0684,-1.0684,-1.0684,-1.0684,-1.0684,-1.0684,-1.0684,-1.0684,-1.0684,-1.0684,-1.0684,-1.0684,-1.0684,-1.0684,-1.0684,-1.0684,-1.0684,-1.0684,-1.0684,-1.0684,-1.0684,-1.0684,-1.0684,-1.0684,-1.0684,-1.0684,-1.0684,-1.0684,-1.0684,0.051,0.0,0.0,0.0,0.0,0.0,0.0,0.0,0.0,0.0,0.0,0.0,0.0,0.0,0.0,0.0,0.0,0.0,0.0,0.0,0.0,0.0,0.0,0.0,0.0,0.0,0.0,0.0,0.0,0.0,0.0,0.0,0.0,0.0,0.0,-0.0034,-0.0135,-0.037,-0.0606,-0.0808,-0.1346,-0.1851,-0.2388,-0.3696,-0.4501,-0.4967,-0.6402,-0.7236,-0.7736,-0.9848,-1.0684,-1.0684,-1.0684,-1.0684,-1.0684,-1.0684,-1.0684,-1.0684,-1.0684,-1.0684,-1.0684,-1.0684,-1.0684,-1.0684,-1.0684,-1.0684,-1.0684,-1.0684,-1.0684,-1.0684,-1.0684,-1.0684,-1.0684,-1.0684,-1.0684,-1.0684,-1.0684,-1.0684,-1.0684,-1.0684,-1.0684,-1.0684,-1.0684,-1.0684,-1.0684,-1.0684,-1.0684,-1.0684,-1.0684,-1.0684,-1.0684,-1.0684,-1.0684,-1.0684,-1.0684,-1.0684,-1.0684,-1.0684,-1.0684,-1.0684,-1.0684,-1.0684,-1.0684,-1.0684,-1.0684,-1.0684,-1.0684,-1.0684,-1.0684,-1.0684,-1.0684,-1.0684,0.0567,0.0,0.0,0.0,0.0,0.0,0.0,0.0,0.0,0.0,0.0,0.0,0.0,0.0,0.0,0.0,0.0,0.0,0.0,0.0,0.0,0.0,0.0,0.0,0.0,0.0,0.0,0.0,0.0,0.0,0.0,0.0,0.0,0.0,0.0,0.0,0.0,-0.0202,-0.037,-0.0505,-0.1111,-0.1481,-0.1649,-0.2858,-0.343,-0.3497,-0.49,-0.5533,-0.57,-0.7974,-0.9277,-0.9881,-1.0485,-1.0352,-0.9881,-1.0485,-1.0319,-0.9915,-1.0485,-1.0684,-1.0684,-1.0684,-1.0684,-1.0684,-1.0684,-1.0684,-1.0684,-1.0684,-1.0684,-1.0684,-1.0684,-1.0684,-1.0684,-1.0684,-1.0684,-1.0684,-1.0684,-1.0684,-1.0684,-1.0684,-1.0684,-1.0684,-1.0684,-1.0684,-1.0684,-1.0684,-1.0684,-1.0684,-1.0684,-1.0684,-1.0684,-1.0684,-1.0684,-1.0684,-1.0684,-1.0684,-1.0684,-1.0684,-1.0684,-1.0684,-1.0684,-1.0684,-1.0684,-1.0684,-1.0684,-1.0684,-1.0684,-1.0684,-1.0684,-1.0684,-1.0684,-1.0684,0.0633,0.0,0.0,0.0,0.0,0.0,0.0,0.0,0.0,0.0,0.0,0.0,0.0,0.0,0.0,0.0,0.0,0.0,0.0,0.0,0.0,0.0,0.0,0.0,0.0,0.0,0.0,0.0,0.0,0.0,0.0,0.0,0.0,0.0,0.0,0.0,0.0,0.0,-0.0168,-0.0505,-0.0909,-0.1279,-0.1616,-0.2019,-0.2189,-0.2255,-0.353,-0.4065,-0.4166,-0.56,-0.7036,-0.8473,-0.9748,-0.9443,-0.8507,-0.9748,-0.9543,-0.8773,-1.0014,-1.0585,-1.0684,-1.0684,-1.0684,-1.0684,-1.0684,-1.0684,-1.0684,-1.0684,-1.0684,-1.0684,-1.0684,-1.0684,-1.0684,-1.0684,-1.0684,-1.0684,-1.0684,-1.0684,-1.0684,-1.0684,-1.0684,-1.0684,-1.0684,-1.0684,-1.0684,-1.0684,-1.0684,-1.0684,-1.0684,-1.0684,-1.0684,-1.0684,-1.0684,-1.0684,-1.0684,-1.0684,-1.0684,-1.0684,-1.0684,-1.0684,-1.0684,-1.0684,-1.0684,-1.0684,-1.0684,-1.0684,-1.0684,-1.0684,-1.0684,-1.0684,-1.0684,-1.0684,0.0,0.0,0.0,0.0,0.0,0.0,0.0,0.0,0.0,0.0,0.0,0.0,0.0,0.0,0.0,0.0,0.0,0.0,0.0,0.0,0.0,0.0,0.0,0.0,0.0,0.0,0.0,0.0,0.0,0.0,0.0,0.0,0.0,0.0,0.0,0.0,0.0,0.0,-0.0168,-0.0505,-0.0909,-0.1279,-0.1616,-0.2019,-0.2189,-0.2223,-0.249,-0.2625,-0.2726,-0.4132,-0.5533,-0.6869,-0.7136,-0.7069,-0.6869,-0.7136,-0.7802,-0.864,-0.8906,-0.9748,-1.0684,-1.0684,-1.0684,-1.0684,-1.0684,-1.0684,-1.0684,-1.0684,-1.0684,-1.0684,-1.0684,-1.0684,-1.0684,-1.0684,-1.0684,-1.0684,-1.0684,-1.0684,-1.0684,-1.0684,-1.0684,-1.0684,-1.0684,-1.0684,-1.0684,-1.0684,-1.0684,-1.0684,-1.0684,-1.0684,-1.0684,-1.0684,-1.0684,-1.0684,-1.0684,-1.0684,-1.0684,-1.0684,-1.0684,-1.0684,-1.0684,-1.0684,-1.0684,-1.0684,-1.0684,-1.0684,-1.0684,-1.0684,-1.0684,-1.0684,-1.0684,-1.0684,0.0,0.0,0.0,0.0109,0.0,0.0,0.0,0.0,0.0,0.0,0.0,0.0,0.0,0.0,0.0,0.0,0.0,0.0,0.0,0.0,0.0,0.0,0.0,0.0,0.0,0.0,0.0,0.0,0.0,0.0,0.0,0.0,0.0,0.0,0.0,0.0,0.0,0.0,-0.0101,-0.0269,-0.064,-0.0875,-0.1077,-0.1649,-0.1885,-0.1918,-0.212,-0.2189,-0.2255,-0.2961,-0.3562,-0.416,-0.5763,-0.5967,-0.5432,-0.6134,-0.6869,-0.7603,-0.834,-0.951,-1.0684,-1.0684,-1.0684,-1.0684,-1.0684,-1.0684,-1.0684,-1.0684,-1.0684,-1.0684,-1.0684,-1.0684,-1.0684,-1.0684,-1.0684,-1.0684,-1.0684,-1.0684,-1.0684,-1.0684,-1.0684,-1.0684,-1.0684,-1.0684,-1.0684,-1.0684,-1.0684,-1.0684,-1.0684,-1.0684,-1.0684,-1.0684,-1.0684,-1.0684,-1.0684,-1.0684,-1.0684,-1.0684,-1.0684,-1.0684,-1.0684,-1.0684,-1.0684,-1.0684,-1.0765,-1.0799,-1.0799,-1.0907,-1.0907,-1.0799,-1.0907,-1.09,0.0,0.0,0.0,0.0,0.0,0.0,0.0,0.0,0.0,0.0,0.0,0.0,0.0,0.0,0.0,0.0,0.0,0.0,0.0,0.0,0.0,0.0,0.0,0.0,0.0,0.0,0.0,0.0,0.0,0.0,0.0,0.0,0.0,0.0,0.0,0.0,0.0,0.0,-0.0034,-0.0101,-0.037,-0.0539,-0.064,-0.1313,-0.1616,-0.1616,-0.2019,-0.2154,-0.2087,-0.2087,-0.1851,-0.1783,-0.4529,-0.4833,-0.3931,-0.5131,-0.5934,-0.6564,-0.7769,-0.9277,-1.0684,-1.0684,-1.0684,-1.0684,-1.0684,-1.0684,-1.0684,-1.0684,-1.0684,-1.0684,-1.0684,-1.0684,-1.0684,-1.0684,-1.0684,-1.0684,-1.0684,-1.0684,-1.0684,-1.0684,-1.0684,-1.0684,-1.0684,-1.0684,-1.0684,-1.0684,-1.0684,-1.0684,-1.0684,-1.0684,-1.0684,-1.0684,-1.0684,-1.0684,-1.0684,-1.0684,-1.0684,-1.0684,-1.0684,-1.0684,-1.0684,-1.0684,-1.0698,-1.0732,-1.0853,-1.0928,-1.0955,-1.1138,-1.1131,-1.0961,-1.1111,-1.1097,0.0,0.0,0.0,0.0,0.0,0.0,0.0,0.0,0.0,0.0,0.0,0.0,0.0,0.0,0.0,0.0,0.0,0.0,0.0,0.0,0.0,0.0,0.0,0.0,0.0,0.0,0.0,0.0,0.0,0.0,0.0,0.0,0.0,0.0,0.0,0.0,0.0,0.0,-0.0135,-0.0438,-0.0471,-0.0673,-0.1043,-0.1414,-0.1616,-0.1616,-0.2019,-0.1986,-0.1683,-0.1683,-0.1481,-0.1245,-0.2289,-0.2356,-0.1986,-0.249,-0.4264,-0.6431,-0.6598,-0.844,-1.0684,-1.0684,-1.0684,-1.0684,-1.0684,-1.0684,-1.0684,-1.0684,-1.0684,-1.0684,-1.0684,-1.0684,-1.0684,-1.0684,-1.0684,-1.0684,-1.0684,-1.0684,-1.0684,-1.0684,-1.0684,-1.0684,-1.0684,-1.0684,-1.0684,-1.0684,-1.0684,-1.0684,-1.0684,-1.0684,-1.0684,-1.0684,-1.0684,-1.0684,-1.0684,-1.0684,-1.0684,-1.0684,-1.0684,-1.0684,-1.0684,-1.0684,-1.0752,-1.0887,-1.0907,-1.0975,-1.1172,-1.1329,-1.1287,-1.1172,-1.1193,-1.1186,0.0,0.0,0.0,0.0,0.0,0.0,0.0,0.0,0.0,0.0,0.0,0.0,0.0,0.0,0.0,0.0,0.0,0.0,0.0,0.0,0.0,0.0,0.0,0.0,0.0,0.0,0.0,0.0,0.0,0.0,0.0,0.0,0.0,0.0,0.0,0.0,0.0,0.0,-0.0067,-0.0202,-0.0202,-0.0303,-0.0471,-0.0808,-0.0976,-0.0976,-0.138,-0.1481,-0.1313,-0.1313,-0.1077,-0.0842,-0.1548,-0.175,-0.1649,-0.2053,-0.3461,-0.5302,-0.6134,-0.7736,-0.9609,-1.0419,-1.0684,-1.0684,-1.0684,-1.0684,-1.0684,-1.0684,-1.0684,-1.0684,-1.0684,-1.0684,-1.0684,-1.0684,-1.0684,-1.0684,-1.0684,-1.0684,-1.0684,-1.0684,-1.0684,-1.0684,-1.0684,-1.0684,-1.0684,-1.0684,-1.0684,-1.0684,-1.0684,-1.0684,-1.0684,-1.0684,-1.0684,-1.0684,-1.0684,-1.0684,-1.0684,-1.0684,-1.0684,-1.0684,-1.0684,-1.0772,-1.0846,-1.0914,-1.1083,-1.1233,-1.1329,-1.145,-1.1491,-1.143,-1.143,-1.1382,0.0411,0.0,0.0347,0.0076,0.0,0.0,0.0,0.0,0.0,0.0,0.0,0.0,0.0,0.0,0.0,0.0,0.0,0.0,0.0,0.0,0.0,0.0,0.0,0.0,0.0,0.0,0.0,0.0,0.0,0.0,0.0,0.0,0.0,0.0,0.0,0.0,0.0,0.0,0.0,0.0,0.0,0.0,0.0,-0.0337,-0.0505,-0.0539,-0.0909,-0.1043,-0.0943,-0.0943,-0.0707,-0.0438,-0.1043,-0.138,-0.1515,-0.2019,-0.3094,-0.4501,-0.59,-0.7603,-0.9344,-1.0386,-1.0684,-1.0684,-1.0684,-1.0684,-1.0684,-1.0684,-1.0684,-1.0684,-1.0684,-1.0684,-1.0684,-1.0684,-1.0684,-1.0684,-1.0684,-1.0684,-1.0684,-1.0684,-1.0684,-1.0684,-1.0684,-1.0684,-1.0684,-1.0684,-1.0684,-1.0684,-1.0684,-1.0684,-1.0684,-1.0684,-1.0684,-1.0684,-1.0684,-1.0684,-1.0684,-1.0684,-1.0725,-1.0752,-1.0752,-1.0894,-1.0995,-1.1036,-1.128,-1.1409,-1.1457,-1.1565,-1.1584,-1.1584,-1.1584,-1.1558,0.0397,0.0404,0.0328,0.0074,0.0,0.0,0.0,0.0,0.0,0.0,0.0,0.0,0.0,0.0,0.0,0.0,0.0,0.0,0.0,0.0,0.0,0.0,0.0,0.0,0.0,0.0,0.0,0.0,0.0,0.0,0.0,0.0,0.0,0.0,0.0,0.0,0.0,0.0,0.0,0.0,0.0,0.0,0.0,-0.0337,-0.0505,-0.0539,-0.0909,-0.0875,-0.0505,-0.0505,-0.0337,-0.0067,-0.0404,-0.0774,-0.1212,-0.1918,-0.3094,-0.4501,-0.59,-0.8274,-1.0651,-1.0684,-1.0684,-1.0684,-1.0684,-1.0684,-1.0684,-1.0684,-1.0684,-1.0684,-1.0684,-1.0684,-1.0684,-1.0684,-1.0684,-1.0684,-1.0684,-1.0684,-1.0684,-1.0684,-1.0684,-1.0684,-1.0684,-1.0684,-1.0684,-1.0684,-1.0684,-1.0684,-1.0684,-1.0684,-1.0684,-1.0684,-1.0684,-1.0684,-1.0684,-1.0684,-1.0684,-1.0684,-1.0826,-1.0873,-1.0873,-1.1077,-1.1261,-1.1375,-1.1389,-1.1463,-1.1577,-1.1619,-1.1584,-1.1584,-1.1584,-1.1619,0.0138,0.0141,0.0114,0.0026,0.0,0.0,0.0,0.0,0.0,0.0,0.0,0.0,0.0,0.0,0.0,0.0,0.0,0.0,0.0,0.0,0.0,0.0,0.0,0.0,0.0,0.0,0.0,0.0,0.0,0.0,0.0,0.0,0.0,0.0,0.0,0.0,0.0,0.0,0.0,0.0,0.0,0.0,0.0,-0.0101,-0.0168,-0.0168,-0.0303,-0.0303,-0.0168,-0.0168,-0.0101,-0.0067,-0.0673,-0.0976,-0.1144,-0.1616,-0.2289,-0.3262,-0.56,-0.8302,-1.0684,-1.0684,-1.0684,-1.0684,-1.0684,-1.0684,-1.0684,-1.0684,-1.0684,-1.0684,-1.0684,-1.0684,-1.0684,-1.0684,-1.0684,-1.0684,-1.0684,-1.0684,-1.0684,-1.0684,-1.0684,-1.0684,-1.0684,-1.0684,-1.0684,-1.0684,-1.0684,-1.0684,-1.0684,-1.0684,-1.0684,-1.0684,-1.0684,-1.0684,-1.0684,-1.0684,-1.0684,-1.0684,-1.0833,-1.0914,-1.0914,-1.1185,-1.1341,-1.1389,-1.1491,-1.1529,-1.1584,-1.1584,-1.1584,-1.1584,-1.1584,-1.1584,0.0,0.0,0.0,0.0,0.0,0.0,0.0,0.0,0.0,0.0,0.0,0.0,0.0,0.0,0.0,0.0,0.0,0.0,0.0,0.0,0.0,0.0,0.0,0.0,0.0,0.0,0.0,0.0,0.0,0.0,0.0,0.0,0.0,0.0,0.0,0.0,0.0,0.0,0.0,0.0,0.0,0.0,0.0,0.0,0.0,0.0,0.0,0.0,0.0,0.0,0.0,-0.0067,-0.064,-0.0976,-0.1144,-0.1649,-0.2623,-0.3962,-0.5763,-0.8302,-1.0684,-1.0684,-1.0684,-1.0684,-1.0684,-1.0684,-1.0684,-1.0684,-1.0684,-1.0684,-1.0684,-1.0684,-1.0684,-1.0684,-1.0684,-1.0684,-1.0684,-1.0684,-1.0684,-1.0684,-1.0684,-1.0684,-1.0684,-1.0684,-1.0684,-1.0684,-1.0684,-1.0684,-1.0684,-1.0684,-1.0684,-1.0684,-1.0684,-1.0684,-1.0684,-1.0684,-1.0684,-1.0684,-1.088,-1.1023,-1.1023,-1.1314,-1.147,-1.147,-1.1565,-1.1584,-1.1584,-1.1584,-1.1584,-1.1584,-1.1584,-1.1584]},{"header":{"parameterUnit":"m.s-1","parameterCategory":1,"la1":30.6,"la2":29.2853,"lo1":-89.7004,"lo2":-87.6739,"dy":0.0162,"dx":0.0183,"nx":112,"ny":82,"refTime":"2024-09-20T06:00:00:Z","depth":0,"parameterNumber":3,"parameterNumberName":"V-component_of_WINDS"},"data":[0.0,0.0,0.0,0.0,0.0,0.0,0.0,0.0,0.0,0.0,0.0,0.0,0.0,0.0,0.0,0.0,0.0,0.0,0.0,0.0,0.0,0.0,0.0,0.0,0.0,0.0,0.0,0.0,0.0,0.0,0.0,0.0,0.0,0.0,0.0,0.0,0.0,0.0,0.0,0.0,0.0,0.0,0.0,0.0,0.0,0.0,0.0,0.0,0.0,0.0,0.0,0.0,0.0,0.0,0.0,0.0,0.0,0.0,0.0,0.0,0.0,0.0,0.0,0.0,0.0,0.0,0.0,0.0,0.0,0.0,0.0,0.0,0.0,0.0,0.0,0.0,0.0,0.0,0.0,0.0,0.0,0.0,0.0,0.0,0.0,0.0,0.0,0.0,0.0,0.0,3.0451,3.3997,3.7543,3.938,3.8667,3.8439,3.6396,3.1942,0.0,0.0,0.0,0.0,0.0,0.0,0.0,0.0,0.0,0.0,0.0,0.0,0.0,0.0,0.0,0.0,0.0,0.0,0.0,0.0,0.0,0.0,0.0,0.0,0.0,0.0,0.0,0.0,0.0,0.0,0.0,0.0,0.0,0.0,0.0,0.0,0.0,0.0,0.0,0.0,0.0,0.0,0.0,0.0,0.0,0.0,0.0,0.0,0.0,0.0,0.0,0.0,0.0,0.0,0.0,0.0,0.0,0.0,0.0,0.0,0.0,0.0,0.0,0.0,0.0,0.0,0.0,0.0,0.0,0.0,0.0,0.0,0.0,0.0,0.0,0.0,0.0,0.0,0.0,0.0,0.0,0.0,0.0,0.0,0.0,0.0,0.0,0.0,0.0,0.0,0.0,0.0,0.0,0.0,0.0,0.0,0.0,0.0,0.0,0.0,0.0,0.0,0.0,0.0,3.2023,3.7265,3.9203,4.0043,3.9924,3.8134,3.5797,3.2936,0.0,0.0,0.0,0.0,0.0,0.0,0.0,0.0,0.0,0.0,0.0,0.0,0.0,0.0,0.0,0.0,0.0,0.0,0.0,0.0,0.0,0.0,0.0,0.0,0.0,0.0,0.0,0.0,0.0,0.0,0.0,0.0,0.0,0.0,0.0,0.0,0.0,0.0,0.0,0.0,0.0,0.0,0.0,0.0,0.0,0.0,0.0,0.0,0.0,0.0,0.0,0.0,0.0,0.0,0.0,0.0,0.0,0.0,0.0,0.0,0.0,0.0,0.0,0.0,0.0,0.0,0.0,0.0,0.0,0.0,0.0,0.0,0.0,0.0,0.0,0.0,0.0,0.0,0.0,0.0,0.0,0.0,0.0,0.0,0.0,0.0,0.0,0.0,0.0,0.0,0.0,0.0,0.0,0.0,0.0,0.0,0.0,0.0,0.0,0.0,0.0,0.0,0.0,3.0539,3.3819,3.8138,3.9557,4.0205,4.0205,3.8488,3.6133,3.3195,2.8859,0.0,0.0,0.0,0.0,0.0,0.0,0.0,0.0,0.0,0.0,0.0,0.0,0.0,0.0,0.0,0.0,0.0,0.0,0.0,0.0,0.0,0.0,0.0,0.0,0.0,0.0,0.0,0.0,0.0,0.0,0.0,0.0,0.0,0.0,0.0,0.0,0.0,0.0,0.0,0.0,0.0,0.0,0.0,0.0,0.0,0.0,0.0,0.0,0.0,0.0,0.0,0.0,0.0,0.0,0.0,0.0,0.0,0.0,0.0,0.0,0.0,0.0,0.0,0.0,0.0,0.0,0.0,0.0,0.0,0.0,0.0,0.0,0.0,0.0,0.0,0.0,0.0,0.0,0.0,0.0,0.0,0.0,0.0,0.0,0.0,0.0,0.0,0.0,0.0,0.0,0.0,0.0,0.0,0.0,0.0,0.0,0.0,0.0,0.0,0.0,0.0,0.0,3.4156,3.5666,3.8737,3.98,4.0183,4.0001,3.8205,3.5745,3.2608,2.7413,0.0,0.0,0.0,0.0,0.0,0.0,0.0,0.0,0.0,0.0,0.0,0.0,0.0,0.0,0.0,0.0,0.0,0.0,0.0,0.0,0.0,0.0,0.0,0.0,0.0,0.0,0.0,0.0,0.0,0.0,0.0,0.0,0.0,0.0,0.0,0.0,0.0,0.0,0.0,0.0,0.0,0.0,0.0,0.0,0.0,0.0,0.0,0.0,0.0,0.0,0.0,0.0,0.0,0.0,0.0,0.0,0.0,0.0,0.0,0.0,0.0,0.0,0.0,0.0,0.0,0.0,0.0,0.0,0.0,0.0,0.0,0.0,0.0,0.0,0.0,0.0,0.0,0.0,0.0,0.0,0.0,0.0,0.0,0.0,0.0,0.0,0.0,0.0,0.0,0.0,0.0,0.0,0.0,0.0,0.0,0.0,0.0,0.0,0.0,0.0,0.0,0.0,3.5088,3.7487,4.0096,4.0414,4.0179,3.9415,3.635,3.3356,3.0734,2.5043,0.0,0.0,0.0,0.0,0.0,0.0,0.0,0.0,0.0,0.0,0.0,0.0,0.0,0.0,0.0,0.0,0.0,0.0,0.0,0.0,0.0,0.0,0.0,0.0,0.0,0.0,0.0,0.0,0.0,0.0,0.0,0.0,0.0,0.0,0.0,0.0,0.0,0.0,0.0,0.0,0.0,0.0,0.0,0.0,0.0,0.0,0.0,0.0,0.0,0.0,0.0,0.0,0.0,0.0,0.0,0.0,0.0,0.0,0.0,0.0,0.0,0.0,0.0,0.0,0.0,0.0,0.0,0.0,0.0,0.0,0.0,0.0,0.0,0.0,0.0,0.0,0.0,0.0,0.0,0.0,0.0,0.0,0.0,0.0,0.0,0.0,0.0,0.0,0.0,0.0,0.0,0.0,0.0,0.0,0.0,0.0,0.0,0.0,0.0,0.0,0.0,0.0,3.4651,3.7056,0.0,4.0449,4.0108,3.9311,3.7086,3.4211,3.0612,0.0,0.0,0.0,0.0,0.0,0.0,0.0,0.0,0.0,0.0,0.0,0.0,0.0,0.0,0.0,0.0,0.0,0.0,0.0,0.0,0.0,0.0,0.0,0.0,0.0,0.0,0.0,0.0,0.0,0.0,0.0,0.0,0.0,0.0,0.0,0.0,0.0,0.0,0.0,0.0,0.0,0.0,0.0,0.0,0.0,0.0,0.0,0.0,0.0,0.0,0.0,0.0,0.0,0.0,0.0,0.0,0.0,0.0,0.0,0.0,0.0,0.0,0.0,0.0,0.0,0.0,0.0,0.0,0.0,0.0,0.0,0.0,0.0,0.0,0.0,0.0,0.0,0.0,0.0,0.0,0.0,0.0,0.0,0.0,0.0,0.0,0.0,0.0,0.0,0.0,0.0,0.0,0.0,0.0,0.0,0.0,0.0,0.0,0.0,0.0,0.0,0.0,3.2083,3.4797,3.7241,0.0,4.0394,3.9947,3.888,3.6734,3.3792,2.9829,0.0,0.0,0.0,0.0,0.0,0.0,0.0,0.0,0.0,0.0,0.0,0.0,0.0,0.0,0.0,0.0,0.0,0.0,0.0,0.0,0.0,0.0,0.0,0.0,0.0,0.0,0.0,0.0,0.0,0.0,0.0,0.0,0.0,0.0,0.0,0.0,0.0,0.0,0.0,0.0,0.0,0.0,0.0,0.0,0.0,0.0,0.0,0.0,0.0,0.0,0.0,0.0,0.0,0.0,0.0,0.0,0.0,0.0,0.0,0.0,0.0,0.0,0.0,0.0,0.0,0.0,0.0,0.0,0.0,0.0,0.0,0.0,0.0,0.0,0.0,0.0,0.0,0.0,0.0,0.0,0.0,0.0,0.0,0.0,0.0,0.0,0.0,0.0,0.0,0.0,0.0,0.0,0.0,0.0,0.0,0.0,0.0,0.0,0.0,0.0,0.0,0.0,3.2168,3.5733,3.8482,4.0211,4.0329,3.9635,3.8026,3.4771,3.1373,0.0,0.0,0.0,0.0,0.0,0.0,0.0,0.0,0.0,0.0,0.0,0.0,0.0,0.0,0.0,0.0,0.0,0.0,0.0,0.0,0.0,0.0,0.0,0.0,0.0,0.0,0.0,0.0,0.0,0.0,0.0,0.0,0.0,0.0,0.0,0.0,0.0,0.0,0.0,0.0,0.0,0.0,0.0,0.0,0.0,0.0,0.0,0.0,0.0,0.0,0.0,0.0,0.0,0.0,0.0,0.0,0.0,0.0,0.0,0.0,0.0,0.0,0.0,0.0,0.0,0.0,0.0,0.0,0.0,0.0,0.0,0.0,0.0,0.0,0.0,0.0,0.0,0.0,0.0,0.0,0.0,0.0,0.0,0.0,0.0,0.0,0.0,0.0,0.0,0.0,0.0,0.0,0.0,0.0,0.0,0.0,0.0,0.0,0.0,0.0,0.0,0.0,0.0,3.213,3.5718,3.8457,4.0156,4.0295,3.9621,3.7985,3.5806,3.2638,2.8077,0.0,0.0,0.0,0.0,0.0,0.0,0.0,0.0,0.0,0.0,0.0,0.0,0.0,0.0,0.0,0.0,0.0,0.0,0.0,0.0,0.0,0.0,0.0,0.0,0.0,0.0,0.0,0.0,0.0,0.0,0.0,0.0,0.0,0.0,0.0,0.0,0.0,0.0,0.0,0.0,0.0,0.0,0.0,0.0,0.0,0.0,0.0,0.0,0.0,0.0,0.0,0.0,0.0,0.0,0.0,0.0,0.0,0.0,0.0,0.0,0.0,0.0,0.0,0.0,0.0,0.0,0.0,0.0,0.0,0.0,0.0,0.0,0.0,0.0,0.0,0.0,0.0,0.0,0.0,0.0,0.0,0.0,0.0,0.0,0.0,0.0,0.0,0.0,0.0,0.0,0.0,0.0,0.0,0.0,0.0,0.0,0.0,0.0,0.0,0.0,0.0,0.0,3.2128,3.5686,3.8431,4.0115,4.0306,3.9627,3.7904,3.6221,3.3249,2.8574,0.0,0.0,0.0,0.0,0.0,0.0,0.0,0.0,0.0,0.0,0.0,0.0,0.0,0.0,0.0,0.0,0.0,0.0,0.0,0.0,0.0,0.0,0.0,0.0,0.0,0.0,0.0,0.0,0.0,0.0,0.0,0.0,0.0,0.0,0.0,0.0,0.0,0.0,0.0,0.0,0.0,0.0,0.0,0.0,0.0,0.0,0.0,0.0,0.0,0.0,0.0,0.0,0.0,0.0,0.0,0.0,0.0,0.0,0.0,0.0,0.0,0.0,0.0,0.0,0.0,0.0,0.0,0.0,0.0,0.0,0.0,0.0,0.0,0.0,0.0,0.0,0.0,0.0,0.0,0.0,0.0,0.0,0.0,0.0,0.0,0.0,0.0,0.0,0.0,0.0,0.0,0.0,0.0,0.0,0.0,0.0,0.0,0.0,0.0,0.0,0.0,0.0,3.205,3.5645,3.8362,4.0115,4.0306,3.9618,3.7941,3.6298,3.3589,2.9486,0.0,0.0,0.0,0.0,0.0,0.0,0.0,0.0,0.0,0.0,0.0,0.0,0.0,0.0,0.0,0.0,0.0,0.0,0.0,0.0,0.0,0.0,0.0,0.0,0.0,0.0,0.0,0.0,0.0,0.0,0.0,0.0,0.0,0.0,0.0,0.0,0.0,0.0,0.0,0.0,0.0,0.0,0.0,0.0,0.0,0.0,0.0,0.0,0.0,0.0,0.0,0.0,0.0,0.0,0.0,0.0,0.0,0.0,0.0,0.0,2.9056,2.6441,0.0,0.0,0.0,0.0,0.0,0.0,0.0,0.0,0.0,0.0,0.0,0.0,0.0,0.0,0.0,0.0,0.0,0.0,0.0,0.0,0.0,0.0,0.0,0.0,0.0,0.0,0.0,0.0,0.0,0.0,0.0,0.0,0.0,0.0,0.0,0.0,0.0,0.0,0.0,0.0,3.2126,3.5645,3.8362,4.0115,4.0306,3.9885,3.882,3.7173,3.4728,3.1186,2.7802,0.0,0.0,0.0,0.0,0.0,0.0,0.0,0.0,0.0,0.0,0.0,0.0,0.0,0.0,0.0,0.0,0.0,0.0,0.0,0.0,0.0,0.0,0.0,0.0,0.0,0.0,0.0,0.0,0.0,0.0,0.0,0.0,0.0,0.0,0.0,0.0,0.0,0.0,0.0,0.0,0.0,0.0,0.0,0.0,0.0,0.0,0.0,0.0,0.0,0.0,0.0,0.0,0.0,0.0,0.0,0.0,0.0,0.0,0.0,3.3622,3.1358,0.0,0.0,0.0,0.0,0.0,0.0,0.0,0.0,0.0,0.0,0.0,0.0,0.0,0.0,0.0,0.0,0.0,0.0,0.0,0.0,0.0,0.0,0.0,0.0,0.0,0.0,0.0,0.0,0.0,0.0,0.0,0.0,0.0,0.0,0.0,0.0,0.0,0.0,0.0,0.0,3.2279,3.5989,3.882,4.0153,4.0306,3.9962,3.9083,3.7478,3.5415,3.286,2.991,0.0,0.0,0.0,0.0,0.0,0.0,0.0,0.0,0.0,0.0,0.0,0.0,0.0,0.0,0.0,0.0,0.0,0.0,0.0,0.0,0.0,0.0,0.0,0.0,0.0,0.0,0.0,0.0,0.0,0.0,0.0,0.0,0.0,0.0,0.0,0.0,0.0,0.0,0.0,0.0,0.0,0.0,0.0,0.0,0.0,0.0,0.0,0.0,0.0,0.0,0.0,0.0,0.0,3.9075,3.9664,4.0406,4.1104,4.1807,4.2241,3.8688,3.7361,3.7517,3.4476,0.0,0.0,0.0,0.0,0.0,0.0,0.0,0.0,0.0,0.0,0.0,0.0,0.0,0.0,0.0,0.0,0.0,0.0,0.0,0.0,0.0,0.0,3.504,3.5736,3.741,3.7293,3.1646,0.0,0.0,0.0,0.0,0.0,0.0,0.0,0.0,0.0,0.0,0.0,3.2729,3.651,3.9299,4.0134,4.021,3.9943,3.9223,3.7769,3.6251,3.4707,3.221,2.982,0.0,0.0,0.0,0.0,0.0,0.0,0.0,0.0,0.0,0.0,0.0,0.0,0.0,0.0,0.0,0.0,0.0,0.0,0.0,0.0,0.0,0.0,0.0,0.0,0.0,0.0,0.0,0.0,0.0,0.0,0.0,0.0,2.7651,2.8627,0.0,0.0,0.0,0.0,0.0,0.0,0.0,0.0,0.0,0.0,0.0,0.0,0.0,3.8089,3.901,4.2169,4.3798,4.3913,4.6142,4.7294,4.7478,4.7525,4.7645,4.775,4.7135,0.0,3.9388,3.8162,0.0,0.0,0.0,0.0,0.0,0.0,0.0,0.0,0.0,0.0,0.0,0.0,0.0,0.0,0.0,0.0,0.0,0.0,0.0,0.0,0.0,0.0,4.1079,4.1157,4.0882,4.0338,3.9403,3.5107,3.1035,2.9752,2.7155,2.4773,0.0,0.0,0.0,0.0,0.0,0.0,3.4211,3.7017,3.9033,3.9867,3.9943,3.9905,3.9792,3.8957,3.8049,3.7195,3.4636,3.2805,3.199,2.9056,0.0,0.0,0.0,0.0,0.0,0.0,0.0,0.0,0.0,0.0,0.0,0.0,0.0,0.0,0.0,0.0,0.0,0.0,0.0,0.0,0.0,0.0,0.0,0.0,0.0,0.0,0.0,0.0,0.0,2.7494,3.0383,3.03,3.1552,3.1591,0.0,0.0,0.0,0.0,0.0,0.0,0.0,0.0,0.0,4.1312,4.2721,4.4024,4.5289,4.732,4.8587,4.9056,5.0189,5.1046,5.1612,5.1593,5.1324,5.0913,5.0387,4.8408,4.5316,4.2533,3.9918,3.7509,0.0,0.0,0.0,0.0,3.5569,3.5905,3.8654,3.8997,3.8215,3.8208,0.0,0.0,0.0,0.0,0.0,0.0,0.0,3.6767,3.7698,4.005,4.2441,4.3371,4.3668,4.3521,4.2937,4.0336,3.7157,3.3917,3.2819,3.1047,2.6787,2.7221,0.0,0.0,0.0,3.3936,3.5381,3.7811,3.9521,3.9862,3.99,3.99,3.99,3.918,3.8557,3.8224,3.6661,3.5206,3.407,3.2107,2.9869,0.0,0.0,0.0,0.0,0.0,0.0,0.0,0.0,0.0,0.0,0.0,0.0,0.0,0.0,0.0,0.0,0.0,0.0,0.0,0.0,0.0,0.0,0.0,0.0,0.0,0.0,0.0,0.0,3.0537,3.2957,3.252,3.4549,3.4977,0.0,0.0,0.0,0.0,0.0,0.0,4.0215,4.1367,4.3419,4.6681,4.7971,4.9345,5.0748,5.1358,5.2033,5.2655,5.2655,5.3052,5.3786,5.3755,5.3397,5.2828,5.2149,5.1366,5.0242,4.6218,4.3661,4.2107,3.999,3.8619,3.8033,3.9514,3.9666,3.9616,4.2983,4.3205,4.1993,4.2222,4.082,3.8723,3.7037,0.0,0.0,0.0,0.0,3.9068,4.0536,4.2035,4.3458,4.4699,4.5461,4.5686,4.4875,4.4172,4.2329,3.7868,3.7563,3.64,3.1035,3.1931,0.0,3.0346,3.3814,3.683,3.7262,3.8968,4.0114,4.0114,3.9963,3.9817,3.9817,3.9282,3.8953,3.8948,3.8121,3.7038,3.567,3.4609,3.2731,2.993,0.0,0.0,0.0,0.0,0.0,0.0,0.0,0.0,0.0,0.0,0.0,0.0,0.0,0.0,0.0,0.0,0.0,0.0,0.0,0.0,0.0,0.0,0.0,0.0,0.0,0.0,0.0,0.0,0.0,3.6891,3.8474,0.0,0.0,0.0,0.0,3.8089,4.0503,4.3018,4.5589,4.7195,4.9227,5.1767,5.1967,5.2471,5.3305,5.3489,5.3578,5.3617,5.3617,5.3685,5.381,5.3617,5.3536,5.356,5.3451,5.2875,5.1837,4.8543,4.6677,4.5731,4.4794,4.3884,4.3225,4.4154,4.4443,4.4564,4.5538,4.5302,4.4717,4.5497,4.3476,4.091,4.1614,4.0137,0.0,0.0,4.1836,4.3303,4.4208,4.5097,4.5756,4.5834,4.5872,4.5908,4.5825,4.578,4.4819,4.1648,3.9675,3.8248,3.7162,0.0,3.6132,3.672,3.7635,3.8846,4.0353,4.0685,4.076,4.076,4.0052,3.9614,3.9614,3.957,3.9587,3.9667,3.8765,3.7971,3.7301,3.5785,3.4208,3.2638,2.9426,0.0,0.0,0.0,0.0,0.0,0.0,0.0,0.0,0.0,0.0,0.0,0.0,0.0,0.0,0.0,0.0,0.0,0.0,0.0,0.0,0.0,0.0,0.0,0.0,0.0,0.0,0.0,0.0,4.0497,4.2539,0.0,4.1033,4.2128,4.3272,4.413,4.6054,4.8054,5.0059,5.0694,5.1645,5.298,5.3604,5.3949,5.4014,5.4714,5.5057,5.5057,5.5138,5.5264,5.5429,5.533,5.5006,5.4518,5.4494,5.398,5.3094,5.1949,5.0234,4.8323,4.7451,4.6938,4.6705,4.7015,4.7162,4.7279,4.7553,4.7475,4.7201,4.6929,4.5647,4.4248,4.4541,4.3992,4.3402,4.3954,4.4566,4.5067,4.5407,4.5699,4.5854,4.5757,4.5673,4.5555,4.5266,4.5207,4.4826,4.3611,4.2649,4.1264,3.8775,3.9212,3.946,3.8205,3.9555,4.091,4.1485,4.1554,4.1554,4.1554,4.0854,4.0372,4.0372,3.989,3.9382,3.8817,3.8474,3.7735,3.6476,3.5861,3.4559,3.238,3.0858,2.8274,0.0,0.0,0.0,0.0,0.0,0.0,0.0,0.0,0.0,0.0,0.0,0.0,0.0,0.0,0.0,0.0,0.0,0.0,0.0,0.0,0.0,0.0,0.0,0.0,0.0,3.9245,4.2351,4.3508,4.5856,4.6843,4.5435,4.7072,4.8487,4.9033,5.0406,5.1773,5.3133,5.3243,5.3598,5.4332,5.4959,5.5186,5.489,5.5543,5.5841,5.5794,5.5891,5.5981,5.6141,5.6098,5.5765,5.518,5.518,5.4715,5.3906,5.3951,5.2733,5.0721,5.0044,4.9744,4.9705,4.9433,4.9207,4.8991,4.8716,4.8599,4.8444,4.7575,4.6912,4.6366,4.6066,4.598,4.5974,4.5902,4.5861,4.5792,4.5867,4.5824,4.5753,4.5661,4.5626,4.5483,4.5131,4.505,4.4977,4.4796,4.4431,4.3433,4.1118,4.1908,4.2287,4.0691,4.1812,4.283,4.283,4.2605,4.2424,4.2424,4.1454,4.0816,4.0816,3.9808,3.8907,3.8332,3.8037,3.7174,3.5522,3.5523,3.4511,3.2255,3.1327,2.9344,2.6167,0.0,0.0,0.0,0.0,0.0,0.0,0.0,0.0,0.0,0.0,0.0,0.0,0.0,0.0,0.0,0.0,0.0,0.0,0.0,0.0,0.0,0.0,0.0,4.0051,4.2159,4.4408,4.6043,4.8461,4.9683,4.8854,5.1031,5.2484,5.2484,5.3303,5.4113,5.4855,5.5031,5.5423,5.604,5.6266,5.6269,5.6062,5.6062,5.6003,5.5871,5.5876,5.588,5.5842,5.5719,5.5643,5.5605,5.5605,5.5133,5.4364,5.4492,5.3971,5.3061,5.2584,5.2397,5.2281,5.1507,5.0694,4.9807,4.8988,4.8677,4.8516,4.7669,4.7347,4.7186,4.6266,4.5947,4.5941,4.5945,4.5792,4.5657,4.5775,4.565,4.5565,4.5764,4.5796,4.5757,4.5543,4.5504,4.5446,4.5237,4.4801,4.4496,4.4496,4.4489,4.4482,4.4482,4.4482,0.0,4.4482,4.382,4.3339,4.3339,4.1874,4.0866,4.0854,3.932,3.8306,3.8257,3.7518,3.6321,3.4712,3.4844,3.4159,3.2508,3.0986,2.9728,2.8774,0.0,0.0,0.0,0.0,0.0,0.0,0.0,0.0,0.0,0.0,0.0,0.0,0.0,0.0,0.0,0.0,0.0,0.0,0.0,0.0,0.0,4.0739,4.3535,4.2664,4.5781,4.8585,4.9661,5.1489,5.255,5.2311,5.35,5.431,5.431,5.5673,5.6634,5.6837,5.7405,5.7797,5.7872,5.7843,5.7733,5.7532,5.7522,5.7564,5.7689,5.7789,5.7585,5.7098,5.7064,5.6699,5.6114,5.6114,5.5959,5.5765,5.5799,5.5622,5.5172,5.3652,5.2661,5.2089,5.1953,5.1454,5.0811,5.0515,5.0001,4.9413,4.9188,4.871,4.8118,4.7814,4.7301,4.6832,4.6795,4.6292,4.5764,4.5796,4.5775,4.5684,4.5606,4.5589,4.5539,4.5338,4.5293,4.5227,4.4948,4.482,4.472,4.472,4.4588,4.4482,4.4482,4.4482,4.4482,4.4482,4.4301,4.4151,4.4151,4.3372,4.251,4.1724,4.0323,3.8892,3.7529,3.6654,3.6093,3.5786,3.5808,3.5367,3.4391,3.3133,3.1816,0.0,0.0,0.0,0.0,0.0,0.0,0.0,0.0,0.0,0.0,0.0,0.0,0.0,0.0,0.0,0.0,0.0,0.0,0.0,0.0,0.0,0.0,4.4982,4.7507,4.7338,4.9441,5.1424,5.2647,5.3668,5.4391,5.4741,5.5595,5.6097,5.6097,5.7344,5.8062,5.8019,5.8521,5.8729,5.8612,5.8583,5.8499,5.831,5.8273,5.8317,5.8353,5.8414,5.8219,5.7839,5.7755,5.7404,5.6893,5.642,5.6231,5.6192,5.585,5.5769,5.5711,0.0,0.0,0.0,0.0,5.2023,5.1641,5.1221,5.0782,5.0271,4.9889,4.9413,4.8938,4.8512,4.8076,4.7685,4.7664,4.7225,4.6766,4.6868,4.6568,4.6202,4.6174,4.5896,4.5577,4.5386,4.5338,4.5209,4.4866,4.4794,0.0,4.4682,4.4599,4.4482,4.4482,4.4482,4.4482,4.4482,4.4482,4.4482,4.4482,4.3899,4.3215,4.2587,4.0859,0.0,0.0,0.0,3.6308,3.607,3.6075,0.0,0.0,0.0,0.0,0.0,3.606,0.0,0.0,3.4752,3.4915,0.0,0.0,0.0,0.0,0.0,0.0,0.0,0.0,0.0,0.0,0.0,0.0,0.0,0.0,0.0,0.0,4.9255,5.1777,5.2671,5.2866,5.343,5.4818,5.5084,5.5476,5.6372,5.7149,5.7658,5.7732,5.8506,5.8891,5.8792,5.8997,0.0,0.0,0.0,5.9013,5.8867,5.8802,5.8713,5.8603,5.8544,5.8484,5.838,5.8155,5.8004,5.7832,5.6816,5.6336,5.6298,5.554,5.5303,5.5415,5.507,5.4925,5.4714,5.3123,5.2463,5.2266,5.1492,0.0,0.0,5.0121,4.984,4.9678,4.8906,4.8624,4.8546,4.8546,4.8367,4.8167,4.8358,4.7707,4.7015,4.7202,4.6577,4.5884,4.5735,4.5582,4.5399,4.4971,4.4855,4.4801,4.4588,4.453,4.4482,4.4482,4.4482,4.4496,4.453,4.4503,4.451,4.4578,4.3952,0.0,4.3355,4.1243,3.9888,3.9746,3.8374,3.722,3.6506,3.6581,3.6919,3.7526,3.8318,3.9383,4.0816,4.1004,4.1448,4.2042,3.7624,3.718,0.0,0.0,0.0,0.0,0.0,0.0,0.0,0.0,0.0,0.0,0.0,0.0,0.0,0.0,0.0,4.7775,5.1009,5.3512,5.4403,5.5103,5.541,5.5048,5.5631,5.6372,5.7266,5.7502,5.7887,5.8506,5.936,5.9859,5.9799,6.0512,6.0847,6.0798,6.0713,6.0638,6.0534,6.0431,6.0409,6.0475,6.0465,0.0,5.9667,5.9593,5.9184,5.8508,5.806,5.7879,5.7829,5.7417,5.6907,5.624,5.5104,5.4789,5.4787,5.3744,5.2933,5.2309,5.2112,5.1597,5.097,5.0735,5.0681,5.0643,5.0476,4.9974,0.0,4.9436,4.891,4.8354,4.8384,4.8253,4.8083,4.8152,4.7467,4.6841,4.6808,4.6224,4.5665,4.5408,4.522,4.5121,4.5077,4.4758,4.4482,4.4482,4.4482,4.4572,4.4726,4.4595,4.4666,4.5026,4.4919,4.4465,4.3621,4.2661,4.1667,4.0622,4.041,4.0256,4.0104,4.071,4.0823,4.0331,4.0954,4.1103,4.0816,4.2168,4.2881,4.3031,4.2055,4.1949,0.0,0.0,0.0,0.0,0.0,0.0,0.0,0.0,0.0,0.0,0.0,4.2251,4.4421,0.0,4.9345,5.1467,5.3237,5.4815,5.6139,5.6683,5.6644,5.5747,5.6411,5.711,5.758,5.8354,5.9014,5.9438,6.0254,6.0748,6.0692,6.1115,6.1329,6.1291,6.1229,6.1182,6.1159,6.1056,6.1041,6.1118,6.1051,6.0886,6.0562,6.0427,6.0109,5.9659,5.8799,5.847,5.8425,5.7927,5.7277,5.6524,5.6112,5.5618,5.5017,5.4284,5.3731,5.3314,5.3011,5.233,5.1595,5.1571,5.125,5.0898,5.0898,5.0631,5.0283,5.0283,4.9974,4.9664,4.9664,4.9355,4.9049,4.9049,4.8392,4.7734,4.7734,4.708,4.6375,4.6206,4.5621,4.5201,4.5201,4.4898,4.4667,4.4667,4.4541,4.4554,4.4757,4.4628,4.4621,4.4948,4.491,4.4631,4.4083,4.3408,4.2545,4.1467,4.1494,4.1562,4.1562,4.236,4.263,4.2209,4.2903,4.3062,4.2649,4.3475,4.3895,4.3895,4.4308,4.4308,0.0,0.0,0.0,0.0,0.0,0.0,0.0,0.0,4.0762,4.3483,4.5225,4.7131,4.9897,5.1247,5.2675,5.4893,5.5398,5.6058,5.7615,5.7696,5.7344,5.6644,5.7305,5.7887,5.8082,5.9325,6.0176,6.0321,6.0978,6.1348,6.131,6.131,6.1291,6.1289,6.1285,6.1281,6.1272,6.1195,6.1173,6.1173,6.1137,6.1118,6.107,6.086,6.0778,6.0712,5.9533,5.8988,5.8866,5.821,5.7574,5.7002,5.7109,5.6472,5.5473,5.4904,5.4598,5.4424,5.3924,5.3192,5.2457,5.2457,5.1873,5.1134,5.1134,5.1018,5.0898,5.0898,5.0898,5.0898,5.0898,5.0438,4.9935,4.9935,4.9281,4.8662,4.8662,4.7966,4.7237,4.6908,4.6143,4.5475,4.5323,4.5055,4.4855,4.4866,4.4726,4.4719,4.4896,4.4688,4.4641,4.4872,4.4656,4.453,4.453,4.3881,4.3178,4.249,4.2452,4.2452,4.2452,4.3141,4.3485,4.3485,4.4147,4.4447,4.4447,4.4634,4.4709,4.4702,4.5534,4.5481,3.3981,3.4958,3.6416,3.8671,3.8789,4.0113,0.0,0.0,4.6179,4.9534,5.0911,5.1683,5.2033,5.3462,5.4932,5.5981,5.68,5.7615,5.8545,5.8043,5.758,5.7463,5.8156,5.8972,5.9752,5.9985,6.0395,6.1097,6.1248,6.131,6.131,6.1306,6.1285,6.1195,6.1195,6.1173,6.1132,6.1127,6.1123,6.1123,6.1118,6.1118,6.1113,6.1056,6.1046,6.1032,6.0629,6.0291,5.9939,5.9192,5.8792,5.8563,5.713,5.6518,5.6307,5.5967,5.5367,5.4753,5.4693,5.4078,5.3347,5.3347,5.2767,5.2032,5.2032,5.1525,5.0898,5.0898,5.0898,5.0898,5.0898,5.0821,5.0782,5.0782,5.0167,4.9548,4.9548,4.8856,4.8001,4.7213,4.6844,4.6424,4.5843,4.5357,4.5105,4.5159,4.5143,4.5191,4.54,4.5004,4.4831,4.5197,4.4834,4.4603,4.4603,4.4341,4.4154,4.4041,4.4041,4.4041,4.4041,4.4154,4.4191,4.4191,4.4266,4.4303,4.4303,4.5043,4.538,4.5417,4.6195,4.6233,3.9986,4.0892,4.1678,0.0,4.51,4.6773,4.9979,5.0244,5.0508,5.2984,5.3702,5.4077,5.4582,5.5281,5.6019,0.0,5.7344,5.7887,5.87,5.8506,5.8121,5.7658,5.8311,5.8933,5.9322,5.9806,6.0444,6.1244,6.1299,6.1267,6.126,6.1255,6.1195,6.1146,6.1146,6.1137,6.1118,6.1118,6.1118,6.1118,6.1118,6.1118,6.1118,6.1118,6.1012,6.085,6.075,6.052,6.0193,6.0067,5.967,5.9183,5.8682,5.7851,5.6883,5.6053,5.5567,5.5278,5.5431,5.4967,5.4271,5.4271,5.3656,5.2844,5.2341,5.1954,5.1563,5.1057,5.0898,5.0898,5.0898,5.0898,5.0898,5.0898,5.0631,5.0399,5.0399,4.9742,4.9049,4.8662,4.8009,4.7464,4.7287,4.6952,4.6615,4.6296,4.5617,4.517,4.5201,4.491,4.4688,4.4701,4.453,4.4423,4.4423,4.4347,4.4318,4.4318,4.4318,4.4318,4.4318,4.4318,4.4318,4.4318,4.4318,4.4535,4.4984,4.535,4.5723,4.6209,4.706,4.7324,4.3594,4.4882,0.0,4.7689,4.9872,5.1752,5.2225,5.2758,5.3607,5.5137,5.5386,5.5476,5.5864,5.6136,5.6528,5.7149,5.7615,5.8121,5.8739,5.8622,5.8234,5.7658,5.769,5.7916,5.8414,5.9435,6.0422,6.1229,6.1267,6.126,6.1168,6.1168,6.115,6.1118,6.1118,6.1118,6.1118,6.1118,6.1118,6.1118,6.1118,6.1118,6.1118,6.1118,6.0997,6.0806,6.0806,6.0666,6.0469,6.0695,6.0459,5.9854,5.9901,5.9145,5.7851,5.6546,5.5912,5.574,5.5921,5.5621,5.5122,5.5122,5.4542,5.3734,5.3115,5.2573,5.207,5.1447,5.1095,5.0898,5.0898,5.0898,5.0898,5.0898,5.0898,5.0898,5.0898,5.043,4.9958,4.9726,4.8977,4.8397,4.829,4.8127,4.7813,4.7409,4.6532,4.5753,4.5272,4.491,4.4621,4.4376,4.4266,4.4207,4.4207,4.4207,4.4207,4.4207,4.4207,4.4207,4.4207,4.4207,4.4319,4.458,4.458,4.4953,4.5766,4.599,4.64,4.6989,4.7847,4.8257,0.0,0.0,4.781,4.9425,5.1206,5.2984,5.4527,5.4899,5.5168,5.6065,5.6256,5.6019,5.5204,5.5747,5.6295,5.6333,5.769,5.8774,5.8813,5.8121,5.7619,5.7619,5.6136,5.5735,5.7374,5.911,6.0449,6.1228,6.1255,6.1168,6.1123,6.1118,6.1118,6.1118,6.1118,6.1118,6.1118,6.1118,6.1118,6.1118,6.1118,6.1118,6.1118,6.1118,6.1113,6.1109,6.1109,6.1065,6.106,6.1065,6.107,6.0954,6.019,5.9885,5.9609,5.7898,5.6695,5.5999,5.6008,5.5969,5.5969,5.5969,5.5432,5.4774,5.4735,5.354,5.2186,5.2186,5.1563,5.0898,5.0898,5.0898,5.0898,5.0898,5.0898,5.0898,5.0898,5.087,5.0614,4.9764,4.9525,4.9217,4.8411,4.8257,4.8188,4.8154,4.8071,4.7437,4.5873,4.5169,4.4688,4.4418,4.4147,4.3994,4.3994,4.3994,4.3994,4.3994,4.3994,4.3994,4.3994,4.3994,4.4403,4.5265,4.5265,4.5666,4.6484,4.7264,4.7635,4.7673,4.849,4.8862,4.6033,0.0,5.0402,5.2077,5.3355,5.4502,5.5597,5.585,5.5773,5.5543,5.4994,5.4313,5.3455,5.3494,5.4077,5.5242,5.6874,5.8004,5.8004,5.8742,5.8431,5.6136,5.6835,5.7288,5.671,5.7648,5.8894,6.0287,6.0355,6.0556,6.1079,6.1118,6.1118,6.1118,6.1118,6.1118,6.1118,6.1118,6.1118,6.1118,6.1118,6.1118,6.1118,6.1118,6.1118,6.1118,6.1118,6.1118,6.1118,6.1118,6.1118,6.1079,6.0809,6.0383,5.9841,5.9223,5.8488,5.7559,5.6394,5.6008,5.6008,5.6008,5.5814,5.5505,5.4967,5.4387,5.3807,5.3231,5.2418,5.1757,5.1757,5.1327,5.0898,5.0898,5.0921,5.0901,5.0901,5.0868,5.0765,5.0456,5.0336,5.0218,4.9949,4.9874,4.9653,4.9071,4.8331,4.766,4.7101,4.6214,4.5615,4.5527,4.4925,4.4519,4.4519,4.4519,4.4519,4.4519,4.4859,4.505,4.505,4.5443,4.5807,4.6112,4.6104,4.6475,4.7293,4.7553,4.7961,4.8519,4.8779,4.889,4.8741,5.0647,5.2227,5.4216,5.5063,5.5594,5.6171,5.6041,5.5617,5.4765,5.3633,5.2526,5.1671,5.1516,5.2057,5.3805,5.579,5.7227,5.758,5.8781,5.8817,5.6638,5.7521,5.8005,0.0,0.0,0.0,5.9796,6.0178,6.0538,6.1079,6.1118,6.1118,6.1118,6.1118,6.1118,6.1118,6.1118,6.1118,6.1118,6.1118,6.1118,6.1118,6.1118,6.1118,6.1118,6.1118,6.1118,6.1118,6.1118,6.1118,6.1118,6.1118,6.077,6.0306,5.9996,5.9537,5.884,5.7052,5.6472,5.6394,5.6085,5.6008,5.5892,5.5393,5.5045,5.4697,5.4116,5.3347,5.2651,5.2651,5.226,5.183,5.183,5.1566,5.1344,5.1344,5.1027,5.0751,5.0751,5.071,5.0712,5.0712,5.0688,5.0515,4.9938,4.9248,4.8546,4.7928,4.7159,4.6666,4.6666,4.6087,4.5684,4.5684,4.5684,4.5684,4.5684,4.601,4.6163,4.608,4.6442,4.6717,4.6929,4.6921,4.733,4.8147,4.8147,4.8407,4.889,4.889,4.889,5.0644,5.1994,5.3262,5.5716,5.6311,5.6278,5.6206,5.5514,5.466,5.3575,5.2057,5.0658,4.969,0.0,5.0234,5.194,5.4504,5.6605,5.7463,5.835,5.8891,0.0,0.0,0.0,0.0,0.0,0.0,5.9831,6.0599,6.1079,6.1118,6.1118,6.1118,6.1118,6.1118,6.1118,6.1118,6.1118,6.1118,6.1118,6.1118,6.1118,6.1118,6.1118,6.1118,6.1118,6.1118,6.1118,6.1118,6.1118,6.1118,6.1118,6.1118,6.1118,6.1002,6.0228,5.9962,5.9725,5.8019,5.7361,5.7168,5.6356,5.6046,5.6008,5.6008,5.547,5.4851,5.4851,5.4233,5.3575,5.3575,5.3536,5.3498,5.3493,5.2799,5.2146,5.2146,5.142,5.0774,5.0774,5.0736,5.0707,5.0707,5.0707,5.0707,5.0707,5.0707,5.0091,4.8432,4.7954,4.7789,4.7789,4.7518,4.7346,4.7346,4.7346,4.7346,4.7346,4.7372,4.7268,4.6988,4.6996,4.7273,4.7747,4.7776,4.8147,4.889,4.889,4.889,4.889,4.889,4.889,5.2698,5.4288,5.5559,5.6141,5.6311,5.5946,5.4672,5.4197,5.307,4.9648,4.8094,4.6698,4.4562,4.5727,0.0,4.9299,5.3378,0.0,5.7463,5.9399,0.0,5.893,0.0,5.9906,5.882,5.9822,0.0,5.9942,6.0083,6.046,6.1079,6.1118,6.1118,6.1118,6.1118,6.1118,6.1118,6.1118,6.1118,6.1118,6.1118,6.1118,6.1118,6.1118,6.1118,6.1118,6.1118,6.1118,6.1118,6.1118,6.1118,6.1118,6.1118,6.1118,6.1079,6.0886,6.0809,6.0654,5.9609,5.8406,5.7245,5.7052,5.6549,5.6008,5.6008,5.5853,5.5698,5.5698,5.5084,5.4456,5.4422,5.3911,5.34,5.336,5.3161,5.2974,5.2974,5.2266,5.1602,5.1602,5.1097,5.0707,5.0707,5.0707,5.0707,5.0707,5.0707,5.0553,5.0091,4.9389,4.8976,4.8976,4.8311,4.7898,4.7898,4.7898,4.7898,4.7898,4.8302,4.8427,4.8098,4.852,4.8688,4.8602,4.8593,4.8704,4.889,4.889,4.889,4.889,4.889,4.889,5.4078,5.5381,5.6358,5.6308,5.5997,5.5165,5.3067,5.2021,5.0234,4.5958,4.4365,0.0,4.0912,4.2619,0.0,0.0,0.0,0.0,5.7849,6.0007,6.1002,0.0,6.0717,0.0,5.9873,6.0601,6.0952,6.0465,6.0422,6.0615,6.1079,6.1118,6.1118,6.1118,6.1118,6.1118,6.1118,6.1118,6.1118,6.1118,6.1118,6.1118,6.1118,6.1118,6.1118,6.1118,6.1118,6.1118,6.1118,6.1118,6.1118,6.1118,6.1118,6.1118,6.1118,6.1118,6.1118,6.1041,6.0576,5.9571,5.829,5.7555,5.6975,5.651,5.6124,5.5995,5.6016,5.6016,5.5654,5.5284,5.5252,5.4862,5.4505,5.4438,5.4126,5.3827,5.3827,5.3123,5.2351,5.1962,5.1543,5.1125,5.0745,5.0707,5.0707,5.0707,5.0707,5.0707,5.0707,5.0284,4.9976,4.9976,4.951,4.924,4.924,4.924,4.9163,4.9025,4.9351,4.934,4.8921,4.9236,4.9249,4.889,4.889,4.889,4.889,4.889,4.889,4.8927,4.9262,4.9439,5.5053,5.5795,5.6306,5.6158,5.5488,5.4116,5.1316,4.9337,4.6854,4.2425,0.0,3.9742,3.8151,4.0055,4.3008,4.6538,0.0,5.4779,5.8311,6.0141,6.1167,6.1287,6.1246,6.1186,6.1195,6.1146,6.1118,6.1118,6.1118,6.1118,6.1118,6.1118,6.1118,6.1118,6.1118,6.1118,6.1118,6.1118,6.1118,6.1118,6.1118,6.1118,6.1118,6.1118,6.1118,6.1118,6.1118,6.1118,6.1118,6.1118,6.1118,6.1118,6.1118,6.1118,6.1118,6.1118,6.1118,6.1118,6.1118,6.0654,5.9803,5.8174,5.7473,5.7159,5.6386,5.6084,5.6005,5.6005,5.5933,5.5895,5.589,5.589,5.5885,5.588,5.5229,5.4659,5.4659,5.3969,5.3121,5.2236,5.2077,5.1851,5.1169,5.1015,5.1015,5.1015,5.1015,5.1015,5.1015,5.0822,5.0707,5.0707,5.0707,5.0707,5.0707,5.0707,5.0589,5.0264,5.0252,5.0038,4.9521,4.9454,4.9321,4.8968,4.9019,4.9076,4.9076,4.9187,4.9224,4.9262,4.9968,5.0256,5.6055,5.6313,5.6227,5.5491,5.4624,5.2876,4.8907,4.6657,0.0,0.0,3.7292,3.6399,3.5354,3.7877,4.1451,4.5572,0.0,0.0,0.0,0.0,6.0592,0.0,0.0,0.0,6.1285,6.1168,0.0,6.1118,6.1118,6.1118,6.1118,6.1118,6.1118,6.1118,6.1118,6.1118,6.1118,6.1118,6.1118,6.1118,6.1118,6.1118,6.1118,6.1118,6.1118,6.1118,6.1118,6.1118,6.1118,6.1118,6.1118,6.1118,6.1118,6.1118,6.1118,6.1118,6.1118,6.1118,6.1118,6.1002,6.0731,5.9764,5.8426,5.7196,5.7041,5.6497,5.5909,5.5909,5.5905,5.589,5.5812,5.5807,5.5792,5.5745,5.5614,5.5488,5.5488,5.4867,5.401,5.3121,5.2967,5.2928,5.2779,5.2779,5.2779,5.2779,5.2779,5.2779,5.2779,5.1553,5.0707,5.0707,5.0707,5.0707,5.0707,5.0707,5.0692,5.0614,5.0614,5.0456,5.0081,4.9857,4.9586,4.9329,4.9706,4.9884,4.9884,5.0636,5.0971,5.0971,5.1119,5.1156,5.6288,5.6437,5.6203,5.5319,5.4056,5.1788,4.7084,0.0,0.0,0.0,3.4808,3.4109,3.2751,0.0,0.0,4.2813,0.0,0.0,0.0,0.0,0.0,0.0,0.0,0.0,0.0,6.1146,6.1118,6.1118,6.1118,6.1118,6.1118,6.1118,6.1118,6.1118,6.1118,6.1118,6.1118,6.1118,6.1118,6.1118,6.1118,6.1118,6.1118,6.1118,6.1118,6.1118,6.1118,6.1118,6.1118,6.1118,6.1118,6.1118,6.1118,6.1118,6.1118,6.1118,6.1118,6.1118,6.1118,6.1118,6.1041,6.0654,5.9634,5.8456,5.7528,5.695,5.6483,5.6054,5.5919,5.5885,5.5807,5.5792,5.5776,5.5719,5.5708,5.5708,5.5708,5.5401,5.4895,5.4049,5.3895,5.3741,5.3274,5.3197,5.3197,5.3197,5.3197,5.3197,5.3197,5.251,5.1818,5.1356,5.1741,5.1818,5.1356,5.1741,5.1926,5.1815,5.1809,5.1562,5.1047,5.0935,5.074,5.0451,5.0651,5.0785,5.0785,5.1193,5.1416,5.1416,5.1825,5.2011,5.6285,5.6482,5.6182,5.5127,5.3483,5.0817,4.5687,4.2364,0.0,0.0,3.2982,3.2438,3.143,0.0,3.7605,0.0,4.444,0.0,0.0,0.0,0.0,0.0,0.0,0.0,6.1132,6.1123,0.0,6.1118,6.1118,6.1118,6.1118,6.1118,6.1118,6.1118,6.1118,6.1118,6.1118,6.1118,6.1118,6.1118,6.1118,6.1118,6.1118,6.1118,6.1118,6.1118,6.1118,6.1118,6.1118,6.1118,6.1118,6.1118,6.1118,6.1118,6.1118,6.1118,6.1118,6.1118,6.1118,6.1118,6.1118,6.1118,6.0533,5.9634,5.8237,5.766,5.7265,5.6449,5.6179,5.6092,5.5825,5.5776,5.5761,5.5719,5.5708,5.5708,5.5708,5.5708,5.5516,5.4895,5.4741,5.4549,5.3857,5.3741,5.3741,5.3741,5.3741,5.3741,5.3741,5.3741,5.339,5.2544,5.289,5.2928,5.2236,5.2813,5.3091,5.2918,5.2906,5.2616,5.2024,5.1985,5.1815,5.1505,5.1601,5.1676,5.1676,5.1825,5.1899,5.1936,5.2568,5.2865,5.6376,5.6556,5.6093,5.4413,5.266,4.9995,4.4856,0.0,0.0,3.4031,3.2052,3.1352,3.2788,3.3994,3.6597,0.0,0.0,4.7395,0.0,0.0,0.0,0.0,0.0,0.0,6.1177,6.1141,6.1118,6.1118,6.1118,6.1118,6.1118,6.1118,6.1118,6.1118,6.1118,6.1118,6.1118,6.1118,6.1118,6.1118,6.1118,6.1118,6.1118,6.1118,6.1118,6.1118,6.1118,6.1118,6.1118,6.1118,6.1118,6.1118,6.1118,6.1118,6.1118,6.1118,6.1118,6.1118,6.1118,6.1118,6.1118,6.1118,6.051,5.9775,5.9621,5.8939,5.8047,5.7233,5.6965,5.6725,5.5911,5.5714,5.5714,5.5708,5.5708,5.5708,5.5708,5.5708,5.567,5.5593,5.5593,5.5555,5.5478,5.5478,5.5478,5.5478,5.5478,5.5478,5.5478,5.5478,5.5164,5.4357,5.3626,5.3159,5.3082,5.3159,5.3192,5.3172,5.3172,5.3015,5.2616,5.241,5.2115,5.1782,5.2249,5.2494,5.2494,5.3227,5.3562,5.3562,5.3683,5.3683,5.5318,5.6163,5.6094,5.4336,5.2552,4.9852,4.4751,0.0,3.7413,3.3992,3.1896,3.1081,3.2281,3.3215,3.5238,0.0,0.0,0.0,5.0246,0.0,0.0,0.0,0.0,0.0,0.0,0.0,6.2085,6.2631,6.267,6.2433,6.1926,6.1389,6.1118,6.1118,6.1118,6.1118,6.1118,6.1118,6.1118,6.1118,6.1118,6.1118,6.1118,6.1118,6.1118,6.1118,6.1118,6.1118,6.1118,6.1118,6.1118,6.1118,6.1118,6.1118,6.1118,6.1118,6.1118,6.1118,6.1118,6.106,6.1036,6.1036,6.0804,6.0416,5.9954,5.9485,5.896,5.8107,5.7474,5.6986,5.6647,5.6115,5.5708,5.5708,5.5708,5.5708,5.5708,5.5708,5.5708,5.5708,5.5708,5.5708,5.5708,5.5708,5.5708,5.5708,5.5708,5.5708,5.5708,5.5708,5.5593,5.5247,5.4895,5.4511,5.401,5.4434,5.4703,5.4703,5.4703,5.4494,5.3968,5.3841,5.3571,5.3011,5.3191,5.3311,5.3311,5.3636,5.3784,5.3784,5.3784,5.3784,5.3835,5.5142,5.5348,5.359,5.1828,4.9202,0.0,4.0518,3.7174,3.4272,3.2283,3.1428,3.2514,3.3254,3.4769,3.8229,3.9509,4.2061,4.778,0.0,0.0,0.0,0.0,5.9181,6.1427,6.2356,6.3052,6.3637,6.3715,6.3328,6.2467,6.181,6.1389,6.1118,6.1118,6.1118,6.1118,6.1118,6.1118,6.1118,6.1118,6.1118,6.1118,6.1118,6.1118,6.1118,6.1118,6.1118,6.1118,6.1118,6.1118,6.1118,6.1118,6.1118,6.1113,6.106,6.1056,6.1056,6.1075,6.1046,6.1016,6.1016,6.098,6.086,6.0285,6.0077,5.9886,5.8999,5.814,5.7382,5.7158,5.6582,5.6016,5.5747,5.5708,5.5708,5.5708,5.5708,5.5708,5.5708,5.5708,5.5708,5.5708,5.5708,5.5708,5.5708,5.5708,5.5708,5.5708,5.5708,5.5708,5.5708,5.5708,5.5478,5.4895,5.5362,5.5708,5.5708,5.5708,5.5449,5.4821,5.4799,5.4487,5.3804,5.3784,5.3784,5.3784,5.3784,5.3933,5.4156,5.4156,5.4304,5.2,5.3367,5.36,5.1843,5.0108,4.7695,0.0,3.9608,3.6618,3.4868,3.3138,3.2514,3.4189,3.4461,3.5626,3.9118,4.0361,0.0,4.7851,0.0,0.0,0.0,0.0,5.798,5.9764,6.2206,6.3676,6.3715,6.3715,6.3328,6.2467,6.239,6.2003,6.1118,6.1118,6.1118,6.1118,6.1118,6.1118,6.1118,6.1118,6.1118,6.1118,6.1118,6.1118,6.1118,6.1118,6.1118,6.1118,6.1118,6.1118,6.1118,6.1118,6.1118,6.107,6.1022,6.1007,6.0997,6.1013,6.0992,6.0992,6.0992,6.0955,6.0911,6.0872,6.0872,6.0718,5.9826,5.8979,5.8088,5.7209,5.6983,5.6786,5.5901,5.5708,5.5708,5.5708,5.5708,5.5708,5.5708,5.5708,5.5708,5.5708,5.5708,5.5708,5.5708,5.5708,5.5708,5.5708,5.5708,5.5708,5.5708,5.5708,5.5708,5.5708,5.5708,5.5708,5.5708,5.5708,5.5449,5.4821,5.4799,5.4487,5.3804,5.3784,5.3784,5.3784,5.3784,5.4193,5.4973,5.4973,5.5456,4.6145,4.7628,4.833,4.6574,4.5267,4.375,4.1171,3.8372,3.5964,3.4814,3.3214,3.2514,3.4189,3.4499,3.6015,4.0677,4.1609,4.3376,0.0,0.0,0.0,5.4571,5.8883,6.1896,0.0,6.4256,6.5417,6.5417,6.4914,6.4217,6.3328,6.2704,6.2003,6.1118,6.1118,6.1118,6.1118,6.1118,6.1118,6.1118,6.1118,6.1118,6.1118,6.1118,6.1118,6.1118,6.1118,6.1118,6.1118,6.1118,6.1118,6.1118,6.1118,6.1056,6.1027,6.1012,6.1016,6.1018,6.0997,6.0965,6.0938,6.0938,6.09,6.081,6.081,6.081,6.0656,5.9771,5.9331,5.8934,5.8088,5.7896,5.7665,5.6786,5.6593,5.6439,5.5824,5.5708,5.5708,5.5708,5.5708,5.5708,5.5708,5.5708,5.5708,5.5708,5.5708,5.5708,5.5708,5.5708,5.5708,5.5708,5.5708,5.5708,5.5708,5.5708,5.5708,5.5708,5.5708,5.5449,5.4821,5.4799,5.4487,5.3804,5.4605,5.5048,5.5048,5.5563,5.5865,5.5874,5.5874,5.631,0.0,4.3489,4.4504,4.306,4.2059,4.0974,3.9218,3.6828,3.4806,3.4243,3.3242,3.2897,3.427,3.4814,3.6285,4.014,4.1289,4.3166,0.0,0.0,0.0,5.5436,0.0,0.0,6.3134,6.4759,6.576,6.576,6.5262,6.4488,6.3289,6.2704,6.2003,6.1118,6.1118,6.1118,6.1118,6.1118,6.1118,6.1118,6.1118,6.1118,6.1118,6.1118,6.1118,6.1118,6.1118,6.1118,0.0,6.1118,6.1118,6.1113,6.1056,6.1032,6.0997,6.0957,6.0953,6.096,6.0938,6.0905,6.0877,6.0877,6.0816,6.0787,6.0787,6.0787,6.071,6.0127,5.9973,5.9781,5.8973,5.8736,5.855,5.7709,5.7478,5.7247,5.6362,5.6209,5.6093,5.5747,5.5708,5.5708,5.5708,5.5708,5.5708,5.5708,5.5708,5.5708,5.5708,5.5708,5.5824,5.617,5.6209,5.6324,5.6665,5.6088,5.5708,5.5708,5.5708,5.5491,5.5002,5.5285,5.5201,5.4634,5.5701,5.6233,5.6233,5.6909,5.7154,5.6928,5.7134,5.7472,0.0,4.0443,4.1536,4.0679,3.9859,3.885,3.7264,3.5039,0.0,3.3304,3.3299,3.3639,3.468,3.5494,3.6648,3.871,4.034,4.279,0.0,4.9815,0.0,0.0,5.9068,0.0,6.2351,6.3942,6.4914,6.4991,6.4875,6.4097,6.2506,6.2351,6.1926,6.1118,6.1118,6.1118,6.1118,6.1118,6.1118,6.1118,6.1118,6.1118,6.1118,6.1118,6.1118,6.1118,6.1118,6.1118,6.1118,6.1118,6.1113,6.1109,6.1022,6.1002,6.0982,6.0911,6.0905,6.0894,6.0804,6.0787,6.0787,6.0787,6.0787,6.0787,6.0787,6.0787,6.0787,6.0787,6.0787,6.0594,5.9819,5.9588,5.9396,5.8583,5.8396,5.8165,5.7286,5.7093,5.6863,5.6055,5.5901,5.5901,5.5901,5.5901,5.5901,5.5901,5.5901,5.5901,5.5901,5.5901,5.6209,5.7016,5.7093,5.744,5.8242,5.6819,5.5901,5.5901,5.5901,5.5758,5.5505,5.6212,5.6421,5.6118,5.6983,5.7461,5.7499,5.7947,5.8152,5.8089,5.8512,5.8719,3.2636,0.0,3.5329,3.4433,3.4042,3.3965,0.0,3.3317,3.2578,3.3241,0.0,3.4145,3.6973,3.7127,3.8668,4.43,4.554,4.7057,5.06,0.0,0.0,5.988,6.1152,6.224,6.3289,6.3753,6.4295,6.4952,6.3748,6.2815,6.2428,6.1771,6.1311,6.1118,6.1118,6.1118,6.1118,6.1118,6.1118,6.1118,6.1118,6.1118,6.1118,6.1118,6.1118,6.1118,6.1118,6.1118,6.1118,6.1118,6.1056,6.1022,6.1007,6.0951,6.0911,6.0922,6.0883,6.0804,6.0831,6.0787,6.0787,6.0787,6.0787,6.0787,6.0787,6.0787,6.0787,6.0787,6.0787,6.0748,6.055,6.0473,6.0281,5.9435,5.9204,5.8973,5.8165,5.7973,5.7934,5.7742,5.7703,5.7703,5.7703,5.7703,5.7703,5.7703,5.7703,5.7703,5.7703,5.7703,5.778,5.7973,5.7973,5.8088,5.8275,5.7929,5.7703,5.7703,5.7703,5.7557,5.7225,5.7403,5.735,5.7013,5.808,5.8994,5.9591,5.9701,5.9476,5.8905,5.9037,5.8937,3.0801,3.2674,3.447,3.4002,3.3886,3.4002,3.4509,0.0,0.0,0.0,0.0,3.4255,3.7277,3.8131,4.0059,4.5287,4.6792,0.0,0.0,0.0,5.9145,6.0886,6.15,6.2162,6.3013,6.3091,6.3284,6.3787,6.2931,6.2235,6.181,6.135,6.1118,6.1118,6.1118,6.1118,6.1118,6.1118,6.1118,6.1118,6.1118,6.1118,6.1118,6.1118,6.1118,6.1118,6.1118,6.1118,6.1113,6.1056,6.1027,6.0997,6.0985,6.0927,6.0905,6.0883,6.081,6.0787,6.0787,6.0787,6.0787,6.0787,6.0787,6.0787,6.0787,6.0787,6.0787,6.0787,6.0787,6.0787,6.0787,6.0787,6.0671,6.0204,6.0089,5.9858,5.905,5.8858,5.8742,5.8352,5.8313,5.8313,5.8313,5.8313,5.8313,5.8313,5.8313,5.8313,5.8313,5.8313,5.8434,5.8813,5.8858,5.9011,5.9396,5.9435,5.9127,5.8352,5.8313,5.8218,5.8048,5.8393,5.8675,5.8918,5.9555,6.0086,6.0533,6.0362,6.0082,5.9685,5.9554,5.927,3.1269,3.3925,3.6424,3.5759,3.5914,3.6148,3.6031,0.0,0.0,0.0,0.0,0.0,0.0,3.9413,0.0,0.0,0.0,0.0,5.5877,5.8505,6.019,6.1002,6.1118,6.1423,6.2312,6.2274,6.2274,6.239,6.2274,6.1887,6.1157,6.1118,6.1118,6.1118,6.1118,6.1118,6.1118,6.1118,6.1118,6.1118,6.1118,6.1118,6.1118,6.1118,6.1118,6.1118,6.1118,6.1075,6.1065,6.1022,6.0997,6.0972,6.0911,6.0905,6.0888,6.0804,6.0787,6.0787,6.0787,6.0787,6.0787,6.0787,6.0787,6.0787,6.0787,6.0787,6.0787,6.0787,6.0787,6.0787,6.0787,6.0787,6.0787,6.0787,6.0787,6.0589,5.9858,5.9704,5.9511,5.8819,5.8665,5.8665,5.8665,5.8665,5.8665,5.8665,5.8665,5.8665,5.8665,5.8665,5.8934,5.9627,5.9704,6.0012,6.0748,6.0787,6.0204,5.8775,5.8665,5.8665,5.8665,5.9358,6.005,6.0787,6.0787,6.0787,6.0787,6.052,6.0342,6.0293,6.0023,5.9664,3.334,3.6586,3.8346,3.4707,3.5446,3.6891,3.6187,0.0,0.0,0.0,0.0,0.0,0.0,4.2966,4.545,0.0,0.0,5.5823,0.0,0.0,6.019,6.1002,6.1118,6.1423,6.2312,6.1732,6.1616,6.2351,6.1732,6.1234,6.1118,6.1118,6.1118,6.1118,6.1118,6.1118,6.1118,6.1118,6.1118,6.1118,6.1118,6.1118,6.1118,6.1118,6.1118,6.1118,6.1118,6.1056,6.1017,6.1007,6.099,6.0894,6.0916,6.0883,6.0798,6.0787,6.0787,6.0787,6.0787,6.0787,6.0787,6.0787,6.0787,6.0787,6.0787,6.0787,6.0787,6.0787,6.0787,6.0787,6.0787,6.0787,6.0787,6.0787,6.0787,6.0748,6.0633,6.0589,6.0556,6.0441,6.0435,6.0435,6.0435,6.0435,6.0435,6.0435,6.0435,6.0435,6.0435,6.0435,6.0473,6.0589,6.0589,6.0666,6.0787,6.0787,6.071,6.0435,6.0435,6.0435,6.0435,6.0512,6.0666,6.0787,6.0787,6.0787,6.0787,6.0746,6.0572,6.0293,6.0251,6.0053,3.1505,3.5139,3.8109,3.6586,3.8502,4.0652,4.0262,3.9091,0.0,0.0,0.0,0.0,0.0,0.0,4.8591,5.3283,0.0,5.8697,5.983,6.039,6.0773,6.105,6.1118,6.1273,6.1655,6.135,6.1273,6.1655,6.135,6.1118,6.1118,6.1118,6.1118,6.1118,6.1118,6.1118,6.1118,6.1118,6.1118,6.1118,6.1118,6.1118,6.1118,6.1118,6.1118,6.1113,6.1051,6.1027,6.1002,6.098,6.0921,6.0905,6.0877,6.0848,6.0787,6.0787,6.0787,6.0787,6.0787,6.0787,6.0787,6.0787,6.0787,6.0787,6.0787,6.0787,6.0787,6.0787,6.0787,6.0787,6.0787,6.0787,6.0787,6.0787,6.0787,6.0787,6.0787,6.0787,6.0787,6.0787,6.0787,6.0787,6.0787,6.0787,6.0787,6.0787,6.0787,6.0787,6.0787,6.0787,6.0787,6.0787,6.0787,6.0787,6.0787,6.0787,6.0787,6.0787,6.0787,6.0787,6.0787,6.0787,6.0787,6.0787,6.0787,6.0787,6.0787,6.0787,6.0728,6.0565,6.0565,6.0376,3.0568,3.4122,3.7873,3.8933,4.1318,4.3663,4.4681,4.3081,0.0,0.0,0.0,0.0,0.0,4.8942,0.0,5.639,5.9025,6.0456,6.0358,6.0899,6.1248,6.1102,6.1118,6.1118,6.1118,6.1118,6.1118,6.1118,6.1118,6.1118,6.1118,6.1118,6.1118,6.1118,6.1118,6.1118,6.1118,6.1118,6.1118,6.1118,6.1118,6.1118,6.1118,6.1118,6.107,6.106,6.1022,6.0992,6.0962,6.0911,6.09,6.0883,6.0804,6.0787,6.0787,6.0787,6.0787,6.0787,6.0787,6.0787,6.0787,6.0787,6.0787,6.0787,6.0787,6.0787,6.0787,6.0787,6.0787,6.0787,6.0787,6.0787,6.0787,6.0787,6.0787,6.0787,6.0787,6.0787,6.0787,6.0787,6.0787,6.0787,6.0787,6.0787,6.0787,6.0787,6.0787,6.0787,6.0787,6.0787,6.0787,6.0787,6.0787,6.0787,6.0787,6.0787,6.0787,6.0787,6.0787,6.0787,6.0787,6.0787,6.0787,6.0787,6.0787,6.0787,6.0787,6.0787,6.0787,6.0787,6.0787,6.0679,3.3457,3.6391,3.8895,4.0535,4.1701,4.3535,4.761,4.714,0.0,5.0072,0.0,0.0,0.0,5.2571,5.5682,5.8554,6.0301,6.1293,6.1286,6.131,6.1248,6.1102,6.1118,6.1118,6.1118,6.1118,6.1118,6.1118,6.1118,6.1118,6.1118,6.1118,6.1118,6.1118,6.1118,6.1118,6.1118,6.1118,6.1118,6.1118,6.1118,6.1118,6.1118,6.1118,6.1051,6.1012,6.1007,6.0946,6.0922,6.0911,6.0877,6.0831,6.0787,6.0787,6.0787,6.0787,6.0787,6.0787,6.0787,6.0787,6.0787,6.0787,6.0787,6.0787,6.0787,6.0787,6.0787,6.0787,6.0787,6.0787,6.0787,6.0787,6.0787,6.0787,6.0787,6.0787,6.0787,6.0787,6.0787,6.0787,6.0787,6.0787,6.0787,6.0787,6.0787,6.0787,6.0787,6.0787,6.0787,6.0787,6.0787,6.0787,6.0787,6.0787,6.0787,6.0787,6.0787,6.0787,6.0787,6.0787,6.0787,6.0787,6.0787,6.0787,6.0787,6.0787,6.0787,6.0787,6.0787,6.0787,6.0787,6.0775,3.1193,3.5377,3.956,4.0185,4.3032,0.0,0.0,4.9606,5.0465,5.3904,5.4646,0.0,0.0,0.0,5.7379,5.8945,6.054,6.1571,6.1537,6.1508,6.143,6.1248,6.1213,6.1173,6.1127,6.1118,6.1118,6.1118,6.1118,6.1118,6.1118,6.1118,6.1118,6.1118,6.1118,6.1118,6.1118,6.1118,6.1118,6.1118,6.1118,6.1118,6.1118,6.1118,6.1051,6.1002,6.1005,6.0943,6.0905,6.0871,6.0804,6.0787,6.0787,6.0787,6.0787,6.0787,6.0787,6.0787,6.0787,6.0787,6.0787,6.0787,6.0787,6.0787,6.0787,6.0787,6.0787,6.0787,6.0787,6.0787,6.0787,6.0787,6.0787,6.0787,6.0787,6.0787,6.0787,6.0787,6.0787,6.0787,6.0787,6.0787,6.0787,6.0787,6.0787,6.0787,6.0787,6.0787,6.0787,6.0787,6.0787,6.0787,6.0787,6.0787,6.0787,6.0787,6.0787,6.0787,6.0787,6.0787,6.0787,6.0787,6.0787,6.0787,6.0787,6.0787,6.0787,6.0787,6.0787,6.0787,6.0787,6.0787,3.0884,3.5457,4.0419,4.0968,0.0,0.0,5.1247,5.2029,5.3279,5.703,5.7148,5.6757,5.7304,0.0,0.0,5.9336,6.0781,6.1677,6.1611,6.1605,6.1529,6.1361,6.1295,6.1263,6.1182,6.1116,6.1118,6.1118,6.1118,6.1118,6.1118,6.1118,6.1118,6.1118,6.1118,6.1118,6.1118,6.1118,6.1118,6.1118,6.1118,6.1118,6.1118,6.106,6.1027,6.101,6.0992,6.0933,6.0877,6.0837,6.0787,6.0787,6.0787,6.0787,6.0787,6.0787,6.0787,6.0787,6.0787,6.0787,6.0787,6.0787,6.0787,6.0787,6.0787,6.0787,6.0787,6.0787,6.0787,6.0787,6.0787,6.0787,6.0787,6.0787,6.0787,6.0787,6.0787,6.0787,6.0787,6.0787,6.0787,6.0787,6.0787,6.0787,6.0787,6.0787,6.0787,6.0787,6.0787,6.0787,6.0787,6.0787,6.0787,6.0787,6.0787,6.0787,6.0787,6.0787,6.0787,6.0787,6.0787,6.0787,6.0787,6.0787,6.0787,6.0787,6.0787,6.0787,6.0787,6.0787,6.0787,6.0787,3.3623,3.7177,4.1513,4.3276,0.0,0.0,5.4333,5.4645,5.5231,5.9531,5.8398,5.7148,5.8906,5.7812,5.7461,6.0,6.1133,6.1678,6.1612,6.1605,6.1546,6.1426,6.1355,6.131,6.1306,6.1195,6.1118,6.1118,6.1118,6.1118,6.1118,6.1118,6.1118,6.1118,6.1118,6.1118,6.1118,6.1118,6.1118,6.1118,6.1118,6.1118,6.1113,6.1027,6.101,6.0987,6.0933,6.0877,6.0787,6.0787,6.0787,6.0787,6.0787,6.0787,6.0787,6.0787,6.0787,6.0787,6.0787,6.0787,6.0787,6.0787,6.0787,6.0787,6.0787,6.0787,6.0787,6.0787,6.0787,6.0787,6.0787,6.0787,6.0787,6.0787,6.0787,6.0787,6.0787,6.0787,6.0787,6.0787,6.0787,6.0787,6.0787,6.0787,6.0787,6.0787,6.0787,6.0787,6.0787,6.0787,6.0787,6.0787,6.0787,6.0787,6.0787,6.0787,6.0787,6.0787,6.0787,6.0787,6.0787,6.0787,6.0787,6.0787,6.0787,6.0787,6.0787,6.0787,6.0787,6.0787,6.0787,6.0787,3.3811,3.7606,0.0,4.3429,0.0,0.0,0.0,5.6053,0.0,0.0,6.0234,5.9414,5.9961,5.9609,5.9531,6.0273,6.1133,6.1679,6.1677,6.1676,6.163,6.1547,6.1522,6.1461,6.1327,6.1263,6.1185,6.1127,6.1118,6.1118,6.1118,6.1118,6.1118,6.1118,6.1118,6.1118,6.1118,6.1118,6.1118,6.1118,6.1118,6.1099,6.1027,6.1012,6.0951,6.0933,6.0916,6.0877,6.0787,6.0787,6.0787,6.0787,6.0787,6.0787,6.0787,6.0787,6.0787,6.0787,6.0787,6.0787,6.0787,6.0787,6.0787,6.0787,6.0787,6.0787,6.0787,6.0787,6.0787,6.0787,6.0787,6.0787,6.0787,6.0787,6.0787,6.0787,6.0787,6.0787,6.0787,6.0787,6.0787,6.0787,6.0787,6.0787,6.0787,6.0787,6.0787,6.0787,6.0787,6.0787,6.0787,6.0787,6.0787,6.0787,6.0787,6.0787,6.0787,6.0787,6.0787,6.0787,6.0787,6.0787,6.0787,6.0787,6.0787,6.0787,6.0787,6.0787,6.0787,6.0787,6.0787,6.0787,3.6904,4.0893,0.0,4.7301,5.1443,5.5546,5.7421,0.0,0.0,0.0,6.0742,6.0117,6.0781,6.0351,6.0156,6.082,6.1367,6.1719,6.1719,6.1719,6.1679,6.1629,6.1616,6.1538,6.1435,6.1379,6.1315,6.1221,6.1213,6.1225,6.1199,6.1195,6.1161,6.1118,6.1118,6.1118,6.1118,6.1118,6.1118,6.1118,6.106,6.1022,6.1005,6.1005,6.0959,6.0905,6.0883,6.0854,6.0787,6.0787,6.0787,6.0787,6.0787,6.0787,6.0787,6.0787,6.0787,6.0787,6.0787,6.0787,6.0787,6.0787,6.0787,6.0787,6.0787,6.0787,6.0787,6.0787,6.0787,6.0787,6.0787,6.0787,6.0787,6.0787,6.0787,6.0787,6.0787,6.0787,6.0787,6.0787,6.0787,6.0787,6.0787,6.0787,6.0787,6.0787,6.0787,6.0787,6.0787,6.0787,6.0787,6.0787,6.0787,6.0787,6.0787,6.0787,6.0787,6.0787,6.0787,6.0787,6.0787,6.0787,6.0787,6.0787,6.0787,6.0787,6.0787,6.0787,6.0787,6.0787,6.0787,6.0787,4.121,4.5272,0.0,5.289,5.5312,0.0,6.0976,6.1094,6.0742,6.1523,0.0,5.9883,6.1406,6.0469,5.9922,6.1445,6.1719,6.1719,6.1719,6.1719,6.1719,6.1719,6.1669,6.161,6.1605,6.1473,6.1422,6.1412,6.1412,6.137,6.1295,6.1313,6.124,6.1112,6.1127,6.1118,6.1118,6.1118,6.1113,6.1109,6.1027,6.101,6.0981,6.0981,6.0955,6.09,6.0848,6.0787,6.0787,6.0787,6.0787,6.0787,6.0787,6.0787,6.0787,6.0787,6.0787,6.0787,6.0787,6.0787,6.0787,6.0787,6.0787,6.0787,6.0787,6.0787,6.0787,6.0787,6.0787,6.0787,6.0787,6.0787,6.0787,6.0787,6.0787,6.0787,6.0787,6.0787,6.0787,6.0787,6.0787,6.0787,6.0787,6.0787,6.0787,6.0787,6.0787,6.0787,6.0787,6.0787,6.0787,6.0787,6.0787,6.0787,6.0787,6.0787,6.0787,6.0787,6.0787,6.0787,6.0787,6.0787,6.0787,6.0787,6.0787,6.0787,6.0787,6.0787,6.0787,6.0787,6.0787,6.0787,3.9211,4.3043,0.0,0.0,5.5312,5.918,6.1211,6.1562,6.1484,6.164,6.1406,6.1289,6.164,6.1406,6.1289,6.164,6.1719,6.1719,6.1719,6.1719,6.1719,6.1719,6.1679,6.1673,6.1609,6.1555,6.1526,6.1417,6.1412,6.1403,6.138,6.1327,6.1292,6.1256,6.1161,6.1118,6.1118,6.1118,6.106,6.1022,6.1012,6.0951,6.0927,6.0927,6.0894,6.0804,6.0831,6.0787,6.0787,6.0787,6.0787,6.0787,6.0787,6.0787,6.0787,6.0787,6.0787,6.0787,6.0787,6.0787,6.0787,6.0787,6.0787,6.0787,6.0787,6.0787,6.0787,6.0787,6.0787,6.0787,6.0787,6.0787,6.0787,6.0787,6.0787,6.0787,6.0787,6.0787,6.0787,6.0787,6.0787,6.0787,6.0787,6.0787,6.0787,6.0787,6.0787,6.0787,6.0787,6.0787,6.0787,6.0787,6.0787,6.0787,6.0787,6.0787,6.0787,6.0787,6.0787,6.0787,6.0787,6.0787,6.0787,6.0787,6.0787,6.0787,6.0787,6.0787,6.0787,6.0787,6.0787,6.0787,4.0151,0.0,0.0,5.2734,0.0,6.0,6.0898,6.1406,6.1719,6.1719,6.1719,6.1719,6.1719,6.1719,6.1719,6.1719,6.1719,6.1719,6.1719,6.1719,6.1719,6.1719,6.1719,6.1679,6.1632,6.1631,6.1624,6.1563,6.1521,6.1549,6.1517,6.1476,6.1424,6.1367,6.1263,6.1216,6.1216,6.1125,6.1056,6.1002,6.1016,6.0943,6.0866,6.0866,6.0816,6.0787,6.0787,6.0787,6.0787,6.0787,6.0787,6.0787,6.0787,6.0787,6.0787,6.0787,6.0787,6.0787,6.0787,6.0787,6.0787,6.0787,6.0787,6.0787,6.0787,6.0787,6.0787,6.0787,6.0787,6.0787,6.0787,6.0787,6.0787,6.0787,6.0787,6.0787,6.0787,6.0787,6.0787,6.0787,6.0787,6.0787,6.0787,6.0787,6.0787,6.0787,6.0787,6.0787,6.0787,6.0787,6.0787,6.0787,6.0787,6.0787,6.0787,6.0787,6.0787,6.0787,6.0787,6.0787,6.0787,6.0787,6.0787,6.0787,6.0787,6.0787,6.0787,6.0787,6.0787,6.0787,6.0787,6.0787,4.0349,0.0,4.8827,5.4883,5.8086,0.0,6.0117,6.0742,6.1328,6.1445,6.1601,6.1719,6.1719,6.1719,6.1719,6.1719,6.1719,6.1719,6.1719,6.1719,6.1719,6.1719,6.1719,6.1719,6.1719,6.1719,6.1719,6.1719,6.1719,6.1677,6.1618,6.1609,6.1544,6.1439,6.1373,6.1295,6.1306,6.116,6.1075,6.0987,6.0997,6.0916,6.0787,6.0787,6.0787,6.0787,6.0787,6.0787,6.0787,6.0787,6.0787,6.0787,6.0787,6.0787,6.0787,6.0787,6.0787,6.0787,6.0787,6.0787,6.0787,6.0787,6.0787,6.0787,6.0787,6.0787,6.0787,6.0787,6.0787,6.0787,6.0787,6.0787,6.0787,6.0787,6.0787,6.0787,6.0787,6.0787,6.0787,6.0787,6.0787,6.0787,6.0787,6.0787,6.0787,6.0787,6.0787,6.0787,6.0787,6.0787,6.0787,6.0787,6.0787,6.0787,6.0787,6.0787,6.0787,6.0787,6.0787,6.0787,6.0787,6.0787,6.0787,6.0787,6.0787,6.0787,6.0787,6.0787,6.0787,6.0787,6.0787,6.0787,0.0,0.0,4.7929,0.0,5.6289,5.75,0.0,0.0,5.9726,0.0,6.1172,6.1719,6.1719,6.1719,6.1719,6.1719,6.1719,6.1719,6.1719,6.1719,6.1719,6.1719,6.1719,6.1719,6.1719,6.1719,6.1719,6.1719,6.1719,6.1719,6.1679,6.1624,6.1602,6.1555,6.1443,6.1345,6.131,6.1209,6.1118,6.1003,6.09,6.0837,6.0787,6.0787,6.0787,6.0787,6.0787,6.0787,6.0787,6.0787,6.0787,6.0787,6.0787,6.0787,6.0787,6.0787,6.0787,6.0787,6.0787,6.0787,6.0787,6.0787,6.0787,6.0787,6.0787,6.0787,6.0787,6.0787,6.0787,6.0787,6.0787,6.0787,6.0787,6.0787,6.0787,6.0787,6.0787,6.0787,6.0787,6.0787,6.0787,6.0787,6.0787,6.0787,6.0787,6.0787,6.0787,6.0787,6.0787,6.0787,6.0787,6.0787,6.0787,6.0787,6.0787,6.0787,6.0787,6.0787,6.0787,6.0787,6.0787,6.0787,6.0787,6.0787,6.0787,6.0787,6.0787,6.0787,6.0787,6.0787,6.0787,6.0787,3.5736,4.1209,4.6796,0.0,5.4492,5.6211,5.7461,5.8515,5.9297,5.9648,6.0039,6.0586,6.1523,6.1719,6.1719,6.1719,6.1719,6.1719,6.1719,6.1719,6.1719,6.1719,6.1719,6.1719,6.1719,6.1719,6.1719,6.1719,6.1719,6.1719,6.1719,6.1677,6.1673,6.1673,6.1558,6.151,6.1472,6.1331,6.116,6.0992,6.0877,6.0787,6.0787,6.0787,6.0787,6.0787,6.0787,6.0787,6.0787,6.0787,6.0787,6.0787,6.0787,6.0787,6.0787,6.0787,6.0787,6.0787,6.0787,6.0787,6.0787,6.0787,6.0787,6.0787,6.0787,6.0787,6.0787,6.0787,6.0787,6.0787,6.0787,6.0787,6.0787,6.0787,6.0787,6.0787,6.0787,6.0787,6.0787,6.0787,6.0787,6.0787,6.0787,6.0787,6.0787,6.0787,6.0787,6.0787,6.0787,6.0787,6.0787,6.0787,6.0787,6.0787,6.0787,6.0787,6.0787,6.0787,6.0787,6.0787,6.0787,6.0787,6.0787,6.0787,6.0787,6.0787,6.0787,6.0787,6.0787,6.0787,6.0787,6.0787,0.0,0.0,4.3866,4.8594,5.1914,5.4336,0.0,0.0,5.832,5.8789,5.8867,5.9336,6.0781,6.1211,6.1445,6.164,6.1719,6.1719,6.1719,6.1719,6.1719,6.1719,6.1719,6.1719,6.1719,6.1719,6.1719,6.1719,6.1719,6.1719,6.1719,6.1719,6.1719,6.1719,6.1632,6.1616,6.1605,6.1414,6.1233,6.1041,6.0962,6.0894,6.0834,6.0834,6.0844,6.0787,6.0787,6.0787,6.0787,6.0787,6.0787,6.0787,6.0787,6.0787,6.0787,6.0787,6.0787,6.0787,6.0787,6.0787,6.0787,6.0787,6.0787,6.0787,6.0787,6.0787,6.0787,6.0787,6.0787,6.0787,6.0787,6.0787,6.0787,6.0787,6.0787,6.0787,6.0787,6.0787,6.0787,6.0787,6.0787,6.0787,6.0787,6.0787,6.0787,6.0787,6.0787,6.0787,6.0787,6.0787,6.0787,6.0787,6.0787,6.0787,6.0787,6.0787,6.0787,6.0787,6.0787,6.0787,6.0787,6.0787,6.0787,6.0787,6.0787,6.0787,6.0787,6.0787,6.0787,6.0787,6.0787,6.0787,0.0,3.5075,0.0,4.3867,4.793,0.0,0.0,0.0,5.5976,5.7617,5.7969,5.8242,5.914,5.9961,6.0742,6.1562,6.1719,6.1719,6.1719,6.1719,6.1719,6.1719,6.1719,6.1719,6.1719,6.1719,6.1719,6.1719,6.1719,6.1719,6.1719,6.1719,6.1719,6.1719,6.1719,6.1675,6.1605,6.141,6.1246,6.1172,6.1169,6.112,6.0983,6.0983,6.0913,6.0787,6.0787,6.0787,6.0787,6.0787,6.0787,6.0787,6.0787,6.0787,6.0787,6.0787,6.0787,6.0787,6.0787,6.0787,6.0787,6.0787,6.0787,6.0787,6.0787,6.0787,6.0787,6.0787,6.0787,6.0787,6.0787,6.0787,6.0787,6.0787,6.0787,6.0787,6.0787,6.0787,6.0787,6.0787,6.0787,6.0787,6.0787,6.0787,6.0787,6.0787,6.0787,6.0787,6.0787,6.0787,6.0787,6.0787,6.0787,6.0787,6.0787,6.0787,6.0787,6.0787,6.0787,6.0787,6.0787,6.0787,6.0787,6.0787,6.0787,6.0787,6.0787,6.0787,6.0787,6.0787,6.0787,6.0787,0.0,0.0,0.0,4.0625,4.4336,4.7383,4.9414,5.1836,5.3984,5.5156,5.5859,5.668,5.8086,5.9492,6.0508,6.082,6.1328,6.1719,6.1719,6.1719,6.1719,6.1719,6.1719,6.1719,6.1719,6.1719,6.1719,6.1719,6.1719,6.1719,6.1719,6.1719,6.1719,6.1719,6.1719,6.1676,6.1605,6.1471,6.1352,6.1253,6.121,6.1161,6.1136,6.1057,6.0959,6.0918,6.085,6.0787,6.0787,6.0787,6.0787,6.0787,6.0787,6.0787,6.0787,6.0787,6.0787,6.0787,6.0787,6.0787,6.0787,6.0787,6.0787,6.0787,6.0787,6.0787,6.0787,6.0787,6.0787,6.0787,6.0787,6.0787,6.0787,6.0787,6.0787,6.0787,6.0787,6.0787,6.0787,6.0787,6.0787,6.0787,6.0787,6.0787,6.0787,6.0787,6.0787,6.0787,6.0787,6.0787,6.0787,6.0787,6.0787,6.0787,6.0787,6.0787,6.0787,6.0787,6.0787,6.0787,6.0787,6.0787,6.0787,6.0787,6.0787,6.0787,6.0787,6.0787,6.0787,6.0787,6.0787,6.0787,2.9292,0.0,0.0,0.0,0.0,4.375,4.7226,4.9805,5.1836,5.3281,5.4492,5.5664,5.6797,5.8437,5.9648,5.9961,6.0469,6.0859,6.0859,6.1094,6.125,6.125,6.1523,6.1719,6.1719,6.1719,6.1719,6.1719,6.1719,6.1719,6.1719,6.1719,6.1719,6.1719,6.1719,6.1677,6.1621,6.1606,6.1532,6.1424,6.1393,6.1351,6.1295,6.1196,6.1116,6.1049,6.0923,6.0823,6.0787,6.0787,6.0787,6.0787,6.0787,6.0787,6.0787,6.0787,6.0787,6.0787,6.0787,6.0787,6.0787,6.0787,6.0787,6.0787,6.0787,6.0787,6.0787,6.0787,6.0787,6.0787,6.0787,6.0787,6.0787,6.0787,6.0787,6.0787,6.0787,6.0787,6.0787,6.0787,6.0787,6.0787,6.0787,6.0787,6.0787,6.0787,6.0787,6.0787,6.0787,6.0787,6.0787,6.0787,6.0787,6.0787,6.0787,6.0787,6.0787,6.0787,6.0787,6.0787,6.0787,6.0787,6.0787,6.0787,6.0787,6.0787,6.0787,6.0787,6.0787,6.0787,6.0787,6.0787,0.0,0.0,0.0,0.0,0.0,0.0,4.7031,0.0,4.9414,5.1992,5.3906,5.5117,5.5195,5.664,5.8086,5.8945,5.914,5.9219,5.9219,5.9883,6.0351,6.0351,6.1133,6.164,6.164,6.168,6.1719,6.1719,6.1719,6.1719,6.1719,6.1719,6.1719,6.1719,6.1719,6.1718,6.1717,6.1717,6.1712,6.1698,6.1698,6.1628,6.1495,6.1493,6.1395,6.1186,6.1053,6.0933,6.0804,6.0793,6.0787,6.0787,6.0787,6.0787,6.0787,6.0787,6.0787,6.0787,6.0787,6.0787,6.0787,6.0787,6.0787,6.0787,6.0787,6.0787,6.0787,6.0787,6.0787,6.0787,6.0787,6.0787,6.0787,6.0787,6.0787,6.0787,6.0787,6.0787,6.0787,6.0787,6.0787,6.0787,6.0787,6.0787,6.0787,6.0787,6.0787,6.0787,6.0787,6.0787,6.0787,6.0787,6.0787,6.0787,6.0787,6.0787,6.0787,6.0787,6.0787,6.0787,6.0787,6.0787,6.0787,6.0787,6.0787,6.0787,6.0787,6.0787,6.0787,6.0787,6.0787,6.0787,2.7495,0.0,0.0,0.0,0.0,0.0,0.0,0.0,4.4219,4.7422,4.9453,5.1211,5.3086,5.4336,5.5351,5.625,5.7969,5.9219,5.9219,5.9375,5.9531,5.9531,6.0273,6.0742,6.0742,6.1328,6.1719,6.1719,6.1719,6.1719,6.1719,6.1719,6.1719,6.1719,6.1719,6.1719,6.1718,6.1717,6.1716,6.1713,6.1704,6.1691,6.1633,6.153,6.1476,6.1401,6.1229,6.1136,6.1074,6.0888,6.0787,6.0787,6.0787,6.0787,6.0787,6.0787,6.0787,6.0787,6.0787,6.0787,6.0787,6.0787,6.0787,6.0787,6.0787,6.0787,6.0787,6.0787,6.0787,6.0787,6.0787,6.0787,6.0787,6.0787,6.0787,6.0787,6.0787,6.0787,6.0787,6.0787,6.0787,6.0787,6.0787,6.0787,6.0787,6.0787,6.0787,6.0787,6.0787,6.0787,6.0787,6.0787,6.0787,6.0787,6.0787,6.0787,6.0787,6.0787,6.0787,6.0787,6.0787,6.0787,6.0787,6.0787,6.0787,6.0787,6.0787,6.0787,6.0787,6.0787,6.0787,6.0787,2.9721,0.0,0.0,0.0,0.0,0.0,3.8633,4.0078,4.1719,4.5508,4.7695,4.9453,5.1328,5.2344,5.3203,5.4062,5.5781,5.7265,5.8008,5.8437,5.8672,5.8672,5.9375,5.9883,5.9883,6.0351,6.0781,6.1133,6.1172,6.1328,6.168,6.1719,6.1719,6.1719,6.1719,6.1719,6.1719,6.1718,6.1717,6.1717,6.1709,6.1701,6.1697,6.1613,6.1584,6.158,6.1406,6.1313,6.1298,6.1083,6.0938,6.0883,6.0821,6.0844,6.0883,6.0821,6.085,6.0877,6.0821,6.0787,6.0787,6.0787,6.0787,6.0787,6.0787,6.0787,6.0787,6.0787,6.0787,6.0787,6.0787,6.0787,6.0787,6.0787,6.0787,6.0787,6.0787,6.0787,6.0787,6.0787,6.0787,6.0787,6.0787,6.0787,6.0787,6.0787,6.0787,6.0787,6.0787,6.0787,6.0787,6.0787,6.0787,6.0787,6.0787,6.0787,6.0787,6.0787,6.0787,6.0787,6.0787,6.0787,6.0787,6.0787,6.0787,6.0787,6.0787,6.0787,6.0787,6.0787,6.0787,6.0787,3.3158,0.0,0.0,0.0,0.0,0.0,4.0273,4.0469,4.0664,4.4375,4.6484,4.793,4.8984,4.9922,5.0859,5.1836,5.2891,5.4258,5.6172,5.7226,5.7773,5.7773,5.8515,5.9062,5.9062,5.914,5.9492,6.0195,6.0351,6.0781,6.164,6.1719,6.1719,6.1719,6.1719,6.1719,6.1719,6.1719,6.1718,6.1717,6.1712,6.1705,6.1697,6.1686,6.1719,6.1677,6.1578,6.1506,6.15,6.1307,6.1159,6.1016,6.0904,6.0913,6.1011,6.0904,6.0897,6.0974,6.0861,6.0804,6.0787,6.0787,6.0787,6.0787,6.0787,6.0787,6.0787,6.0787,6.0787,6.0787,6.0787,6.0787,6.0787,6.0787,6.0787,6.0787,6.0787,6.0787,6.0787,6.0787,6.0787,6.0787,6.0787,6.0787,6.0787,6.0787,6.0787,6.0787,6.0787,6.0787,6.0787,6.0787,6.0787,6.0787,6.0787,6.0787,6.0787,6.0787,6.0787,6.0787,6.0787,6.0787,6.0787,6.0787,6.0787,6.0787,6.0787,6.0787,6.0787,6.0787,6.0787,6.0787,0.0,0.0,0.0,0.0,0.0,0.0,3.5703,3.6523,3.7851,3.7969,3.8828,4.0273,4.2539,4.418,4.5703,4.7305,4.9453,5.2031,5.5117,5.6289,5.6836,5.6836,5.7617,5.8164,5.8164,5.8789,5.9258,5.9414,6.0039,6.0781,6.164,6.1719,6.1719,6.1719,6.1719,6.1719,6.1719,6.1719,6.1718,6.1717,6.1712,6.1705,6.1697,6.1686,6.1719,6.1718,6.1668,6.1663,6.1658,6.1502,6.1313,6.1178,6.1147,6.1155,6.1178,6.1147,6.1066,6.0993,6.0954,6.0904,6.0787,6.0787,6.0787,6.0787,6.0787,6.0787,6.0787,6.0787,6.0787,6.0787,6.0787,6.0787,6.0787,6.0787,6.0787,6.0787,6.0787,6.0787,6.0787,6.0787,6.0787,6.0787,6.0787,6.0787,6.0787,6.0787,6.0787,6.0787,6.0787,6.0787,6.0787,6.0787,6.0787,6.0787,6.0787,6.0787,6.0787,6.0787,6.0787,6.0787,6.0787,6.0787,6.0787,6.0787,6.0787,6.0787,6.0787,6.0787,6.0787,6.0787,6.0787,6.0787,0.0,0.0,0.0,4.0078,0.0,0.0,0.0,3.7578,3.7773,3.9492,3.8828,3.875,4.1328,4.25,4.3476,4.4805,4.7578,5.0,5.1289,5.3672,5.5312,5.5312,5.5703,5.6133,5.6562,5.6992,5.7617,5.8476,5.9336,6.0156,6.1015,6.1055,6.125,6.168,6.1719,6.1719,6.1719,6.1719,6.1719,6.1718,6.1715,6.1712,6.1709,6.1697,6.169,6.1689,6.1682,6.1719,6.1677,6.1648,6.1537,6.1422,6.1253,6.1272,6.1322,6.1256,6.1178,6.1091,6.1034,6.0902,6.0787,6.0787,6.0787,6.0787,6.0787,6.0787,6.0787,6.0787,6.0787,6.0787,6.0787,6.0787,6.0787,6.0787,6.0787,6.0787,6.0787,6.0787,6.0787,6.0787,6.0787,6.0787,6.0787,6.0787,6.0787,6.0787,6.0787,6.0787,6.0787,6.0787,6.0787,6.0787,6.0787,6.0787,6.0787,6.0787,6.0787,6.0787,6.0787,6.0787,6.0787,6.0787,6.0787,6.0787,6.1248,6.1441,6.1441,6.1858,6.1858,6.1441,6.1858,6.182,0.0,0.0,0.0,0.0,0.0,4.1601,0.0,0.0,0.0,4.1641,4.0039,3.8789,0.0,4.1406,4.1641,4.2344,4.5391,4.7305,4.625,4.9531,5.2266,5.293,5.3281,5.3828,5.4726,5.4492,5.5156,5.7226,5.7734,5.8515,5.9844,6.0234,6.0703,6.1445,6.1601,6.1719,6.1719,6.1719,6.1719,6.1719,6.1717,6.1716,6.1715,6.1705,6.1697,6.1697,6.1686,6.1681,6.1683,6.1683,6.1691,6.1654,6.1396,6.1412,6.1515,6.1348,6.1276,6.1172,6.107,6.0938,6.0787,6.0787,6.0787,6.0787,6.0787,6.0787,6.0787,6.0787,6.0787,6.0787,6.0787,6.0787,6.0787,6.0787,6.0787,6.0787,6.0787,6.0787,6.0787,6.0787,6.0787,6.0787,6.0787,6.0787,6.0787,6.0787,6.0787,6.0787,6.0787,6.0787,6.0787,6.0787,6.0787,6.0787,6.0787,6.0787,6.0787,6.0787,6.0787,6.0787,6.0787,6.0787,6.0864,6.1056,6.1749,6.2172,6.2326,6.3166,6.3128,6.2364,6.3012,6.2935,0.0,0.0,0.0,0.0,4.5234,0.0,3.9414,0.0,4.0039,3.7422,0.0,3.6601,0.0,0.0,0.0,3.8008,4.0898,4.2578,4.1016,4.3125,4.6016,4.9101,5.0781,5.2031,5.2891,5.1641,5.2109,5.5351,5.4258,5.4844,5.8008,5.9609,6.0469,6.0547,6.1289,6.1719,6.1719,6.1719,6.1718,6.1717,6.1717,6.1715,6.171,6.1702,6.1697,6.1697,6.1686,6.1687,6.1696,6.1696,6.1701,6.1706,6.1676,6.1674,6.1687,6.1668,6.1454,6.1186,6.1169,6.102,6.0787,6.0787,6.0787,6.0787,6.0787,6.0787,6.0787,6.0787,6.0787,6.0787,6.0787,6.0787,6.0787,6.0787,6.0787,6.0787,6.0787,6.0787,6.0787,6.0787,6.0787,6.0787,6.0787,6.0787,6.0787,6.0787,6.0787,6.0787,6.0787,6.0787,6.0787,6.0787,6.0787,6.0787,6.0787,6.0787,6.0787,6.0787,6.0787,6.0787,6.0787,6.0787,6.1172,6.1941,6.2056,6.2441,6.316,6.4045,6.4012,6.316,6.3275,6.3237,0.0,0.0,0.0,0.0,0.0,0.0,4.1992,4.0703,4.0312,3.9805,0.0,0.0,0.0,0.0,0.0,0.0,3.8945,3.9609,3.7891,3.9414,4.2226,4.6172,4.6797,4.7851,5.0273,4.9844,5.043,5.2851,5.1914,5.2734,5.6211,5.8008,5.9414,6.0351,6.125,6.1719,6.1719,6.1719,6.1719,6.1718,6.1718,6.1718,6.1717,6.1713,6.1711,6.1711,6.1703,6.1701,6.1705,6.1705,6.1709,6.1713,6.1699,6.1694,6.1697,6.1684,6.1543,6.1373,6.1256,6.1074,6.0887,6.0833,6.0787,6.0787,6.0787,6.0787,6.0787,6.0787,6.0787,6.0787,6.0787,6.0787,6.0787,6.0787,6.0787,6.0787,6.0787,6.0787,6.0787,6.0787,6.0787,6.0787,6.0787,6.0787,6.0787,6.0787,6.0787,6.0787,6.0787,6.0787,6.0787,6.0787,6.0787,6.0787,6.0787,6.0787,6.0787,6.0787,6.0787,6.0787,6.0787,6.1287,6.171,6.2095,6.3057,6.3705,6.4045,6.4936,6.5166,6.482,6.482,6.4551,4.7068,0.0,4.8944,4.625,4.5937,4.5703,4.3516,4.2109,4.1445,4.1953,4.0664,0.0,0.0,0.0,3.8047,3.7109,0.0,3.7812,3.5586,3.6562,3.8945,4.2773,4.3711,4.4961,4.7266,4.707,4.7773,5.0195,4.9141,5.0234,5.4375,5.625,5.8086,6.0,6.0898,6.1445,6.1719,6.1719,6.1719,6.1719,6.1719,6.1719,6.1719,6.1718,6.1717,6.1716,6.1712,6.171,6.1711,6.1711,6.1715,6.1717,6.171,6.1703,6.17,6.1686,6.1602,6.1476,6.1279,6.1091,6.0928,6.0839,6.0787,6.0787,6.0787,6.0787,6.0787,6.0787,6.0787,6.0787,6.0787,6.0787,6.0787,6.0787,6.0787,6.0787,6.0787,6.0787,6.0787,6.0787,6.0787,6.0787,6.0787,6.0787,6.0787,6.0787,6.0787,6.0787,6.0787,6.0787,6.0787,6.0787,6.0787,6.0787,6.0787,6.0787,6.0787,6.0787,6.1018,6.1172,6.1172,6.1979,6.2557,6.2787,6.3974,6.4705,6.4974,6.559,6.5904,6.5904,6.5904,6.5551,4.8475,4.9412,5.0116,4.5039,4.5039,4.543,4.2031,4.3125,4.4141,4.1758,4.3125,4.4023,4.1601,4.1094,3.9961,3.6601,3.7461,0.0,0.0,3.4258,3.582,3.8476,4.2461,4.4687,4.3945,4.2383,4.3203,4.7422,4.5351,4.6523,5.2461,5.4453,5.6562,5.914,6.0039,6.0859,6.168,6.1719,6.1719,6.1719,6.1719,6.1719,6.1719,6.1718,6.1717,6.1716,6.1712,6.1712,6.1717,6.1717,6.1718,6.1719,6.1717,6.1714,6.1707,6.1689,6.1602,6.1476,6.1279,6.1043,6.0793,6.0787,6.0787,6.0787,6.0787,6.0787,6.0787,6.0787,6.0787,6.0787,6.0787,6.0787,6.0787,6.0787,6.0787,6.0787,6.0787,6.0787,6.0787,6.0787,6.0787,6.0787,6.0787,6.0787,6.0787,6.0787,6.0787,6.0787,6.0787,6.0787,6.0787,6.0787,6.0787,6.0787,6.0787,6.0787,6.0787,6.0787,6.1595,6.2062,6.2062,6.282,6.366,6.4512,6.4589,6.5013,6.5865,6.5897,6.5904,6.5904,6.5904,6.5897,5.0429,5.1601,5.2148,4.8125,4.7578,4.7109,4.3633,4.3984,4.4297,4.1719,4.3242,4.4375,4.2383,4.1094,3.9766,3.8008,3.6758,3.5234,0.0,3.332,3.418,0.0,0.0,0.0,4.0391,4.0859,4.2031,4.4023,4.4414,4.6445,5.082,5.375,5.6211,5.8281,5.9687,6.082,6.168,6.1719,6.1719,6.1719,6.1719,6.1719,6.1719,6.1719,6.1718,6.1718,6.1718,6.1718,6.1718,6.1718,6.1719,6.1719,6.1715,6.1711,6.1708,6.1697,6.1676,6.1593,6.1307,6.1,6.0787,6.0787,6.0787,6.0787,6.0787,6.0787,6.0787,6.0787,6.0787,6.0787,6.0787,6.0787,6.0787,6.0787,6.0787,6.0787,6.0787,6.0787,6.0787,6.0787,6.0787,6.0787,6.0787,6.0787,6.0787,6.0787,6.0787,6.0787,6.0787,6.0787,6.0787,6.0787,6.0787,6.0787,6.0787,6.0787,6.0787,6.0787,6.1633,6.2095,6.2095,6.3435,6.432,6.4589,6.5166,6.5596,6.5904,6.5904,6.5904,6.5904,6.5904,6.5904,5.2109,5.2891,5.3242,5.0156,4.9375,4.8437,4.4961,4.5312,4.5586,4.2695,4.3633,4.4766,4.3945,4.1914,3.9961,3.8789,3.668,3.4453,0.0,3.2891,3.3398,0.0,0.0,0.0,0.0,3.8789,4.0,4.2656,4.2773,4.4922,4.9922,5.2578,5.5156,5.7812,5.9258,6.0547,6.168,6.1719,6.1719,6.1719,6.1719,6.1719,6.1719,6.1719,6.1719,6.1719,6.1719,6.1719,6.1719,6.1719,6.1719,6.1719,6.1715,6.1711,6.1708,6.1697,6.1624,6.1474,6.1253,6.1,6.0787,6.0787,6.0787,6.0787,6.0787,6.0787,6.0787,6.0787,6.0787,6.0787,6.0787,6.0787,6.0787,6.0787,6.0787,6.0787,6.0787,6.0787,6.0787,6.0787,6.0787,6.0787,6.0787,6.0787,6.0787,6.0787,6.0787,6.0787,6.0787,6.0787,6.0787,6.0787,6.0787,6.0787,6.0787,6.0787,6.0787,6.0787,6.1903,6.2512,6.2512,6.4166,6.5051,6.5051,6.559,6.5904,6.5904,6.5904,6.5904,6.5904,6.5904,6.5904]}]]